| time (UTC) | temp F | wind direction | speed MPH | gust MPH | rain 1hr in | rain 24hr in | rain mn in | humidity % | barometer mb |
| 20260510232231 | 75 | 288 | 9.0 | 16.0 | 0.00 | 0.00 | 0.00 | 36 | 1010.6 |
| 20260510232139 | 75 | 277 | 9.0 | 16.0 | 0.00 | 0.00 | 0.00 | 36 | 1010.5 |
| 20260510232034 | 75 | 334 | 10.0 | 16.0 | 0.00 | 0.00 | 0.00 | 36 | 1010.5 |
| 20260510231931 | 75 | 306 | 8.0 | 15.0 | 0.00 | 0.00 | 0.00 | 36 | 1010.5 |
| 20260510231837 | 75 | 306 | 8.0 | 15.0 | 0.00 | 0.00 | 0.00 | 36 | 1010.5 |
| 20260510231734 | 75 | 306 | 9.0 | 15.0 | 0.00 | 0.00 | 0.00 | 36 | 1010.5 |
| 20260510231640 | 76 | 316 | 8.0 | 15.0 | 0.00 | 0.00 | 0.00 | 36 | 1010.5 |
| 20260510231539 | 76 | 304 | 8.0 | 16.0 | 0.00 | 0.00 | 0.00 | 36 | 1010.4 |
| 20260510231436 | 76 | 296 | 10.0 | 16.0 | 0.00 | 0.00 | 0.00 | 36 | 1010.6 |
| 20260510231343 | 76 | 306 | 11.0 | 16.0 | 0.00 | 0.00 | 0.00 | 36 | 1010.5 |
| 20260510231248 | 76 | 301 | 10.0 | 16.0 | 0.00 | 0.00 | 0.00 | 35 | 1010.5 |
| 20260510231123 | 76 | 313 | 9.0 | 18.0 | 0.00 | 0.00 | 0.00 | 35 | 1010.5 |
| 20260510231020 | 76 | 310 | 11.0 | 19.0 | 0.00 | 0.00 | 0.00 | 35 | 1010.4 |
| 20260510230946 | 76 | 308 | 9.0 | 19.0 | 0.00 | 0.00 | 0.00 | 35 | 1010.4 |
| 20260510230827 | 77 | 309 | 9.0 | 19.0 | 0.00 | 0.00 | 0.00 | 34 | 1010.4 |
| 20260510230732 | 77 | 290 | 10.0 | 19.0 | 0.00 | 0.00 | 0.00 | 34 | 1010.5 |
| 20260510230640 | 77 | 267 | 10.0 | 19.0 | 0.00 | 0.00 | 0.00 | 34 | 1010.5 |
| 20260510230554 | 77 | 291 | 8.0 | 19.0 | 0.00 | 0.00 | 0.00 | 34 | 1010.4 |
| 20260510230500 | 77 | 281 | 8.0 | 19.0 | 0.00 | 0.00 | 0.00 | 34 | 1010.4 |
| 20260510230405 | 77 | 276 | 11.0 | 19.0 | 0.00 | 0.00 | 0.00 | 34 | 1010.5 |
| 20260510230220 | 77 | 298 | 12.0 | 19.0 | 0.00 | 0.00 | 0.00 | 34 | 1010.4 |
| 20260510230149 | 77 | 275 | 12.0 | 19.0 | 0.00 | 0.00 | 0.00 | 35 | 1010.4 |
| 20260510230027 | 77 | 323 | 9.0 | 16.0 | 0.00 | 0.00 | 0.00 | 35 | 1010.5 |
| 20260510225923 | 77 | 308 | 7.0 | 17.0 | 0.00 | 0.00 | 0.00 | 35 | 1010.4 |
| 20260510225828 | 77 | 323 | 8.0 | 18.0 | 0.00 | 0.00 | 0.00 | 35 | 1010.4 |
| 20260510225727 | 77 | 319 | 10.0 | 18.0 | 0.00 | 0.00 | 0.00 | 35 | 1010.5 |
| 20260510225622 | 77 | 283 | 10.0 | 18.0 | 0.00 | 0.00 | 0.00 | 35 | 1010.5 |
| 20260510225548 | 77 | 270 | 7.0 | 18.0 | 0.00 | 0.00 | 0.00 | 35 | 1010.5 |
| 20260510225432 | 77 | 285 | 6.0 | 18.0 | 0.00 | 0.00 | 0.00 | 35 | 1010.5 |
| 20260510225333 | 77 | 284 | 6.0 | 19.0 | 0.00 | 0.00 | 0.00 | 35 | 1010.5 |
| 20260510225238 | 77 | 326 | 9.0 | 19.0 | 0.00 | 0.00 | 0.00 | 35 | 1010.4 |
| 20260510225135 | 77 | 274 | 13.0 | 19.0 | 0.00 | 0.00 | 0.00 | 35 | 1010.5 |
| 20260510225031 | 77 | 296 | 13.0 | 19.0 | 0.00 | 0.00 | 0.00 | 35 | 1010.4 |
| 20260510224937 | 77 | 287 | 12.0 | 19.0 | 0.00 | 0.00 | 0.00 | 35 | 1010.3 |
| 20260510224903 | 77 | 307 | 11.0 | 19.0 | 0.00 | 0.00 | 0.00 | 35 | 1010.3 |
| 20260510224722 | 77 | 310 | 12.0 | 21.0 | 0.00 | 0.00 | 0.00 | 34 | 1010.3 |
| 20260510224650 | 77 | 308 | 13.0 | 21.0 | 0.00 | 0.00 | 0.00 | 34 | 1010.3 |
| 20260510224524 | 78 | 287 | 14.0 | 21.0 | 0.00 | 0.00 | 0.00 | 34 | 1010.3 |
| 20260510224451 | 78 | 287 | 12.0 | 21.0 | 0.00 | 0.00 | 0.00 | 34 | 1010.3 |
| 20260510224327 | 78 | 297 | 10.0 | 21.0 | 0.00 | 0.00 | 0.00 | 34 | 1010.3 |
| 20260510224251 | 78 | 314 | 10.0 | 21.0 | 0.00 | 0.00 | 0.00 | 33 | 1010.3 |
| 20260510224128 | 78 | 331 | 11.0 | 21.0 | 0.00 | 0.00 | 0.00 | 33 | 1010.3 |
| 20260510224033 | 78 | 300 | 13.0 | 21.0 | 0.00 | 0.00 | 0.00 | 33 | 1010.3 |
| 20260510223956 | 79 | 313 | 13.0 | 21.0 | 0.00 | 0.00 | 0.00 | 33 | 1010.3 |
| 20260510223832 | 79 | 295 | 12.0 | 21.0 | 0.00 | 0.00 | 0.00 | 33 | 1010.3 |
| 20260510223759 | 79 | 356 | 9.0 | 17.0 | 0.00 | 0.00 | 0.00 | 33 | 1010.3 |
| 20260510223646 | 79 | 302 | 8.0 | 17.0 | 0.00 | 0.00 | 0.00 | 33 | 1010.3 |
| 20260510223540 | 79 | 300 | 9.0 | 17.0 | 0.00 | 0.00 | 0.00 | 33 | 1010.3 |
| 20260510223505 | 79 | 360 | 10.0 | 17.0 | 0.00 | 0.00 | 0.00 | 33 | 1010.2 |
| 20260510223320 | 79 | 323 | 10.0 | 17.0 | 0.00 | 0.00 | 0.00 | 32 | 1010.2 |
| 20260510223246 | 79 | 319 | 10.0 | 17.0 | 0.00 | 0.00 | 0.00 | 32 | 1010.2 |
| 20260510223127 | 79 | 326 | 11.0 | 17.0 | 0.00 | 0.00 | 0.00 | 32 | 1010.2 |
| 20260510223023 | 80 | 321 | 11.0 | 18.0 | 0.00 | 0.00 | 0.00 | 32 | 1010.2 |
| 20260510222920 | 80 | 304 | 10.0 | 18.0 | 0.00 | 0.00 | 0.00 | 32 | 1010.2 |
| 20260510222827 | 79 | 309 | 10.0 | 18.0 | 0.00 | 0.00 | 0.00 | 32 | 1010.2 |
| 20260510222723 | 79 | 302 | 11.0 | 18.0 | 0.00 | 0.00 | 0.00 | 32 | 1010.2 |
| 20260510222650 | 79 | 281 | 13.0 | 18.0 | 0.00 | 0.00 | 0.00 | 32 | 1010.2 |
| 20260510222533 | 79 | 259 | 14.0 | 19.0 | 0.00 | 0.00 | 0.00 | 32 | 1010.0 |
| 20260510222434 | 79 | 265 | 13.0 | 19.0 | 0.00 | 0.00 | 0.00 | 32 | 1010.0 |
| 20260510222400 | 79 | 270 | 12.0 | 19.0 | 0.00 | 0.00 | 0.00 | 32 | 1010.1 |
| 20260510222236 | 79 | 277 | 11.0 | 19.0 | 0.00 | 0.00 | 0.00 | 33 | 1010.2 |
| 20260510222202 | 79 | 269 | 10.0 | 19.0 | 0.00 | 0.00 | 0.00 | 33 | 1010.2 |
| 20260510222105 | 79 | 302 | 9.0 | 19.0 | 0.00 | 0.00 | 0.00 | 33 | 1010.1 |
| 20260510221921 | 79 | 296 | 9.0 | 19.0 | 0.00 | 0.00 | 0.00 | 33 | 1010.3 |
| 20260510221846 | 79 | 323 | 11.0 | 19.0 | 0.00 | 0.00 | 0.00 | 33 | 1010.3 |
| 20260510221725 | 79 | 296 | 13.0 | 19.0 | 0.00 | 0.00 | 0.00 | 33 | 1010.3 |
| 20260510221624 | 79 | 329 | 11.0 | 17.0 | 0.00 | 0.00 | 0.00 | 33 | 1010.2 |
| 20260510221530 | 79 | 310 | 10.0 | 16.0 | 0.00 | 0.00 | 0.00 | 33 | 1010.2 |
| 20260510221426 | 79 | 316 | 10.0 | 16.0 | 0.00 | 0.00 | 0.00 | 33 | 1010.2 |
| 20260510221323 | 79 | 298 | 10.0 | 16.0 | 0.00 | 0.00 | 0.00 | 33 | 1010.2 |
| 20260510221229 | 79 | 310 | 8.0 | 15.0 | 0.00 | 0.00 | 0.00 | 33 | 1010.2 |
| 20260510221157 | 79 | 309 | 8.0 | 15.0 | 0.00 | 0.00 | 0.00 | 33 | 1010.2 |
| 20260510221032 | 79 | 331 | 9.0 | 16.0 | 0.00 | 0.00 | 0.00 | 33 | 1010.2 |
| 20260510220941 | 79 | 311 | 10.0 | 16.0 | 0.00 | 0.00 | 0.00 | 32 | 1010.2 |
| 20260510220819 | 79 | 284 | 8.0 | 16.0 | 0.00 | 0.00 | 0.00 | 33 | 1010.3 |
| 20260510220744 | 79 | 318 | 7.0 | 16.0 | 0.00 | 0.00 | 0.00 | 33 | 1010.3 |
| 20260510220641 | 79 | 298 | 9.0 | 16.0 | 0.00 | 0.00 | 0.00 | 33 | 1010.2 |
| 20260510220528 | 79 | 304 | 12.0 | 16.0 | 0.00 | 0.00 | 0.00 | 33 | 1010.3 |
| 20260510220434 | 79 | 299 | 10.0 | 16.0 | 0.00 | 0.00 | 0.00 | 33 | 1010.3 |
| 20260510220331 | 79 | 294 | 8.0 | 16.0 | 0.00 | 0.00 | 0.00 | 33 | 1010.3 |
| 20260510220241 | 79 | 308 | 6.0 | 16.0 | 0.00 | 0.00 | 0.00 | 33 | 1010.3 |
| 20260510220209 | 79 | 304 | 5.0 | 12.0 | 0.00 | 0.00 | 0.00 | 33 | 1010.2 |
| 20260510220043 | 79 | 351 | 5.0 | 12.0 | 0.00 | 0.00 | 0.00 | 34 | 1010.2 |
| 20260510215947 | 79 | 360 | 4.0 | 12.0 | 0.00 | 0.00 | 0.00 | 33 | 1010.2 |
| 20260510215823 | 79 | 324 | 4.0 | 12.0 | 0.00 | 0.00 | 0.00 | 33 | 1010.1 |
| 20260510215729 | 79 | 352 | 5.0 | 12.0 | 0.00 | 0.00 | 0.00 | 33 | 1010.1 |
| 20260510215629 | 79 | 355 | 6.0 | 12.0 | 0.00 | 0.00 | 0.00 | 34 | 1010.2 |
| 20260510215553 | 79 | 320 | 4.0 | 13.0 | 0.00 | 0.00 | 0.00 | 34 | 1010.1 |
| 20260510215503 | 79 | 348 | 4.0 | 13.0 | 0.00 | 0.00 | 0.00 | 33 | 1010.1 |
| 20260510215338 | 79 | 38 | 6.0 | 13.0 | 0.00 | 0.00 | 0.00 | 33 | 1010.1 |
| 20260510215307 | 79 | 32 | 7.0 | 14.0 | 0.00 | 0.00 | 0.00 | 33 | 1010.1 |
| 20260510215120 | 79 | 356 | 8.0 | 14.0 | 0.00 | 0.00 | 0.00 | 32 | 1010.2 |
| 20260510215044 | 79 | 343 | 7.0 | 14.0 | 0.00 | 0.00 | 0.00 | 32 | 1010.2 |
| 20260510214923 | 79 | 356 | 6.0 | 14.0 | 0.00 | 0.00 | 0.00 | 33 | 1010.1 |
| 20260510214819 | 79 | 29 | 9.0 | 14.0 | 0.00 | 0.00 | 0.00 | 33 | 1010.2 |
| 20260510214731 | 80 | 25 | 9.0 | 14.0 | 0.00 | 0.00 | 0.00 | 33 | 1010.2 |
| 20260510214645 | 80 | 15 | 6.0 | 14.0 | 0.00 | 0.00 | 0.00 | 33 | 1010.1 |
| 20260510214530 | 80 | 36 | 6.0 | 14.0 | 0.00 | 0.00 | 0.00 | 33 | 1010.1 |
| 20260510214456 | 79 | 52 | 6.0 | 14.0 | 0.00 | 0.00 | 0.00 | 34 | 1010.1 |
| 20260510214332 | 79 | 32 | 4.0 | 13.0 | 0.00 | 0.00 | 0.00 | 33 | 1010.1 |
| 20260510214229 | 79 | 29 | 6.0 | 13.0 | 0.00 | 0.00 | 0.00 | 34 | 1010.2 |
| 20260510214135 | 79 | 27 | 8.0 | 13.0 | 0.00 | 0.00 | 0.00 | 34 | 1010.1 |
| 20260510214035 | 79 | 26 | 9.0 | 13.0 | 0.00 | 0.00 | 0.00 | 33 | 1010.2 |
| 20260510213940 | 79 | 23 | 8.0 | 13.0 | 0.00 | 0.00 | 0.00 | 33 | 1010.1 |
| 20260510213838 | 79 | 15 | 8.0 | 12.0 | 0.00 | 0.00 | 0.00 | 33 | 1010.1 |
| 20260510213743 | 79 | 328 | 8.0 | 12.0 | 0.00 | 0.00 | 0.00 | 33 | 1010.0 |
| 20260510213642 | 79 | 317 | 6.0 | 12.0 | 0.00 | 0.00 | 0.00 | 34 | 1010.1 |
| 20260510213605 | 79 | 10 | 4.0 | 8.0 | 0.00 | 0.00 | 0.00 | 33 | 1010.1 |
| 20260510213421 | 79 | 29 | 1.0 | 9.0 | 0.00 | 0.00 | 0.00 | 34 | 1010.1 |
| 20260510213331 | 79 | 50 | 2.0 | 9.0 | 0.00 | 0.00 | 0.00 | 33 | 1010.1 |
| 20260510213227 | 79 | 50 | 2.0 | 10.0 | 0.00 | 0.00 | 0.00 | 34 | 1010.2 |
| 20260510213155 | 79 | 50 | 2.0 | 10.0 | 0.00 | 0.00 | 0.00 | 33 | 1010.1 |
| 20260510213029 | 79 | 50 | 1.0 | 10.0 | 0.00 | 0.00 | 0.00 | 34 | 1010.1 |
| 20260510212936 | 79 | 54 | 1.0 | 10.0 | 0.00 | 0.00 | 0.00 | 33 | 1010.1 |
| 20260510212832 | 79 | 54 | 2.0 | 10.0 | 0.00 | 0.00 | 0.00 | 33 | 1010.1 |
| 20260510212729 | 79 | 54 | 3.0 | 10.0 | 0.00 | 0.00 | 0.00 | 33 | 1010.0 |
| 20260510212640 | 79 | 54 | 3.0 | 10.0 | 0.00 | 0.00 | 0.00 | 32 | 1010.0 |
| 20260510212534 | 79 | 301 | 4.0 | 10.0 | 0.00 | 0.00 | 0.00 | 32 | 1010.0 |
| 20260510212439 | 79 | 327 | 5.0 | 10.0 | 0.00 | 0.00 | 0.00 | 33 | 1010.0 |
| 20260510212335 | 79 | 350 | 6.0 | 11.0 | 0.00 | 0.00 | 0.00 | 32 | 1010.1 |
| 20260510212241 | 79 | 346 | 4.0 | 12.0 | 0.00 | 0.00 | 0.00 | 33 | 1010.0 |
| 20260510212139 | 79 | 353 | 3.0 | 12.0 | 0.00 | 0.00 | 0.00 | 32 | 1010.0 |
| 20260510212034 | 79 | 34 | 2.0 | 12.0 | 0.00 | 0.00 | 0.00 | 33 | 1010.0 |
| 20260510211943 | 79 | 34 | 3.0 | 12.0 | 0.00 | 0.00 | 0.00 | 34 | 1010.1 |
| 20260510211848 | 79 | 38 | 3.0 | 12.0 | 0.00 | 0.00 | 0.00 | 34 | 1010.1 |
| 20260510211724 | 79 | 15 | 5.0 | 12.0 | 0.00 | 0.00 | 0.00 | 33 | 1010.1 |
| 20260510211619 | 79 | 24 | 7.0 | 12.0 | 0.00 | 0.00 | 0.00 | 33 | 1010.2 |
| 20260510211526 | 79 | 41 | 8.0 | 12.0 | 0.00 | 0.00 | 0.00 | 33 | 1010.2 |
| 20260510211441 | 79 | 19 | 7.0 | 12.0 | 0.00 | 0.00 | 0.00 | 33 | 1010.1 |
| 20260510211324 | 79 | 348 | 6.0 | 11.0 | 0.00 | 0.00 | 0.00 | 33 | 1010.0 |
| 20260510211224 | 79 | 343 | 7.0 | 11.0 | 0.00 | 0.00 | 0.00 | 34 | 1010.0 |
| 20260510211131 | 79 | 10 | 7.0 | 11.0 | 0.00 | 0.00 | 0.00 | 34 | 1010.0 |
| 20260510211025 | 79 | 65 | 5.0 | 11.0 | 0.00 | 0.00 | 0.00 | 34 | 1010.0 |
| 20260510210922 | 78 | 49 | 2.0 | 9.0 | 0.00 | 0.00 | 0.00 | 34 | 1010.0 |
| 20260510210827 | 78 | 82 | 1.0 | 9.0 | 0.00 | 0.00 | 0.00 | 33 | 1010.0 |
| 20260510210724 | 78 | 82 | 3.0 | 9.0 | 0.00 | 0.00 | 0.00 | 34 | 1010.0 |
| 20260510210636 | 78 | 82 | 3.0 | 9.0 | 0.00 | 0.00 | 0.00 | 34 | 1010.0 |
| 20260510210533 | 78 | 52 | 2.0 | 10.0 | 0.00 | 0.00 | 0.00 | 35 | 1010.0 |
| 20260510210439 | 78 | 52 | 2.0 | 10.0 | 0.00 | 0.00 | 0.00 | 35 | 1010.0 |
| 20260510210336 | 78 | 49 | 4.0 | 13.0 | 0.00 | 0.00 | 0.00 | 34 | 1010.0 |
| 20260510210232 | 78 | 47 | 5.0 | 13.0 | 0.00 | 0.00 | 0.00 | 34 | 1010.0 |
| 20260510210139 | 77 | 78 | 5.0 | 14.0 | 0.00 | 0.00 | 0.00 | 35 | 1010.1 |
| 20260510205919 | 77 | 44 | 4.0 | 14.0 | 0.00 | 0.00 | 0.00 | 35 | 1010.1 |
| 20260510205847 | 77 | 44 | 5.0 | 14.0 | 0.00 | 0.00 | 0.00 | 35 | 1010.1 |
| 20260510205742 | 77 | 25 | 6.0 | 14.0 | 0.00 | 0.00 | 0.00 | 35 | 1010.2 |
| 20260510205707 | 77 | 15 | 8.0 | 14.0 | 0.00 | 0.00 | 0.00 | 35 | 1010.2 |
| 20260510205541 | 77 | 34 | 9.0 | 14.0 | 0.00 | 0.00 | 0.00 | 35 | 1010.3 |
| 20260510205426 | 77 | 15 | 8.0 | 14.0 | 0.00 | 0.00 | 0.00 | 34 | 1010.3 |
| 20260510205322 | 77 | 36 | 6.0 | 14.0 | 0.00 | 0.00 | 0.00 | 34 | 1010.3 |
| 20260510205223 | 77 | 357 | 5.0 | 12.0 | 0.00 | 0.00 | 0.00 | 35 | 1010.3 |
| 20260510205151 | 77 | 54 | 4.0 | 12.0 | 0.00 | 0.00 | 0.00 | 34 | 1010.3 |
| 20260510205034 | 77 | 91 | 3.0 | 12.0 | 0.00 | 0.00 | 0.00 | 35 | 1010.3 |
| 20260510204931 | 77 | 95 | 2.0 | 12.0 | 0.00 | 0.00 | 0.00 | 36 | 1010.3 |
| 20260510204827 | 76 | 54 | 2.0 | 12.0 | 0.00 | 0.00 | 0.00 | 36 | 1010.3 |
| 20260510204733 | 76 | 54 | 4.0 | 12.0 | 0.00 | 0.00 | 0.00 | 34 | 1010.4 |
| 20260510204701 | 76 | 54 | 5.0 | 12.0 | 0.00 | 0.00 | 0.00 | 34 | 1010.4 |
| 20260510204520 | 76 | 27 | 4.0 | 12.0 | 0.00 | 0.00 | 0.00 | 36 | 1010.4 |
| 20260510204446 | 76 | 38 | 3.0 | 12.0 | 0.00 | 0.00 | 0.00 | 35 | 1010.4 |
| 20260510204343 | 76 | 32 | 5.0 | 12.0 | 0.00 | 0.00 | 0.00 | 35 | 1010.4 |
| 20260510204246 | 76 | 31 | 6.0 | 12.0 | 0.00 | 0.00 | 0.00 | 35 | 1010.4 |
| 20260510204144 | 76 | 31 | 7.0 | 12.0 | 0.00 | 0.00 | 0.00 | 35 | 1010.3 |
| 20260510204038 | 76 | 24 | 6.0 | 11.0 | 0.00 | 0.00 | 0.00 | 35 | 1010.4 |
| 20260510203944 | 76 | 46 | 6.0 | 11.0 | 0.00 | 0.00 | 0.00 | 35 | 1010.3 |
| 20260510203842 | 76 | 20 | 5.0 | 11.0 | 0.00 | 0.00 | 0.00 | 36 | 1010.3 |
| 20260510203747 | 76 | 29 | 5.0 | 11.0 | 0.00 | 0.00 | 0.00 | 36 | 1010.3 |
| 20260510203646 | 76 | 335 | 5.0 | 11.0 | 0.00 | 0.00 | 0.00 | 36 | 1010.4 |
| 20260510203532 | 76 | 5 | 5.0 | 11.0 | 0.00 | 0.00 | 0.00 | 37 | 1010.4 |
| 20260510203429 | 76 | 35 | 6.0 | 11.0 | 0.00 | 0.00 | 0.00 | 36 | 1010.4 |
| 20260510203337 | 76 | 59 | 5.0 | 11.0 | 0.00 | 0.00 | 0.00 | 36 | 1010.3 |
| 20260510203231 | 76 | 34 | 5.0 | 11.0 | 0.00 | 0.00 | 0.00 | 36 | 1010.4 |
| 20260510203131 | 76 | 358 | 4.0 | 8.0 | 0.00 | 0.00 | 0.00 | 35 | 1010.4 |
| 20260510203055 | 76 | 19 | 3.0 | 8.0 | 0.00 | 0.00 | 0.00 | 36 | 1010.4 |
| 20260510202922 | 76 | 15 | 3.0 | 8.0 | 0.00 | 0.00 | 0.00 | 36 | 1010.4 |
| 20260510202819 | 75 | 52 | 3.0 | 7.0 | 0.00 | 0.00 | 0.00 | 37 | 1010.5 |
| 20260510202747 | 75 | 54 | 3.0 | 7.0 | 0.00 | 0.00 | 0.00 | 37 | 1010.5 |
| 20260510202622 | 75 | 57 | 3.0 | 7.0 | 0.00 | 0.00 | 0.00 | 37 | 1010.4 |
| 20260510202520 | 75 | 56 | 4.0 | 7.0 | 0.00 | 0.00 | 0.00 | 37 | 1010.5 |
| 20260510202424 | 75 | 56 | 4.0 | 9.0 | 0.00 | 0.00 | 0.00 | 36 | 1010.4 |
| 20260510202321 | 75 | 50 | 3.0 | 9.0 | 0.00 | 0.00 | 0.00 | 37 | 1010.4 |
| 20260510202230 | 75 | 44 | 3.0 | 9.0 | 0.00 | 0.00 | 0.00 | 36 | 1010.4 |
| 20260510202129 | 75 | 44 | 4.0 | 9.0 | 0.00 | 0.00 | 0.00 | 36 | 1010.4 |
| 20260510202034 | 75 | 5 | 5.0 | 10.0 | 0.00 | 0.00 | 0.00 | 36 | 1010.4 |
| 20260510201931 | 74 | 5 | 5.0 | 10.0 | 0.00 | 0.00 | 0.00 | 36 | 1010.4 |
| 20260510201827 | 74 | 64 | 4.0 | 10.0 | 0.00 | 0.00 | 0.00 | 36 | 1010.5 |
| 20260510201734 | 74 | 42 | 4.0 | 10.0 | 0.00 | 0.00 | 0.00 | 37 | 1010.5 |
| 20260510201640 | 74 | 42 | 5.0 | 10.0 | 0.00 | 0.00 | 0.00 | 36 | 1010.4 |
| 20260510201520 | 74 | 23 | 3.0 | 10.0 | 0.00 | 0.00 | 0.00 | 38 | 1010.4 |
| 20260510201438 | 74 | 46 | 4.0 | 10.0 | 0.00 | 0.00 | 0.00 | 38 | 1010.4 |
| 20260510201344 | 74 | 54 | 5.0 | 10.0 | 0.00 | 0.00 | 0.00 | 38 | 1010.4 |
| 20260510201222 | 74 | 10 | 7.0 | 10.0 | 0.00 | 0.00 | 0.00 | 38 | 1010.4 |
| 20260510201147 | 74 | 10 | 6.0 | 10.0 | 0.00 | 0.00 | 0.00 | 38 | 1010.4 |
| 20260510201044 | 73 | 355 | 4.0 | 11.0 | 0.00 | 0.00 | 0.00 | 39 | 1010.4 |
| 20260510201005 | 73 | 123 | 5.0 | 13.0 | 0.00 | 0.00 | 0.00 | 39 | 1010.4 |
| 20260510200823 | 73 | 124 | 5.0 | 13.0 | 0.00 | 0.00 | 0.00 | 39 | 1010.4 |
| 20260510200720 | 73 | 41 | 4.0 | 13.0 | 0.00 | 0.00 | 0.00 | 39 | 1010.4 |
| 20260510200628 | 73 | 53 | 4.0 | 13.0 | 0.00 | 0.00 | 0.00 | 40 | 1010.4 |
| 20260510200551 | 72 | 27 | 4.0 | 13.0 | 0.00 | 0.00 | 0.00 | 40 | 1010.5 |
| 20260510200428 | 72 | 338 | 4.0 | 13.0 | 0.00 | 0.00 | 0.00 | 39 | 1010.5 |
| 20260510200353 | 72 | 31 | 6.0 | 13.0 | 0.00 | 0.00 | 0.00 | 40 | 1010.4 |
| 20260510200229 | 72 | 30 | 8.0 | 13.0 | 0.00 | 0.00 | 0.00 | 41 | 1010.5 |
| 20260510200140 | 72 | 27 | 7.0 | 13.0 | 0.00 | 0.00 | 0.00 | 41 | 1010.5 |
| 20260510200035 | 72 | 28 | 6.0 | 10.0 | 0.00 | 0.00 | 0.00 | 40 | 1010.5 |
| 20260510195931 | 71 | 39 | 6.0 | 10.0 | 0.00 | 0.00 | 0.00 | 40 | 1010.5 |
| 20260510195835 | 71 | 32 | 6.0 | 10.0 | 0.00 | 0.00 | 0.00 | 40 | 1010.5 |
| 20260510195802 | 71 | 34 | 7.0 | 10.0 | 0.00 | 0.00 | 0.00 | 40 | 1010.5 |
| 20260510195708 | 71 | 344 | 6.0 | 10.0 | 0.00 | 0.00 | 0.00 | 41 | 1010.5 |
| 20260510195523 | 71 | 337 | 6.0 | 11.0 | 0.00 | 0.00 | 0.00 | 41 | 1010.6 |
| 20260510195421 | 71 | 10 | 6.0 | 12.0 | 0.00 | 0.00 | 0.00 | 40 | 1010.6 |
| 20260510195332 | 71 | 29 | 5.0 | 12.0 | 0.00 | 0.00 | 0.00 | 41 | 1010.6 |
| 20260510195230 | 71 | 40 | 4.0 | 12.0 | 0.00 | 0.00 | 0.00 | 41 | 1010.6 |
| 20260510195156 | 71 | 19 | 4.0 | 12.0 | 0.00 | 0.00 | 0.00 | 40 | 1010.6 |
| 20260510195029 | 71 | 15 | 6.0 | 12.0 | 0.00 | 0.00 | 0.00 | 40 | 1010.6 |
| 20260510194936 | 71 | 358 | 6.0 | 12.0 | 0.00 | 0.00 | 0.00 | 40 | 1010.5 |
| 20260510194854 | 71 | 20 | 6.0 | 12.0 | 0.00 | 0.00 | 0.00 | 40 | 1010.6 |
| 20260510194739 | 71 | 50 | 5.0 | 12.0 | 0.00 | 0.00 | 0.00 | 40 | 1010.5 |
| 20260510194640 | 71 | 48 | 5.0 | 11.0 | 0.00 | 0.00 | 0.00 | 40 | 1010.5 |
| 20260510194545 | 71 | 20 | 6.0 | 10.0 | 0.00 | 0.00 | 0.00 | 40 | 1010.5 |
| 20260510194421 | 71 | 15 | 4.0 | 10.0 | 0.00 | 0.00 | 0.00 | 40 | 1010.5 |
| 20260510194337 | 71 | 10 | 4.0 | 10.0 | 0.00 | 0.00 | 0.00 | 40 | 1010.5 |
| 20260510194242 | 71 | 5 | 5.0 | 10.0 | 0.00 | 0.00 | 0.00 | 40 | 1010.5 |
| 20260510194210 | 71 | 5 | 5.0 | 10.0 | 0.00 | 0.00 | 0.00 | 40 | 1010.6 |
| 20260510194024 | 71 | 5 | 3.0 | 10.0 | 0.00 | 0.00 | 0.00 | 39 | 1010.5 |
| 20260510193926 | 71 | 360 | 4.0 | 10.0 | 0.00 | 0.00 | 0.00 | 39 | 1010.5 |
| 20260510193832 | 71 | 1 | 5.0 | 10.0 | 0.00 | 0.00 | 0.00 | 39 | 1010.5 |
| 20260510193729 | 71 | 10 | 3.0 | 10.0 | 0.00 | 0.00 | 0.00 | 39 | 1010.5 |
| 20260510193636 | 71 | 15 | 4.0 | 10.0 | 0.00 | 0.00 | 0.00 | 39 | 1010.5 |
| 20260510193551 | 71 | 15 | 5.0 | 10.0 | 0.00 | 0.00 | 0.00 | 39 | 1010.6 |
| 20260510193436 | 71 | 10 | 5.0 | 10.0 | 0.00 | 0.00 | 0.00 | 39 | 1010.6 |
| 20260510193333 | 71 | 5 | 5.0 | 8.0 | 0.00 | 0.00 | 0.00 | 39 | 1010.6 |
| 20260510193246 | 71 | 5 | 4.0 | 8.0 | 0.00 | 0.00 | 0.00 | 39 | 1010.6 |
| 20260510193119 | 71 | 5 | 4.0 | 8.0 | 0.00 | 0.00 | 0.00 | 40 | 1010.6 |
| 20260510193026 | 71 | 5 | 4.0 | 8.0 | 0.00 | 0.00 | 0.00 | 39 | 1010.6 |
| 20260510192924 | 71 | 360 | 3.0 | 8.0 | 0.00 | 0.00 | 0.00 | 39 | 1010.6 |
| 20260510192822 | 71 | 360 | 3.0 | 8.0 | 0.00 | 0.00 | 0.00 | 40 | 1010.6 |
| 20260510192730 | 71 | 360 | 4.0 | 8.0 | 0.00 | 0.00 | 0.00 | 39 | 1010.6 |
| 20260510192625 | 71 | 360 | 4.0 | 9.0 | 0.00 | 0.00 | 0.00 | 39 | 1010.6 |
| 20260510192556 | 71 | 360 | 4.0 | 9.0 | 0.00 | 0.00 | 0.00 | 39 | 1010.6 |
| 20260510192432 | 71 | 354 | 3.0 | 9.0 | 0.00 | 0.00 | 0.00 | 39 | 1010.6 |
| 20260510192339 | 71 | 354 | 4.0 | 9.0 | 0.00 | 0.00 | 0.00 | 39 | 1010.6 |
| 20260510192308 | 71 | 354 | 3.0 | 9.0 | 0.00 | 0.00 | 0.00 | 39 | 1010.6 |
| 20260510192122 | 71 | 354 | 1.0 | 9.0 | 0.00 | 0.00 | 0.00 | 39 | 1010.6 |
| 20260510192038 | 71 | 354 | 3.0 | 9.0 | 0.00 | 0.00 | 0.00 | 39 | 1010.6 |
| 20260510191926 | 71 | 354 | 5.0 | 9.0 | 0.00 | 0.00 | 0.00 | 39 | 1010.6 |
| 20260510191824 | 71 | 350 | 4.0 | 9.0 | 0.00 | 0.00 | 0.00 | 38 | 1010.6 |
| 20260510191722 | 71 | 348 | 4.0 | 9.0 | 0.00 | 0.00 | 0.00 | 39 | 1010.6 |
| 20260510191631 | 71 | 348 | 5.0 | 9.0 | 0.00 | 0.00 | 0.00 | 38 | 1010.6 |
| 20260510191525 | 71 | 346 | 5.0 | 9.0 | 0.00 | 0.00 | 0.00 | 38 | 1010.6 |
| 20260510191430 | 71 | 339 | 5.0 | 9.0 | 0.00 | 0.00 | 0.00 | 38 | 1010.6 |
| 20260510191328 | 71 | 348 | 4.0 | 9.0 | 0.00 | 0.00 | 0.00 | 37 | 1010.6 |
| 20260510191229 | 71 | 352 | 4.0 | 9.0 | 0.00 | 0.00 | 0.00 | 38 | 1010.6 |
| 20260510191137 | 71 | 352 | 5.0 | 9.0 | 0.00 | 0.00 | 0.00 | 38 | 1010.6 |
| 20260510191034 | 71 | 354 | 5.0 | 9.0 | 0.00 | 0.00 | 0.00 | 38 | 1010.6 |
| 20260510190940 | 72 | 5 | 5.0 | 9.0 | 0.00 | 0.00 | 0.00 | 38 | 1010.6 |
| 20260510190838 | 72 | 5 | 5.0 | 9.0 | 0.00 | 0.00 | 0.00 | 38 | 1010.6 |
| 20260510190746 | 72 | 5 | 4.0 | 9.0 | 0.00 | 0.00 | 0.00 | 39 | 1010.6 |
| 20260510190626 | 72 | 327 | 4.0 | 9.0 | 0.00 | 0.00 | 0.00 | 38 | 1010.6 |
| 20260510190547 | 72 | 327 | 5.0 | 9.0 | 0.00 | 0.00 | 0.00 | 38 | 1010.6 |
| 20260510190424 | 72 | 325 | 3.0 | 9.0 | 0.00 | 0.00 | 0.00 | 38 | 1010.6 |
| 20260510190321 | 72 | 15 | 3.0 | 10.0 | 0.00 | 0.00 | 0.00 | 38 | 1010.6 |
| 20260510190248 | 72 | 19 | 3.0 | 10.0 | 0.00 | 0.00 | 0.00 | 38 | 1010.6 |
| 20260510190141 | 72 | 15 | 4.0 | 10.0 | 0.00 | 0.00 | 0.00 | 38 | 1010.6 |
| 20260510190018 | 72 | 15 | 4.0 | 10.0 | 0.00 | 0.00 | 0.00 | 37 | 1010.6 |
| 20260510185929 | 72 | 15 | 4.0 | 10.0 | 0.00 | 0.00 | 0.00 | 37 | 1010.6 |
| 20260510185828 | 72 | 15 | 4.0 | 10.0 | 0.00 | 0.00 | 0.00 | 37 | 1010.6 |
| 20260510185755 | 72 | 15 | 5.0 | 10.0 | 0.00 | 0.00 | 0.00 | 37 | 1010.7 |
| 20260510185659 | 72 | 15 | 5.0 | 10.0 | 0.00 | 0.00 | 0.00 | 37 | 1010.6 |
| 20260510185532 | 73 | 15 | 5.0 | 10.0 | 0.00 | 0.00 | 0.00 | 36 | 1010.7 |
| 20260510185439 | 73 | 36 | 4.0 | 10.0 | 0.00 | 0.00 | 0.00 | 36 | 1010.6 |
| 20260510185335 | 73 | 35 | 3.0 | 9.0 | 0.00 | 0.00 | 0.00 | 36 | 1010.6 |
| 20260510185242 | 73 | 35 | 4.0 | 9.0 | 0.00 | 0.00 | 0.00 | 36 | 1010.7 |
| 20260510185120 | 73 | 35 | 4.0 | 9.0 | 0.00 | 0.00 | 0.00 | 36 | 1010.6 |
| 20260510185046 | 73 | 34 | 4.0 | 9.0 | 0.00 | 0.00 | 0.00 | 36 | 1010.6 |
| 20260510184923 | 73 | 33 | 4.0 | 9.0 | 0.00 | 0.00 | 0.00 | 36 | 1010.6 |
| 20260510184820 | 73 | 33 | 4.0 | 9.0 | 0.00 | 0.00 | 0.00 | 36 | 1010.7 |
| 20260510184727 | 73 | 33 | 5.0 | 9.0 | 0.00 | 0.00 | 0.00 | 36 | 1010.7 |
| 20260510184622 | 73 | 28 | 4.0 | 9.0 | 0.00 | 0.00 | 0.00 | 37 | 1010.7 |
| 20260510184532 | 73 | 28 | 3.0 | 9.0 | 0.00 | 0.00 | 0.00 | 36 | 1010.7 |
| 20260510184428 | 73 | 29 | 4.0 | 9.0 | 0.00 | 0.00 | 0.00 | 37 | 1010.7 |
| 20260510184325 | 73 | 29 | 3.0 | 9.0 | 0.00 | 0.00 | 0.00 | 37 | 1010.7 |
| 20260510184232 | 72 | 29 | 2.0 | 9.0 | 0.00 | 0.00 | 0.00 | 38 | 1010.7 |
| 20260510184125 | 72 | 29 | 3.0 | 9.0 | 0.00 | 0.00 | 0.00 | 37 | 1010.7 |
| 20260510184052 | 72 | 29 | 4.0 | 9.0 | 0.00 | 0.00 | 0.00 | 38 | 1010.7 |
| 20260510183956 | 72 | 29 | 4.0 | 9.0 | 0.00 | 0.00 | 0.00 | 39 | 1010.7 |
| 20260510183832 | 72 | 25 | 2.0 | 8.0 | 0.00 | 0.00 | 0.00 | 38 | 1010.7 |
| 20260510183746 | 72 | 25 | 3.0 | 9.0 | 0.00 | 0.00 | 0.00 | 37 | 1010.7 |
| 20260510183642 | 72 | 25 | 5.0 | 9.0 | 0.00 | 0.00 | 0.00 | 38 | 1010.6 |
| 20260510183546 | 72 | 23 | 5.0 | 9.0 | 0.00 | 0.00 | 0.00 | 38 | 1010.6 |
| 20260510183424 | 71 | 23 | 3.0 | 9.0 | 0.00 | 0.00 | 0.00 | 38 | 1010.7 |
| 20260510183320 | 71 | 15 | 2.0 | 9.0 | 0.00 | 0.00 | 0.00 | 38 | 1010.7 |
| 20260510183226 | 71 | 15 | 2.0 | 9.0 | 0.00 | 0.00 | 0.00 | 38 | 1010.7 |
| 20260510183129 | 71 | 15 | 2.0 | 9.0 | 0.00 | 0.00 | 0.00 | 38 | 1010.7 |
| 20260510183024 | 71 | 15 | 3.0 | 9.0 | 0.00 | 0.00 | 0.00 | 38 | 1010.7 |
| 20260510182928 | 71 | 15 | 3.0 | 9.0 | 0.00 | 0.00 | 0.00 | 38 | 1010.7 |
| 20260510182824 | 71 | 15 | 3.0 | 9.0 | 0.00 | 0.00 | 0.00 | 38 | 1010.7 |
| 20260510182729 | 71 | 15 | 3.0 | 9.0 | 0.00 | 0.00 | 0.00 | 39 | 1010.7 |
| 20260510182628 | 71 | 15 | 4.0 | 9.0 | 0.00 | 0.00 | 0.00 | 38 | 1010.7 |
| 20260510182524 | 71 | 15 | 4.0 | 9.0 | 0.00 | 0.00 | 0.00 | 39 | 1010.7 |
| 20260510182433 | 71 | 356 | 3.0 | 8.0 | 0.00 | 0.00 | 0.00 | 40 | 1010.7 |
| 20260510182331 | 71 | 356 | 3.0 | 8.0 | 0.00 | 0.00 | 0.00 | 38 | 1010.7 |
| 20260510182237 | 71 | 356 | 3.0 | 8.0 | 0.00 | 0.00 | 0.00 | 39 | 1010.8 |
| 20260510182137 | 70 | 356 | 3.0 | 8.0 | 0.00 | 0.00 | 0.00 | 39 | 1010.7 |
| 20260510182020 | 70 | 356 | 4.0 | 8.0 | 0.00 | 0.00 | 0.00 | 40 | 1010.8 |
| 20260510181936 | 70 | 356 | 3.0 | 8.0 | 0.00 | 0.00 | 0.00 | 39 | 1010.8 |
| 20260510181843 | 70 | 352 | 1.0 | 8.0 | 0.00 | 0.00 | 0.00 | 39 | 1010.8 |
| 20260510181724 | 70 | 352 | 1.0 | 8.0 | 0.00 | 0.00 | 0.00 | 39 | 1010.8 |
| 20260510181651 | 70 | 352 | 3.0 | 8.0 | 0.00 | 0.00 | 0.00 | 39 | 1010.8 |
| 20260510181526 | 70 | 352 | 5.0 | 8.0 | 0.00 | 0.00 | 0.00 | 39 | 1010.8 |
| 20260510181419 | 70 | 352 | 4.0 | 8.0 | 0.00 | 0.00 | 0.00 | 40 | 1010.8 |
| 20260510181326 | 70 | 352 | 3.0 | 6.0 | 0.00 | 0.00 | 0.00 | 41 | 1010.8 |
| 20260510181223 | 69 | 352 | 2.0 | 6.0 | 0.00 | 0.00 | 0.00 | 41 | 1010.8 |
| 20260510181134 | 69 | 351 | 2.0 | 6.0 | 0.00 | 0.00 | 0.00 | 40 | 1010.8 |
| 20260510181049 | 69 | 351 | 3.0 | 6.0 | 0.00 | 0.00 | 0.00 | 41 | 1010.7 |
| 20260510180934 | 69 | 351 | 3.0 | 6.0 | 0.00 | 0.00 | 0.00 | 42 | 1010.8 |
| 20260510180832 | 68 | 360 | 3.0 | 5.0 | 0.00 | 0.00 | 0.00 | 41 | 1010.8 |
| 20260510180736 | 68 | 360 | 3.0 | 5.0 | 0.00 | 0.00 | 0.00 | 41 | 1010.8 |
| 20260510180635 | 68 | 360 | 3.0 | 5.0 | 0.00 | 0.00 | 0.00 | 41 | 1010.9 |
| 20260510180530 | 68 | 360 | 3.0 | 5.0 | 0.00 | 0.00 | 0.00 | 41 | 1010.9 |
| 20260510180434 | 68 | 360 | 1.0 | 5.0 | 0.00 | 0.00 | 0.00 | 41 | 1010.9 |
| 20260510180344 | 68 | 1 | 0.0 | 4.0 | 0.00 | 0.00 | 0.00 | 42 | 1010.9 |
| 20260510180239 | 67 | 1 | 1.0 | 4.0 | 0.00 | 0.00 | 0.00 | 41 | 1010.9 |
| 20260510180135 | 67 | 1 | 2.0 | 4.0 | 0.00 | 0.00 | 0.00 | 41 | 1010.8 |
| 20260510180020 | 67 | 5 | 1.0 | 4.0 | 0.00 | 0.00 | 0.00 | 41 | 1010.8 |
| 20260510175935 | 67 | 5 | 1.0 | 4.0 | 0.00 | 0.00 | 0.00 | 41 | 1010.8 |
| 20260510175842 | 67 | 5 | 2.0 | 4.0 | 0.00 | 0.00 | 0.00 | 41 | 1010.8 |
| 20260510175743 | 67 | 5 | 2.0 | 4.0 | 0.00 | 0.00 | 0.00 | 43 | 1010.8 |
| 20260510175630 | 66 | 5 | 1.0 | 4.0 | 0.00 | 0.00 | 0.00 | 42 | 1010.8 |
| 20260510175526 | 66 | 1 | 0.0 | 4.0 | 0.00 | 0.00 | 0.00 | 42 | 1010.7 |
| 20260510175422 | 66 | 1 | 1.0 | 4.0 | 0.00 | 0.00 | 0.00 | 42 | 1010.8 |
| 20260510175349 | 66 | 1 | 1.0 | 4.0 | 0.00 | 0.00 | 0.00 | 42 | 1010.8 |
| 20260510175225 | 66 | 1 | 1.0 | 4.0 | 0.00 | 0.00 | 0.00 | 43 | 1010.8 |
| 20260510175132 | 66 | 1 | 1.0 | 5.0 | 0.00 | 0.00 | 0.00 | 43 | 1010.8 |
| 20260510175036 | 65 | 1 | 1.0 | 5.0 | 0.00 | 0.00 | 0.00 | 43 | 1010.8 |
| 20260510174937 | 65 | 1 | 1.0 | 5.0 | 0.00 | 0.00 | 0.00 | 43 | 1010.8 |
| 20260510174904 | 65 | 1 | 1.0 | 5.0 | 0.00 | 0.00 | 0.00 | 43 | 1010.9 |
| 20260510174808 | 65 | 1 | 2.0 | 5.0 | 0.00 | 0.00 | 0.00 | 42 | 1011.0 |
| 20260510174624 | 65 | 360 | 2.0 | 5.0 | 0.00 | 0.00 | 0.00 | 43 | 1011.0 |
| 20260510174519 | 65 | 360 | 2.0 | 5.0 | 0.00 | 0.00 | 0.00 | 42 | 1011.0 |
| 20260510174424 | 65 | 360 | 3.0 | 5.0 | 0.00 | 0.00 | 0.00 | 43 | 1010.9 |
| 20260510174330 | 65 | 360 | 4.0 | 5.0 | 0.00 | 0.00 | 0.00 | 43 | 1010.9 |
| 20260510174227 | 65 | 360 | 3.0 | 5.0 | 0.00 | 0.00 | 0.00 | 43 | 1011.0 |
| 20260510174139 | 65 | 360 | 3.0 | 5.0 | 0.00 | 0.00 | 0.00 | 43 | 1011.0 |
| 20260510174035 | 65 | 1 | 2.0 | 5.0 | 0.00 | 0.00 | 0.00 | 43 | 1011.0 |
| 20260510173940 | 65 | 5 | 2.0 | 5.0 | 0.00 | 0.00 | 0.00 | 43 | 1010.9 |
| 20260510173846 | 65 | 5 | 2.0 | 5.0 | 0.00 | 0.00 | 0.00 | 43 | 1010.9 |
| 20260510173723 | 65 | 5 | 2.0 | 5.0 | 0.00 | 0.00 | 0.00 | 43 | 1010.9 |
| 20260510173619 | 65 | 5 | 1.0 | 5.0 | 0.00 | 0.00 | 0.00 | 43 | 1011.0 |
| 20260510173524 | 64 | 5 | 2.0 | 5.0 | 0.00 | 0.00 | 0.00 | 42 | 1011.0 |
| 20260510173425 | 64 | 5 | 3.0 | 5.0 | 0.00 | 0.00 | 0.00 | 42 | 1010.9 |
| 20260510173331 | 64 | 5 | 3.0 | 5.0 | 0.00 | 0.00 | 0.00 | 42 | 1010.9 |
| 20260510173248 | 64 | 5 | 2.0 | 5.0 | 0.00 | 0.00 | 0.00 | 42 | 1010.9 |
| 20260510173134 | 64 | 5 | 2.0 | 5.0 | 0.00 | 0.00 | 0.00 | 42 | 1011.0 |
| 20260510173028 | 64 | 5 | 2.0 | 5.0 | 0.00 | 0.00 | 0.00 | 43 | 1011.0 |
| 20260510172953 | 64 | 5 | 2.0 | 5.0 | 0.00 | 0.00 | 0.00 | 43 | 1011.1 |
| 20260510172838 | 64 | 5 | 3.0 | 5.0 | 0.00 | 0.00 | 0.00 | 42 | 1011.1 |
| 20260510172735 | 64 | 5 | 2.0 | 5.0 | 0.00 | 0.00 | 0.00 | 43 | 1011.2 |
| 20260510172646 | 64 | 5 | 2.0 | 5.0 | 0.00 | 0.00 | 0.00 | 43 | 1011.2 |
| 20260510172520 | 64 | 5 | 2.0 | 5.0 | 0.00 | 0.00 | 0.00 | 43 | 1011.2 |
| 20260510172445 | 64 | 5 | 3.0 | 5.0 | 0.00 | 0.00 | 0.00 | 43 | 1011.1 |
| 20260510172320 | 64 | 5 | 3.0 | 5.0 | 0.00 | 0.00 | 0.00 | 43 | 1011.1 |
| 20260510172227 | 64 | 5 | 2.0 | 4.0 | 0.00 | 0.00 | 0.00 | 43 | 1011.1 |
| 20260510172123 | 64 | 5 | 1.0 | 4.0 | 0.00 | 0.00 | 0.00 | 43 | 1011.1 |
| 20260510172020 | 63 | 5 | 0.0 | 4.0 | 0.00 | 0.00 | 0.00 | 43 | 1011.1 |
| 20260510171930 | 63 | 5 | 1.0 | 4.0 | 0.00 | 0.00 | 0.00 | 43 | 1011.1 |
| 20260510171827 | 63 | 5 | 2.0 | 4.0 | 0.00 | 0.00 | 0.00 | 42 | 1011.1 |
| 20260510171732 | 63 | 5 | 1.0 | 4.0 | 0.00 | 0.00 | 0.00 | 43 | 1011.1 |
| 20260510171631 | 63 | 5 | 0.0 | 3.0 | 0.00 | 0.00 | 0.00 | 43 | 1011.1 |
| 20260510171533 | 63 | 5 | 0.0 | 3.0 | 0.00 | 0.00 | 0.00 | 44 | 1011.0 |
| 20260510171430 | 63 | 5 | 0.0 | 4.0 | 0.00 | 0.00 | 0.00 | 43 | 1011.1 |
| 20260510171337 | 63 | 5 | 1.0 | 4.0 | 0.00 | 0.00 | 0.00 | 43 | 1011.1 |
| 20260510171219 | 63 | 5 | 1.0 | 4.0 | 0.00 | 0.00 | 0.00 | 42 | 1011.2 |
| 20260510171148 | 62 | 5 | 1.0 | 4.0 | 0.00 | 0.00 | 0.00 | 43 | 1011.2 |
| 20260510171043 | 62 | 5 | 1.0 | 4.0 | 0.00 | 0.00 | 0.00 | 42 | 1011.1 |
| 20260510171010 | 62 | 5 | 1.0 | 4.0 | 0.00 | 0.00 | 0.00 | 42 | 1011.1 |
| 20260510170823 | 62 | 5 | 2.0 | 4.0 | 0.00 | 0.00 | 0.00 | 42 | 1011.0 |
| 20260510170720 | 62 | 5 | 2.0 | 4.0 | 0.00 | 0.00 | 0.00 | 43 | 1011.0 |
| 20260510170628 | 62 | 5 | 2.0 | 4.0 | 0.00 | 0.00 | 0.00 | 43 | 1011.0 |
| 20260510170526 | 62 | 5 | 2.0 | 3.0 | 0.00 | 0.00 | 0.00 | 42 | 1011.1 |
| 20260510170432 | 62 | 5 | 1.0 | 3.0 | 0.00 | 0.00 | 0.00 | 42 | 1011.1 |
| 20260510170330 | 62 | 5 | 1.0 | 3.0 | 0.00 | 0.00 | 0.00 | 42 | 1011.1 |
| 20260510170253 | 62 | 5 | 0.0 | 3.0 | 0.00 | 0.00 | 0.00 | 42 | 1011.0 |
| 20260510170130 | 62 | 5 | 0.0 | 3.0 | 0.00 | 0.00 | 0.00 | 42 | 1010.9 |
| 20260510170054 | 62 | 5 | 1.0 | 4.0 | 0.00 | 0.00 | 0.00 | 42 | 1010.9 |
| 20260510165941 | 62 | 5 | 2.0 | 4.0 | 0.00 | 0.00 | 0.00 | 43 | 1010.9 |
| 20260510165835 | 62 | 5 | 2.0 | 4.0 | 0.00 | 0.00 | 0.00 | 43 | 1010.9 |
| 20260510165724 | 62 | 5 | 2.0 | 4.0 | 0.00 | 0.00 | 0.00 | 44 | 1011.0 |
| 20260510165650 | 61 | 5 | 1.0 | 4.0 | 0.00 | 0.00 | 0.00 | 44 | 1011.0 |
| 20260510165524 | 61 | 5 | 1.0 | 4.0 | 0.00 | 0.00 | 0.00 | 44 | 1011.0 |
| 20260510165430 | 61 | 5 | 2.0 | 4.0 | 0.00 | 0.00 | 0.00 | 44 | 1011.0 |
| 20260510165347 | 61 | 5 | 2.0 | 4.0 | 0.00 | 0.00 | 0.00 | 44 | 1010.9 |
| 20260510165233 | 61 | 5 | 3.0 | 4.0 | 0.00 | 0.00 | 0.00 | 44 | 1011.0 |
| 20260510165200 | 61 | 5 | 2.0 | 4.0 | 0.00 | 0.00 | 0.00 | 45 | 1011.0 |
| 20260510165055 | 60 | 5 | 2.0 | 4.0 | 0.00 | 0.00 | 0.00 | 44 | 1011.0 |
| 20260510164937 | 60 | 5 | 2.0 | 3.0 | 0.00 | 0.00 | 0.00 | 45 | 1011.0 |
| 20260510164843 | 60 | 5 | 2.0 | 3.0 | 0.00 | 0.00 | 0.00 | 45 | 1011.0 |
| 20260510164725 | 60 | 5 | 1.0 | 3.0 | 0.00 | 0.00 | 0.00 | 45 | 1011.0 |
| 20260510164621 | 60 | 5 | 0.0 | 0.0 | 0.00 | 0.00 | 0.00 | 44 | 1010.9 |
| 20260510164525 | 60 | 5 | 0.0 | 0.0 | 0.00 | 0.00 | 0.00 | 45 | 1010.9 |
| 20260510164421 | 60 | 5 | 0.0 | 0.0 | 0.00 | 0.00 | 0.00 | 45 | 1010.9 |
| 20260510164329 | 60 | 5 | 0.0 | 0.0 | 0.00 | 0.00 | 0.00 | 45 | 1010.9 |
| 20260510164223 | 60 | 5 | 0.0 | 0.0 | 0.00 | 0.00 | 0.00 | 45 | 1010.8 |
| 20260510164135 | 60 | 5 | 0.0 | 0.0 | 0.00 | 0.00 | 0.00 | 46 | 1010.8 |
| 20260510164031 | 60 | 5 | 0.0 | 0.0 | 0.00 | 0.00 | 0.00 | 45 | 1010.8 |
| 20260510163958 | 59 | 5 | 0.0 | 0.0 | 0.00 | 0.00 | 0.00 | 45 | 1010.8 |
| 20260510163853 | 59 | 5 | 0.0 | 0.0 | 0.00 | 0.00 | 0.00 | 46 | 1010.8 |
| 20260510163739 | 59 | 5 | 0.0 | 0.0 | 0.00 | 0.00 | 0.00 | 46 | 1010.8 |
| 20260510163707 | 59 | 5 | 0.0 | 0.0 | 0.00 | 0.00 | 0.00 | 46 | 1010.8 |
| 20260510163519 | 59 | 5 | 0.0 | 1.0 | 0.00 | 0.00 | 0.00 | 46 | 1010.8 |
| 20260510163446 | 59 | 5 | 0.0 | 2.0 | 0.00 | 0.00 | 0.00 | 46 | 1010.8 |
| 20260510163327 | 59 | 5 | 0.0 | 2.0 | 0.00 | 0.00 | 0.00 | 46 | 1010.8 |
| 20260510163230 | 59 | 5 | 0.0 | 2.0 | 0.00 | 0.00 | 0.00 | 46 | 1010.8 |
| 20260510163128 | 59 | 5 | 0.0 | 2.0 | 0.00 | 0.00 | 0.00 | 46 | 1010.8 |
| 20260510163033 | 59 | 5 | 0.0 | 3.0 | 0.00 | 0.00 | 0.00 | 46 | 1010.9 |
| 20260510162927 | 58 | 5 | 0.0 | 3.0 | 0.00 | 0.00 | 0.00 | 46 | 1010.9 |
| 20260510162831 | 58 | 5 | 0.0 | 4.0 | 0.00 | 0.00 | 0.00 | 46 | 1010.9 |
| 20260510162728 | 58 | 5 | 0.0 | 4.0 | 0.00 | 0.00 | 0.00 | 47 | 1010.9 |
| 20260510162655 | 58 | 5 | 1.0 | 4.0 | 0.00 | 0.00 | 0.00 | 47 | 1010.9 |
| 20260510162539 | 58 | 5 | 1.0 | 4.0 | 0.00 | 0.00 | 0.00 | 47 | 1010.9 |
| 20260510162441 | 58 | 5 | 1.0 | 4.0 | 0.00 | 0.00 | 0.00 | 47 | 1011.0 |
| 20260510162327 | 58 | 5 | 2.0 | 4.0 | 0.00 | 0.00 | 0.00 | 47 | 1011.0 |
| 20260510162226 | 58 | 5 | 2.0 | 4.0 | 0.00 | 0.00 | 0.00 | 47 | 1011.0 |
| 20260510162122 | 58 | 5 | 3.0 | 4.0 | 0.00 | 0.00 | 0.00 | 47 | 1011.0 |
| 20260510162029 | 58 | 5 | 3.0 | 4.0 | 0.00 | 0.00 | 0.00 | 47 | 1011.0 |
| 20260510161926 | 57 | 5 | 3.0 | 4.0 | 0.00 | 0.00 | 0.00 | 47 | 1011.0 |
| 20260510161837 | 57 | 5 | 3.0 | 4.0 | 0.00 | 0.00 | 0.00 | 48 | 1011.1 |
| 20260510161754 | 57 | 5 | 3.0 | 4.0 | 0.00 | 0.00 | 0.00 | 48 | 1011.1 |
| 20260510161640 | 57 | 5 | 2.0 | 4.0 | 0.00 | 0.00 | 0.00 | 48 | 1011.1 |
| 20260510161536 | 57 | 5 | 1.0 | 5.0 | 0.00 | 0.00 | 0.00 | 49 | 1011.0 |
| 20260510161443 | 57 | 5 | 1.0 | 5.0 | 0.00 | 0.00 | 0.00 | 49 | 1011.0 |
| 20260510161319 | 57 | 5 | 1.0 | 5.0 | 0.00 | 0.00 | 0.00 | 48 | 1011.0 |
| 20260510161248 | 57 | 5 | 1.0 | 5.0 | 0.00 | 0.00 | 0.00 | 48 | 1011.0 |
| 20260510161123 | 57 | 5 | 2.0 | 5.0 | 0.00 | 0.00 | 0.00 | 48 | 1011.2 |
| 20260510161032 | 57 | 5 | 2.0 | 5.0 | 0.00 | 0.00 | 0.00 | 48 | 1011.2 |
| 20260510160929 | 56 | 5 | 3.0 | 5.0 | 0.00 | 0.00 | 0.00 | 49 | 1011.2 |
| 20260510160836 | 56 | 5 | 3.0 | 5.0 | 0.00 | 0.00 | 0.00 | 49 | 1011.2 |
| 20260510160732 | 56 | 5 | 3.0 | 5.0 | 0.00 | 0.00 | 0.00 | 49 | 1011.2 |
| 20260510160640 | 56 | 5 | 3.0 | 4.0 | 0.00 | 0.00 | 0.00 | 49 | 1011.1 |
| 20260510160535 | 56 | 5 | 2.0 | 4.0 | 0.00 | 0.00 | 0.00 | 49 | 1011.1 |
| 20260510160431 | 56 | 5 | 2.0 | 3.0 | 0.00 | 0.00 | 0.00 | 50 | 1011.1 |
| 20260510160320 | 56 | 5 | 2.0 | 3.0 | 0.00 | 0.00 | 0.00 | 49 | 1011.0 |
| 20260510160236 | 56 | 5 | 2.0 | 3.0 | 0.00 | 0.00 | 0.00 | 49 | 1011.0 |
| 20260510160203 | 56 | 5 | 2.0 | 4.0 | 0.00 | 0.00 | 0.00 | 49 | 1011.0 |
| 20260510160107 | 56 | 5 | 1.0 | 5.0 | 0.00 | 0.00 | 0.00 | 49 | 1011.1 |
| 20260510155923 | 56 | 5 | 2.0 | 5.0 | 0.00 | 0.00 | 0.00 | 50 | 1011.1 |
| 20260510155829 | 56 | 5 | 2.0 | 5.0 | 0.00 | 0.00 | 0.00 | 49 | 1011.1 |
| 20260510155725 | 55 | 5 | 2.0 | 5.0 | 0.00 | 0.00 | 0.00 | 50 | 1011.2 |
| 20260510155633 | 55 | 5 | 2.0 | 5.0 | 0.00 | 0.00 | 0.00 | 50 | 1011.2 |
| 20260510155540 | 55 | 5 | 2.0 | 5.0 | 0.00 | 0.00 | 0.00 | 50 | 1011.2 |
| 20260510155435 | 55 | 5 | 2.0 | 5.0 | 0.00 | 0.00 | 0.00 | 50 | 1011.2 |
| 20260510155401 | 55 | 5 | 3.0 | 5.0 | 0.00 | 0.00 | 0.00 | 49 | 1011.2 |
| 20260510155237 | 55 | 5 | 3.0 | 5.0 | 0.00 | 0.00 | 0.00 | 50 | 1011.2 |
| 20260510155144 | 55 | 5 | 3.0 | 5.0 | 0.00 | 0.00 | 0.00 | 51 | 1011.2 |
| 20260510155021 | 55 | 5 | 2.0 | 5.0 | 0.00 | 0.00 | 0.00 | 51 | 1011.2 |
| 20260510154935 | 55 | 358 | 2.0 | 4.0 | 0.00 | 0.00 | 0.00 | 51 | 1011.2 |
| 20260510154824 | 55 | 10 | 3.0 | 4.0 | 0.00 | 0.00 | 0.00 | 51 | 1011.2 |
| 20260510154751 | 55 | 10 | 2.0 | 4.0 | 0.00 | 0.00 | 0.00 | 51 | 1011.2 |
| 20260510154629 | 55 | 10 | 2.0 | 4.0 | 0.00 | 0.00 | 0.00 | 51 | 1011.1 |
| 20260510154532 | 54 | 10 | 2.0 | 4.0 | 0.00 | 0.00 | 0.00 | 51 | 1011.0 |
| 20260510154430 | 54 | 10 | 2.0 | 4.0 | 0.00 | 0.00 | 0.00 | 52 | 1011.0 |
| 20260510154354 | 54 | 10 | 3.0 | 4.0 | 0.00 | 0.00 | 0.00 | 53 | 1011.0 |
| 20260510154230 | 54 | 10 | 2.0 | 4.0 | 0.00 | 0.00 | 0.00 | 52 | 1011.1 |
| 20260510154139 | 54 | 10 | 2.0 | 4.0 | 0.00 | 0.00 | 0.00 | 53 | 1011.1 |
| 20260510154039 | 54 | 10 | 1.0 | 4.0 | 0.00 | 0.00 | 0.00 | 52 | 1011.1 |
| 20260510154006 | 54 | 10 | 1.0 | 4.0 | 0.00 | 0.00 | 0.00 | 52 | 1011.1 |
| 20260510153843 | 54 | 10 | 1.0 | 4.0 | 0.00 | 0.00 | 0.00 | 52 | 1011.2 |
| 20260510153730 | 54 | 10 | 2.0 | 4.0 | 0.00 | 0.00 | 0.00 | 52 | 1011.2 |
| 20260510153624 | 54 | 10 | 2.0 | 4.0 | 0.00 | 0.00 | 0.00 | 53 | 1011.2 |
| 20260510153522 | 53 | 10 | 3.0 | 4.0 | 0.00 | 0.00 | 0.00 | 53 | 1011.2 |
| 20260510153448 | 53 | 10 | 2.0 | 4.0 | 0.00 | 0.00 | 0.00 | 53 | 1011.2 |
| 20260510153338 | 53 | 10 | 1.0 | 4.0 | 0.00 | 0.00 | 0.00 | 53 | 1011.2 |
| 20260510153235 | 53 | 10 | 1.0 | 3.0 | 0.00 | 0.00 | 0.00 | 53 | 1011.2 |
| 20260510153145 | 53 | 10 | 2.0 | 3.0 | 0.00 | 0.00 | 0.00 | 53 | 1011.2 |
| 20260510153039 | 53 | 10 | 2.0 | 3.0 | 0.00 | 0.00 | 0.00 | 52 | 1011.2 |
| 20260510153005 | 53 | 10 | 1.0 | 3.0 | 0.00 | 0.00 | 0.00 | 52 | 1011.1 |
| 20260510152841 | 53 | 10 | 1.0 | 3.0 | 0.00 | 0.00 | 0.00 | 52 | 1011.1 |
| 20260510152746 | 53 | 10 | 1.0 | 3.0 | 0.00 | 0.00 | 0.00 | 52 | 1011.1 |
| 20260510152624 | 53 | 10 | 1.0 | 3.0 | 0.00 | 0.00 | 0.00 | 52 | 1011.1 |
| 20260510152550 | 53 | 10 | 1.0 | 3.0 | 0.00 | 0.00 | 0.00 | 53 | 1011.1 |
| 20260510152426 | 53 | 10 | 1.0 | 3.0 | 0.00 | 0.00 | 0.00 | 53 | 1011.0 |
| 20260510152333 | 53 | 10 | 1.0 | 3.0 | 0.00 | 0.00 | 0.00 | 53 | 1011.0 |
| 20260510152250 | 53 | 10 | 1.0 | 3.0 | 0.00 | 0.00 | 0.00 | 53 | 1011.0 |
| 20260510152137 | 53 | 10 | 0.0 | 4.0 | 0.00 | 0.00 | 0.00 | 53 | 1011.0 |
| 20260510152032 | 53 | 10 | 0.0 | 4.0 | 0.00 | 0.00 | 0.00 | 53 | 1011.0 |
| 20260510151957 | 53 | 10 | 1.0 | 4.0 | 0.00 | 0.00 | 0.00 | 53 | 1011.0 |
| 20260510151837 | 53 | 10 | 1.0 | 4.0 | 0.00 | 0.00 | 0.00 | 53 | 1011.1 |
| 20260510151745 | 53 | 10 | 0.0 | 4.0 | 0.00 | 0.00 | 0.00 | 53 | 1011.1 |
| 20260510151619 | 53 | 10 | 1.0 | 4.0 | 0.00 | 0.00 | 0.00 | 53 | 1011.1 |
| 20260510151525 | 53 | 10 | 2.0 | 4.0 | 0.00 | 0.00 | 0.00 | 53 | 1011.1 |
| 20260510151421 | 53 | 10 | 3.0 | 4.0 | 0.00 | 0.00 | 0.00 | 53 | 1011.2 |
| 20260510151346 | 52 | 10 | 3.0 | 4.0 | 0.00 | 0.00 | 0.00 | 53 | 1011.2 |
| 20260510151244 | 52 | 10 | 3.0 | 3.0 | 0.00 | 0.00 | 0.00 | 54 | 1011.2 |
| 20260510151135 | 52 | 10 | 3.0 | 3.0 | 0.00 | 0.00 | 0.00 | 54 | 1011.2 |
| 20260510151030 | 52 | 10 | 2.0 | 3.0 | 0.00 | 0.00 | 0.00 | 54 | 1011.2 |
| 20260510150928 | 52 | 10 | 2.0 | 3.0 | 0.00 | 0.00 | 0.00 | 54 | 1011.2 |
| 20260510150834 | 52 | 10 | 1.0 | 3.0 | 0.00 | 0.00 | 0.00 | 54 | 1011.2 |
| 20260510150730 | 52 | 10 | 0.0 | 3.0 | 0.00 | 0.00 | 0.00 | 54 | 1011.1 |
| 20260510150635 | 52 | 10 | 0.0 | 1.0 | 0.00 | 0.00 | 0.00 | 54 | 1011.0 |
| 20260510150530 | 52 | 10 | 0.0 | 2.0 | 0.00 | 0.00 | 0.00 | 55 | 1011.0 |
| 20260510150459 | 52 | 10 | 0.0 | 3.0 | 0.00 | 0.00 | 0.00 | 55 | 1011.0 |
| 20260510150334 | 52 | 10 | 0.0 | 3.0 | 0.00 | 0.00 | 0.00 | 55 | 1011.0 |
| 20260510150237 | 52 | 10 | 0.0 | 3.0 | 0.00 | 0.00 | 0.00 | 55 | 1011.0 |
| 20260510150136 | 52 | 10 | 0.0 | 3.0 | 0.00 | 0.00 | 0.00 | 55 | 1011.1 |
| 20260510150030 | 51 | 10 | 0.0 | 3.0 | 0.00 | 0.00 | 0.00 | 55 | 1011.2 |
| 20260510145957 | 51 | 10 | 0.0 | 3.0 | 0.00 | 0.00 | 0.00 | 55 | 1011.2 |
| 20260510145821 | 51 | 10 | 0.0 | 3.0 | 0.00 | 0.00 | 0.00 | 55 | 1011.2 |
| 20260510145722 | 51 | 10 | 1.0 | 3.0 | 0.00 | 0.00 | 0.00 | 55 | 1011.2 |
| 20260510145629 | 51 | 10 | 2.0 | 3.0 | 0.00 | 0.00 | 0.00 | 55 | 1011.2 |
| 20260510145523 | 51 | 10 | 2.0 | 3.0 | 0.00 | 0.00 | 0.00 | 55 | 1011.2 |
| 20260510145420 | 51 | 10 | 2.0 | 3.0 | 0.00 | 0.00 | 0.00 | 55 | 1011.1 |
| 20260510145325 | 51 | 10 | 1.0 | 3.0 | 0.00 | 0.00 | 0.00 | 56 | 1011.1 |
| 20260510145222 | 51 | 10 | 0.0 | 3.0 | 0.00 | 0.00 | 0.00 | 56 | 1011.1 |
| 20260510145130 | 50 | 10 | 1.0 | 4.0 | 0.00 | 0.00 | 0.00 | 56 | 1011.1 |
| 20260510145049 | 50 | 10 | 1.0 | 4.0 | 0.00 | 0.00 | 0.00 | 56 | 1011.1 |
| 20260510144935 | 50 | 10 | 0.0 | 5.0 | 0.00 | 0.00 | 0.00 | 57 | 1011.0 |
| 20260510144831 | 50 | 10 | 1.0 | 5.0 | 0.00 | 0.00 | 0.00 | 56 | 1011.1 |
| 20260510144737 | 50 | 10 | 1.0 | 5.0 | 0.00 | 0.00 | 0.00 | 57 | 1011.1 |
| 20260510144655 | 50 | 10 | 1.0 | 5.0 | 0.00 | 0.00 | 0.00 | 57 | 1011.0 |
| 20260510144539 | 50 | 10 | 1.0 | 5.0 | 0.00 | 0.00 | 0.00 | 58 | 1011.1 |
| 20260510144443 | 50 | 10 | 1.0 | 5.0 | 0.00 | 0.00 | 0.00 | 57 | 1011.1 |
| 20260510144319 | 50 | 10 | 3.0 | 5.0 | 0.00 | 0.00 | 0.00 | 57 | 1011.0 |
| 20260510144222 | 49 | 10 | 3.0 | 5.0 | 0.00 | 0.00 | 0.00 | 58 | 1011.0 |
| 20260510144125 | 49 | 10 | 2.0 | 5.0 | 0.00 | 0.00 | 0.00 | 58 | 1011.0 |
| 20260510144031 | 49 | 10 | 1.0 | 3.0 | 0.00 | 0.00 | 0.00 | 58 | 1011.0 |
| 20260510143926 | 49 | 10 | 2.0 | 3.0 | 0.00 | 0.00 | 0.00 | 58 | 1011.0 |
| 20260510143833 | 49 | 10 | 2.0 | 3.0 | 0.00 | 0.00 | 0.00 | 58 | 1011.0 |
| 20260510143730 | 49 | 10 | 1.0 | 3.0 | 0.00 | 0.00 | 0.00 | 58 | 1011.1 |
| 20260510143638 | 49 | 10 | 1.0 | 3.0 | 0.00 | 0.00 | 0.00 | 58 | 1011.0 |
| 20260510143537 | 49 | 10 | 0.0 | 3.0 | 0.00 | 0.00 | 0.00 | 58 | 1011.0 |
| 20260510143504 | 49 | 10 | 1.0 | 3.0 | 0.00 | 0.00 | 0.00 | 58 | 1011.0 |
| 20260510143341 | 49 | 10 | 1.0 | 3.0 | 0.00 | 0.00 | 0.00 | 58 | 1011.0 |
| 20260510143245 | 49 | 10 | 1.0 | 3.0 | 0.00 | 0.00 | 0.00 | 58 | 1011.0 |
| 20260510143152 | 49 | 10 | 1.0 | 3.0 | 0.00 | 0.00 | 0.00 | 58 | 1011.0 |
| 20260510143027 | 48 | 10 | 1.0 | 3.0 | 0.00 | 0.00 | 0.00 | 58 | 1011.0 |
| 20260510142934 | 48 | 10 | 2.0 | 3.0 | 0.00 | 0.00 | 0.00 | 58 | 1011.0 |
| 20260510142832 | 48 | 10 | 2.0 | 3.0 | 0.00 | 0.00 | 0.00 | 58 | 1011.0 |
| 20260510142733 | 48 | 10 | 1.0 | 3.0 | 0.00 | 0.00 | 0.00 | 58 | 1011.0 |
| 20260510142639 | 48 | 10 | 1.0 | 2.0 | 0.00 | 0.00 | 0.00 | 58 | 1011.0 |
| 20260510142535 | 48 | 10 | 0.0 | 2.0 | 0.00 | 0.00 | 0.00 | 59 | 1011.1 |
| 20260510142442 | 48 | 10 | 0.0 | 2.0 | 0.00 | 0.00 | 0.00 | 59 | 1011.1 |
| 20260510142337 | 48 | 10 | 0.0 | 2.0 | 0.00 | 0.00 | 0.00 | 59 | 1011.1 |
| 20260510142246 | 48 | 10 | 0.0 | 2.0 | 0.00 | 0.00 | 0.00 | 59 | 1011.1 |
| 20260510142123 | 48 | 10 | 0.0 | 2.0 | 0.00 | 0.00 | 0.00 | 60 | 1011.2 |
| 20260510142019 | 48 | 10 | 0.0 | 2.0 | 0.00 | 0.00 | 0.00 | 60 | 1011.1 |
| 20260510141945 | 48 | 10 | 0.0 | 1.0 | 0.00 | 0.00 | 0.00 | 60 | 1011.1 |
| 20260510141823 | 48 | 10 | 0.0 | 1.0 | 0.00 | 0.00 | 0.00 | 60 | 1011.2 |
| 20260510141721 | 48 | 10 | 0.0 | 1.0 | 0.00 | 0.00 | 0.00 | 60 | 1011.2 |
| 20260510141648 | 48 | 10 | 0.0 | 1.0 | 0.00 | 0.00 | 0.00 | 60 | 1011.2 |
| 20260510141523 | 48 | 10 | 0.0 | 0.0 | 0.00 | 0.00 | 0.00 | 60 | 1011.2 |
| 20260510141434 | 48 | 10 | 0.0 | 0.0 | 0.00 | 0.00 | 0.00 | 59 | 1011.2 |
| 20260510141332 | 48 | 10 | 0.0 | 0.0 | 0.00 | 0.00 | 0.00 | 59 | 1011.2 |
| 20260510141238 | 48 | 10 | 0.0 | 0.0 | 0.00 | 0.00 | 0.00 | 59 | 1011.1 |
| 20260510141137 | 48 | 10 | 0.0 | 0.0 | 0.00 | 0.00 | 0.00 | 60 | 1011.1 |
| 20260510141030 | 48 | 10 | 0.0 | 0.0 | 0.00 | 0.00 | 0.00 | 60 | 1011.1 |
| 20260510140935 | 48 | 10 | 0.0 | 1.0 | 0.00 | 0.00 | 0.00 | 60 | 1011.1 |
| 20260510140841 | 48 | 10 | 0.0 | 1.0 | 0.00 | 0.00 | 0.00 | 60 | 1011.1 |
| 20260510140724 | 47 | 10 | 0.0 | 1.0 | 0.00 | 0.00 | 0.00 | 60 | 1011.1 |
| 20260510140619 | 47 | 10 | 0.0 | 1.0 | 0.00 | 0.00 | 0.00 | 60 | 1011.0 |
| 20260510140526 | 47 | 10 | 0.0 | 1.0 | 0.00 | 0.00 | 0.00 | 60 | 1011.0 |
| 20260510140444 | 47 | 10 | 0.0 | 2.0 | 0.00 | 0.00 | 0.00 | 60 | 1011.0 |
| 20260510140330 | 47 | 10 | 0.0 | 2.0 | 0.00 | 0.00 | 0.00 | 60 | 1011.0 |
| 20260510140248 | 47 | 10 | 0.0 | 2.0 | 0.00 | 0.00 | 0.00 | 61 | 1011.0 |
| 20260510140133 | 47 | 10 | 0.0 | 2.0 | 0.00 | 0.00 | 0.00 | 61 | 1011.0 |
| 20260510140033 | 47 | 10 | 0.0 | 2.0 | 0.00 | 0.00 | 0.00 | 60 | 1010.9 |
| 20260510135940 | 47 | 10 | 0.0 | 2.0 | 0.00 | 0.00 | 0.00 | 60 | 1011.0 |
| 20260510135818 | 47 | 10 | 0.0 | 3.0 | 0.00 | 0.00 | 0.00 | 60 | 1010.9 |
| 20260510135747 | 47 | 10 | 0.0 | 3.0 | 0.00 | 0.00 | 0.00 | 60 | 1010.9 |
| 20260510135620 | 47 | 10 | 1.0 | 3.0 | 0.00 | 0.00 | 0.00 | 60 | 1010.9 |
| 20260510135518 | 47 | 10 | 0.0 | 3.0 | 0.00 | 0.00 | 0.00 | 60 | 1010.9 |
| 20260510135445 | 47 | 10 | 0.0 | 3.0 | 0.00 | 0.00 | 0.00 | 60 | 1010.8 |
| 20260510135334 | 47 | 10 | 0.0 | 4.0 | 0.00 | 0.00 | 0.00 | 60 | 1010.8 |
| 20260510135232 | 47 | 10 | 1.0 | 4.0 | 0.00 | 0.00 | 0.00 | 60 | 1010.8 |
| 20260510135131 | 47 | 10 | 1.0 | 4.0 | 0.00 | 0.00 | 0.00 | 60 | 1010.8 |
| 20260510135036 | 46 | 10 | 2.0 | 4.0 | 0.00 | 0.00 | 0.00 | 61 | 1010.8 |
| 20260510134932 | 46 | 10 | 1.0 | 4.0 | 0.00 | 0.00 | 0.00 | 61 | 1010.8 |
| 20260510134858 | 46 | 10 | 1.0 | 4.0 | 0.00 | 0.00 | 0.00 | 61 | 1010.8 |
| 20260510134736 | 46 | 10 | 1.0 | 4.0 | 0.00 | 0.00 | 0.00 | 61 | 1010.9 |
| 20260510134645 | 46 | 10 | 2.0 | 4.0 | 0.00 | 0.00 | 0.00 | 61 | 1010.8 |
| 20260510134550 | 46 | 10 | 2.0 | 4.0 | 0.00 | 0.00 | 0.00 | 62 | 1010.8 |
| 20260510134426 | 46 | 10 | 1.0 | 2.0 | 0.00 | 0.00 | 0.00 | 62 | 1010.8 |
| 20260510134321 | 46 | 10 | 1.0 | 2.0 | 0.00 | 0.00 | 0.00 | 61 | 1010.9 |
| 20260510134248 | 46 | 10 | 1.0 | 2.0 | 0.00 | 0.00 | 0.00 | 61 | 1010.9 |
| 20260510134134 | 46 | 10 | 0.0 | 2.0 | 0.00 | 0.00 | 0.00 | 61 | 1010.9 |
| 20260510134030 | 46 | 10 | 1.0 | 2.0 | 0.00 | 0.00 | 0.00 | 60 | 1010.9 |
| 20260510133925 | 46 | 10 | 0.0 | 2.0 | 0.00 | 0.00 | 0.00 | 60 | 1010.9 |
| 20260510133833 | 46 | 10 | 0.0 | 2.0 | 0.00 | 0.00 | 0.00 | 60 | 1010.9 |
| 20260510133740 | 46 | 10 | 0.0 | 2.0 | 0.00 | 0.00 | 0.00 | 60 | 1010.9 |
| 20260510133648 | 46 | 10 | 0.0 | 2.0 | 0.00 | 0.00 | 0.00 | 60 | 1010.8 |
| 20260510133541 | 46 | 10 | 0.0 | 1.0 | 0.00 | 0.00 | 0.00 | 60 | 1010.8 |
| 20260510133446 | 46 | 10 | 0.0 | 1.0 | 0.00 | 0.00 | 0.00 | 60 | 1010.8 |
| 20260510133322 | 46 | 10 | 0.0 | 1.0 | 0.00 | 0.00 | 0.00 | 60 | 1010.7 |
| 20260510133249 | 46 | 10 | 0.0 | 1.0 | 0.00 | 0.00 | 0.00 | 60 | 1010.7 |
| 20260510133124 | 46 | 10 | 0.0 | 1.0 | 0.00 | 0.00 | 0.00 | 60 | 1010.7 |
| 20260510133054 | 46 | 10 | 0.0 | 1.0 | 0.00 | 0.00 | 0.00 | 60 | 1010.7 |
| 20260510132929 | 46 | 10 | 0.0 | 1.0 | 0.00 | 0.00 | 0.00 | 60 | 1010.8 |
| 20260510132835 | 46 | 10 | 0.0 | 1.0 | 0.00 | 0.00 | 0.00 | 60 | 1010.7 |
| 20260510132741 | 46 | 10 | 1.0 | 1.0 | 0.00 | 0.00 | 0.00 | 60 | 1010.8 |
| 20260510132700 | 46 | 10 | 0.0 | 1.0 | 0.00 | 0.00 | 0.00 | 60 | 1010.7 |
| 20260510132522 | 46 | 10 | 0.0 | 1.0 | 0.00 | 0.00 | 0.00 | 60 | 1010.7 |
| 20260510132448 | 46 | 10 | 0.0 | 1.0 | 0.00 | 0.00 | 0.00 | 60 | 1010.7 |
| 20260510132325 | 46 | 10 | 0.0 | 1.0 | 0.00 | 0.00 | 0.00 | 60 | 1010.7 |
| 20260510132223 | 46 | 10 | 0.0 | 1.0 | 0.00 | 0.00 | 0.00 | 59 | 1010.7 |
| 20260510132135 | 46 | 10 | 0.0 | 1.0 | 0.00 | 0.00 | 0.00 | 59 | 1010.7 |
| 20260510132058 | 46 | 10 | 0.0 | 1.0 | 0.00 | 0.00 | 0.00 | 59 | 1010.7 |
| 20260510131954 | 46 | 10 | 0.0 | 1.0 | 0.00 | 0.00 | 0.00 | 59 | 1010.7 |
| 20260510131840 | 46 | 10 | 0.0 | 1.0 | 0.00 | 0.00 | 0.00 | 59 | 1010.6 |
| 20260510131738 | 46 | 10 | 0.0 | 1.0 | 0.00 | 0.00 | 0.00 | 59 | 1010.7 |
| 20260510131646 | 46 | 10 | 0.0 | 1.0 | 0.00 | 0.00 | 0.00 | 59 | 1010.7 |
| 20260510131519 | 46 | 10 | 0.0 | 1.0 | 0.00 | 0.00 | 0.00 | 59 | 1010.6 |
| 20260510131430 | 46 | 10 | 0.0 | 2.0 | 0.00 | 0.00 | 0.00 | 59 | 1010.6 |
| 20260510131327 | 46 | 10 | 0.0 | 2.0 | 0.00 | 0.00 | 0.00 | 59 | 1010.6 |
| 20260510131225 | 46 | 10 | 0.0 | 2.0 | 0.00 | 0.00 | 0.00 | 59 | 1010.6 |
| 20260510131153 | 46 | 10 | 0.0 | 2.0 | 0.00 | 0.00 | 0.00 | 59 | 1010.6 |
| 20260510131037 | 46 | 10 | 0.0 | 2.0 | 0.00 | 0.00 | 0.00 | 59 | 1010.6 |
| 20260510130954 | 46 | 10 | 0.0 | 2.0 | 0.00 | 0.00 | 0.00 | 59 | 1010.6 |
| 20260510130839 | 46 | 10 | 0.0 | 2.0 | 0.00 | 0.00 | 0.00 | 59 | 1010.6 |
| 20260510130719 | 46 | 10 | 0.0 | 2.0 | 0.00 | 0.00 | 0.00 | 59 | 1010.6 |
| 20260510130648 | 46 | 10 | 1.0 | 2.0 | 0.00 | 0.00 | 0.00 | 59 | 1010.6 |
| 20260510130523 | 46 | 10 | 1.0 | 2.0 | 0.00 | 0.00 | 0.00 | 59 | 1010.6 |
| 20260510130421 | 46 | 10 | 1.0 | 3.0 | 0.00 | 0.00 | 0.00 | 59 | 1010.6 |
| 20260510130347 | 46 | 10 | 1.0 | 5.0 | 0.00 | 0.00 | 0.00 | 59 | 1010.6 |
| 20260510130225 | 46 | 10 | 1.0 | 5.0 | 0.00 | 0.00 | 0.00 | 59 | 1010.6 |
| 20260510130122 | 46 | 10 | 1.0 | 5.0 | 0.00 | 0.00 | 0.00 | 59 | 1010.7 |
| 20260510130030 | 46 | 10 | 0.0 | 5.0 | 0.00 | 0.00 | 0.00 | 59 | 1010.7 |
| 20260510125937 | 46 | 10 | 0.0 | 5.0 | 0.00 | 0.00 | 0.00 | 59 | 1010.7 |
| 20260510125850 | 46 | 10 | 1.0 | 5.0 | 0.00 | 0.00 | 0.00 | 59 | 1010.7 |
| 20260510125735 | 46 | 10 | 1.0 | 5.0 | 0.00 | 0.00 | 0.00 | 59 | 1010.7 |
| 20260510125633 | 46 | 10 | 3.0 | 5.0 | 0.00 | 0.00 | 0.00 | 59 | 1010.6 |
| 20260510125539 | 46 | 10 | 3.0 | 5.0 | 0.00 | 0.00 | 0.00 | 59 | 1010.7 |
| 20260510125455 | 46 | 10 | 4.0 | 5.0 | 0.00 | 0.00 | 0.00 | 59 | 1010.7 |
| 20260510125341 | 46 | 5 | 4.0 | 5.0 | 0.00 | 0.00 | 0.00 | 59 | 1010.7 |
| 20260510125224 | 46 | 5 | 4.0 | 5.0 | 0.00 | 0.00 | 0.00 | 59 | 1010.7 |
| 20260510125120 | 46 | 5 | 4.0 | 5.0 | 0.00 | 0.00 | 0.00 | 59 | 1010.7 |
| 20260510125026 | 46 | 5 | 4.0 | 5.0 | 0.00 | 0.00 | 0.00 | 59 | 1010.7 |
| 20260510124924 | 46 | 5 | 4.0 | 5.0 | 0.00 | 0.00 | 0.00 | 58 | 1010.7 |
| 20260510124821 | 46 | 5 | 4.0 | 5.0 | 0.00 | 0.00 | 0.00 | 58 | 1010.7 |
| 20260510124728 | 46 | 5 | 4.0 | 5.0 | 0.00 | 0.00 | 0.00 | 58 | 1010.7 |
| 20260510124630 | 46 | 5 | 3.0 | 5.0 | 0.00 | 0.00 | 0.00 | 58 | 1010.7 |
| 20260510124555 | 46 | 5 | 3.0 | 5.0 | 0.00 | 0.00 | 0.00 | 58 | 1010.7 |
| 20260510124438 | 46 | 1 | 3.0 | 4.0 | 0.00 | 0.00 | 0.00 | 58 | 1010.7 |
| 20260510124343 | 46 | 1 | 3.0 | 4.0 | 0.00 | 0.00 | 0.00 | 58 | 1010.7 |
| 20260510124240 | 46 | 360 | 3.0 | 4.0 | 0.00 | 0.00 | 0.00 | 58 | 1010.7 |
| 20260510124208 | 46 | 360 | 3.0 | 4.0 | 0.00 | 0.00 | 0.00 | 58 | 1010.7 |
| 20260510124024 | 46 | 360 | 2.0 | 4.0 | 0.00 | 0.00 | 0.00 | 57 | 1010.7 |
| 20260510123920 | 46 | 360 | 1.0 | 4.0 | 0.00 | 0.00 | 0.00 | 57 | 1010.7 |
| 20260510123849 | 46 | 360 | 2.0 | 4.0 | 0.00 | 0.00 | 0.00 | 57 | 1010.7 |
| 20260510123725 | 46 | 360 | 2.0 | 4.0 | 0.00 | 0.00 | 0.00 | 57 | 1010.6 |
| 20260510123632 | 46 | 360 | 2.0 | 4.0 | 0.00 | 0.00 | 0.00 | 57 | 1010.7 |
| 20260510123528 | 47 | 360 | 3.0 | 4.0 | 0.00 | 0.00 | 0.00 | 57 | 1010.6 |
| 20260510123435 | 47 | 360 | 3.0 | 4.0 | 0.00 | 0.00 | 0.00 | 57 | 1010.6 |
| 20260510123331 | 47 | 358 | 3.0 | 4.0 | 0.00 | 0.00 | 0.00 | 57 | 1010.6 |
| 20260510123231 | 47 | 358 | 3.0 | 3.0 | 0.00 | 0.00 | 0.00 | 57 | 1010.5 |
| 20260510123119 | 47 | 358 | 2.0 | 3.0 | 0.00 | 0.00 | 0.00 | 56 | 1010.5 |
| 20260510123037 | 47 | 358 | 2.0 | 3.0 | 0.00 | 0.00 | 0.00 | 56 | 1010.5 |
| 20260510122944 | 47 | 358 | 2.0 | 3.0 | 0.00 | 0.00 | 0.00 | 56 | 1010.5 |
| 20260510122840 | 47 | 358 | 2.0 | 3.0 | 0.00 | 0.00 | 0.00 | 56 | 1010.5 |
| 20260510122726 | 47 | 358 | 2.0 | 3.0 | 0.00 | 0.00 | 0.00 | 56 | 1010.5 |
| 20260510122637 | 47 | 358 | 1.0 | 2.0 | 0.00 | 0.00 | 0.00 | 56 | 1010.5 |
| 20260510122542 | 47 | 358 | 1.0 | 2.0 | 0.00 | 0.00 | 0.00 | 56 | 1010.5 |
| 20260510122423 | 47 | 358 | 0.0 | 0.0 | 0.00 | 0.00 | 0.00 | 56 | 1010.5 |
| 20260510122346 | 47 | 358 | 0.0 | 1.0 | 0.00 | 0.00 | 0.00 | 56 | 1010.5 |
| 20260510122244 | 47 | 358 | 0.0 | 2.0 | 0.00 | 0.00 | 0.00 | 56 | 1010.5 |
| 20260510122119 | 47 | 358 | 0.0 | 2.0 | 0.00 | 0.00 | 0.00 | 56 | 1010.5 |
| 20260510122025 | 47 | 358 | 0.0 | 3.0 | 0.00 | 0.00 | 0.00 | 56 | 1010.5 |
| 20260510121931 | 47 | 358 | 0.0 | 3.0 | 0.00 | 0.00 | 0.00 | 56 | 1010.5 |
| 20260510121829 | 47 | 358 | 0.0 | 3.0 | 0.00 | 0.00 | 0.00 | 56 | 1010.5 |
| 20260510121730 | 47 | 358 | 0.0 | 3.0 | 0.00 | 0.00 | 0.00 | 56 | 1010.5 |
| 20260510121639 | 47 | 358 | 0.0 | 3.0 | 0.00 | 0.00 | 0.00 | 56 | 1010.4 |
| 20260510121603 | 47 | 358 | 1.0 | 3.0 | 0.00 | 0.00 | 0.00 | 56 | 1010.4 |
| 20260510121439 | 47 | 358 | 1.0 | 3.0 | 0.00 | 0.00 | 0.00 | 56 | 1010.4 |
| 20260510121344 | 47 | 358 | 2.0 | 3.0 | 0.00 | 0.00 | 0.00 | 56 | 1010.4 |
| 20260510121221 | 47 | 358 | 2.0 | 3.0 | 0.00 | 0.00 | 0.00 | 56 | 1010.4 |
| 20260510121149 | 47 | 358 | 2.0 | 3.0 | 0.00 | 0.00 | 0.00 | 56 | 1010.4 |
| 20260510121028 | 48 | 358 | 2.0 | 3.0 | 0.00 | 0.00 | 0.00 | 55 | 1010.4 |
| 20260510120925 | 48 | 358 | 1.0 | 3.0 | 0.00 | 0.00 | 0.00 | 55 | 1010.4 |
| 20260510120832 | 48 | 358 | 1.0 | 2.0 | 0.00 | 0.00 | 0.00 | 55 | 1010.4 |
| 20260510120730 | 48 | 358 | 1.0 | 1.0 | 0.00 | 0.00 | 0.00 | 55 | 1010.4 |
| 20260510120626 | 48 | 358 | 0.0 | 1.0 | 0.00 | 0.00 | 0.00 | 55 | 1010.4 |
| 20260510120531 | 48 | 358 | 0.0 | 1.0 | 0.00 | 0.00 | 0.00 | 55 | 1010.4 |
| 20260510120433 | 48 | 358 | 0.0 | 2.0 | 0.00 | 0.00 | 0.00 | 55 | 1010.4 |
| 20260510120400 | 48 | 358 | 0.0 | 2.0 | 0.00 | 0.00 | 0.00 | 55 | 1010.4 |
| 20260510120247 | 48 | 358 | 0.0 | 2.0 | 0.00 | 0.00 | 0.00 | 55 | 1010.5 |
| 20260510120123 | 48 | 358 | 0.0 | 2.0 | 0.00 | 0.00 | 0.00 | 55 | 1010.5 |
| 20260510120020 | 48 | 358 | 0.0 | 2.0 | 0.00 | 0.00 | 0.00 | 55 | 1010.5 |
| 20260510115927 | 48 | 358 | 0.0 | 2.0 | 0.00 | 0.00 | 0.00 | 55 | 1010.5 |
| 20260510115823 | 48 | 358 | 0.0 | 2.0 | 0.00 | 0.00 | 0.00 | 55 | 1010.5 |
| 20260510115749 | 48 | 358 | 0.0 | 2.0 | 0.00 | 0.00 | 0.00 | 55 | 1010.5 |
| 20260510115639 | 48 | 358 | 1.0 | 2.0 | 0.00 | 0.00 | 0.00 | 55 | 1010.5 |
| 20260510115535 | 48 | 358 | 1.0 | 2.0 | 0.00 | 0.00 | 0.00 | 55 | 1010.5 |
| 20260510115432 | 48 | 358 | 1.0 | 2.0 | 0.00 | 0.00 | 0.00 | 55 | 1010.5 |
| 20260510115318 | 48 | 358 | 1.0 | 2.0 | 0.00 | 0.00 | 0.00 | 55 | 1010.5 |
| 20260510115233 | 48 | 358 | 1.0 | 2.0 | 0.00 | 0.00 | 0.00 | 55 | 1010.5 |
| 20260510115140 | 48 | 358 | 1.0 | 3.0 | 0.00 | 0.00 | 0.00 | 55 | 1010.5 |
| 20260510115020 | 48 | 358 | 1.0 | 3.0 | 0.00 | 0.00 | 0.00 | 55 | 1010.5 |
| 20260510114946 | 48 | 358 | 0.0 | 3.0 | 0.00 | 0.00 | 0.00 | 55 | 1010.5 |
| 20260510114823 | 48 | 358 | 1.0 | 3.0 | 0.00 | 0.00 | 0.00 | 55 | 1010.6 |
| 20260510114749 | 48 | 358 | 1.0 | 3.0 | 0.00 | 0.00 | 0.00 | 55 | 1010.6 |
| 20260510114624 | 48 | 358 | 1.0 | 3.0 | 0.00 | 0.00 | 0.00 | 55 | 1010.5 |
| 20260510114551 | 48 | 358 | 1.0 | 3.0 | 0.00 | 0.00 | 0.00 | 56 | 1010.5 |
| 20260510114427 | 49 | 358 | 1.0 | 3.0 | 0.00 | 0.00 | 0.00 | 55 | 1010.5 |
| 20260510114334 | 49 | 358 | 1.0 | 2.0 | 0.00 | 0.00 | 0.00 | 55 | 1010.4 |
| 20260510114236 | 49 | 358 | 1.0 | 2.0 | 0.00 | 0.00 | 0.00 | 55 | 1010.5 |
| 20260510114145 | 49 | 358 | 1.0 | 2.0 | 0.00 | 0.00 | 0.00 | 55 | 1010.5 |
| 20260510114021 | 49 | 358 | 1.0 | 2.0 | 0.00 | 0.00 | 0.00 | 55 | 1010.5 |
| 20260510113919 | 49 | 358 | 1.0 | 2.0 | 0.00 | 0.00 | 0.00 | 55 | 1010.5 |
| 20260510113825 | 49 | 358 | 0.0 | 2.0 | 0.00 | 0.00 | 0.00 | 55 | 1010.5 |
| 20260510113724 | 49 | 358 | 0.0 | 3.0 | 0.00 | 0.00 | 0.00 | 55 | 1010.5 |
| 20260510113623 | 49 | 358 | 0.0 | 3.0 | 0.00 | 0.00 | 0.00 | 55 | 1010.5 |
| 20260510113529 | 49 | 358 | 0.0 | 3.0 | 0.00 | 0.00 | 0.00 | 55 | 1010.5 |
| 20260510113434 | 49 | 358 | 0.0 | 3.0 | 0.00 | 0.00 | 0.00 | 55 | 1010.5 |
| 20260510113331 | 49 | 358 | 0.0 | 3.0 | 0.00 | 0.00 | 0.00 | 55 | 1010.5 |
| 20260510113228 | 49 | 358 | 0.0 | 4.0 | 0.00 | 0.00 | 0.00 | 55 | 1010.5 |
| 20260510113132 | 49 | 358 | 1.0 | 4.0 | 0.00 | 0.00 | 0.00 | 55 | 1010.5 |
| 20260510113037 | 49 | 358 | 2.0 | 4.0 | 0.00 | 0.00 | 0.00 | 55 | 1010.5 |
| 20260510112933 | 49 | 358 | 2.0 | 4.0 | 0.00 | 0.00 | 0.00 | 55 | 1010.5 |
| 20260510112834 | 49 | 358 | 3.0 | 4.0 | 0.00 | 0.00 | 0.00 | 55 | 1010.5 |
| 20260510112743 | 49 | 358 | 3.0 | 4.0 | 0.00 | 0.00 | 0.00 | 55 | 1010.5 |
| 20260510112618 | 49 | 358 | 3.0 | 4.0 | 0.00 | 0.00 | 0.00 | 56 | 1010.5 |
| 20260510112524 | 49 | 358 | 3.0 | 4.0 | 0.00 | 0.00 | 0.00 | 56 | 1010.5 |
| 20260510112421 | 49 | 358 | 3.0 | 5.0 | 0.00 | 0.00 | 0.00 | 56 | 1010.5 |
| 20260510112328 | 49 | 358 | 3.0 | 5.0 | 0.00 | 0.00 | 0.00 | 56 | 1010.5 |
| 20260510112220 | 49 | 358 | 3.0 | 5.0 | 0.00 | 0.00 | 0.00 | 56 | 1010.5 |
| 20260510112129 | 49 | 358 | 2.0 | 5.0 | 0.00 | 0.00 | 0.00 | 56 | 1010.5 |
| 20260510112033 | 49 | 358 | 3.0 | 5.0 | 0.00 | 0.00 | 0.00 | 56 | 1010.5 |
| 20260510111929 | 49 | 358 | 3.0 | 5.0 | 0.00 | 0.00 | 0.00 | 56 | 1010.5 |
| 20260510111855 | 49 | 358 | 3.0 | 5.0 | 0.00 | 0.00 | 0.00 | 56 | 1010.4 |
| 20260510111732 | 49 | 358 | 3.0 | 5.0 | 0.00 | 0.00 | 0.00 | 56 | 1010.5 |
| 20260510111641 | 49 | 358 | 3.0 | 5.0 | 0.00 | 0.00 | 0.00 | 56 | 1010.5 |
| 20260510111555 | 49 | 358 | 3.0 | 5.0 | 0.00 | 0.00 | 0.00 | 56 | 1010.5 |
| 20260510111418 | 49 | 358 | 2.0 | 5.0 | 0.00 | 0.00 | 0.00 | 55 | 1010.6 |
| 20260510111319 | 49 | 358 | 2.0 | 5.0 | 0.00 | 0.00 | 0.00 | 55 | 1010.6 |
| 20260510111225 | 49 | 358 | 1.0 | 5.0 | 0.00 | 0.00 | 0.00 | 55 | 1010.6 |
| 20260510111120 | 49 | 358 | 2.0 | 5.0 | 0.00 | 0.00 | 0.00 | 55 | 1010.7 |
| 20260510111045 | 49 | 358 | 3.0 | 5.0 | 0.00 | 0.00 | 0.00 | 55 | 1010.7 |
| 20260510110931 | 49 | 358 | 3.0 | 5.0 | 0.00 | 0.00 | 0.00 | 55 | 1010.7 |
| 20260510110828 | 49 | 358 | 4.0 | 5.0 | 0.00 | 0.00 | 0.00 | 55 | 1010.6 |
| 20260510110725 | 49 | 358 | 3.0 | 5.0 | 0.00 | 0.00 | 0.00 | 55 | 1010.5 |
| 20260510110653 | 49 | 357 | 4.0 | 5.0 | 0.00 | 0.00 | 0.00 | 55 | 1010.5 |
| 20260510110541 | 49 | 357 | 4.0 | 5.0 | 0.00 | 0.00 | 0.00 | 55 | 1010.6 |
| 20260510110438 | 49 | 356 | 4.0 | 5.0 | 0.00 | 0.00 | 0.00 | 55 | 1010.5 |
| 20260510110404 | 49 | 356 | 4.0 | 5.0 | 0.00 | 0.00 | 0.00 | 55 | 1010.5 |
| 20260510110309 | 49 | 355 | 4.0 | 5.0 | 0.00 | 0.00 | 0.00 | 55 | 1010.5 |
| 20260510110123 | 49 | 352 | 4.0 | 5.0 | 0.00 | 0.00 | 0.00 | 55 | 1010.5 |
| 20260510110051 | 49 | 350 | 4.0 | 5.0 | 0.00 | 0.00 | 0.00 | 55 | 1010.5 |
| 20260510105922 | 49 | 348 | 3.0 | 4.0 | 0.00 | 0.00 | 0.00 | 55 | 1010.6 |
| 20260510105822 | 49 | 347 | 2.0 | 4.0 | 0.00 | 0.00 | 0.00 | 55 | 1010.6 |
| 20260510105747 | 49 | 346 | 2.0 | 3.0 | 0.00 | 0.00 | 0.00 | 55 | 1010.6 |
| 20260510105633 | 50 | 346 | 2.0 | 3.0 | 0.00 | 0.00 | 0.00 | 55 | 1010.7 |
| 20260510105529 | 50 | 346 | 2.0 | 3.0 | 0.00 | 0.00 | 0.00 | 55 | 1010.7 |
| 20260510105426 | 50 | 346 | 1.0 | 2.0 | 0.00 | 0.00 | 0.00 | 55 | 1010.6 |
| 20260510105332 | 50 | 346 | 0.0 | 2.0 | 0.00 | 0.00 | 0.00 | 55 | 1010.6 |
| 20260510105227 | 50 | 346 | 0.0 | 1.0 | 0.00 | 0.00 | 0.00 | 55 | 1010.6 |
| 20260510105140 | 50 | 346 | 0.0 | 1.0 | 0.00 | 0.00 | 0.00 | 55 | 1010.6 |
| 20260510105036 | 50 | 346 | 0.0 | 0.0 | 0.00 | 0.00 | 0.00 | 54 | 1010.6 |
| 20260510104941 | 50 | 346 | 0.0 | 0.0 | 0.00 | 0.00 | 0.00 | 54 | 1010.6 |
| 20260510104818 | 50 | 346 | 0.0 | 0.0 | 0.00 | 0.00 | 0.00 | 54 | 1010.5 |
| 20260510104734 | 50 | 346 | 0.0 | 0.0 | 0.00 | 0.00 | 0.00 | 54 | 1010.5 |
| 20260510104640 | 50 | 346 | 0.0 | 0.0 | 0.00 | 0.00 | 0.00 | 54 | 1010.5 |
| 20260510104533 | 50 | 346 | 0.0 | 0.0 | 0.00 | 0.00 | 0.00 | 54 | 1010.6 |
| 20260510104441 | 50 | 346 | 0.0 | 0.0 | 0.00 | 0.00 | 0.00 | 54 | 1010.5 |
| 20260510104338 | 50 | 346 | 0.0 | 0.0 | 0.00 | 0.00 | 0.00 | 54 | 1010.5 |
| 20260510104246 | 50 | 346 | 0.0 | 0.0 | 0.00 | 0.00 | 0.00 | 54 | 1010.5 |
| 20260510104120 | 50 | 346 | 0.0 | 0.0 | 0.00 | 0.00 | 0.00 | 54 | 1010.4 |
| 20260510104037 | 50 | 346 | 0.0 | 0.0 | 0.00 | 0.00 | 0.00 | 54 | 1010.4 |
| 20260510103943 | 50 | 346 | 0.0 | 0.0 | 0.00 | 0.00 | 0.00 | 54 | 1010.4 |
| 20260510103823 | 51 | 346 | 0.0 | 0.0 | 0.00 | 0.00 | 0.00 | 54 | 1010.4 |
| 20260510103720 | 51 | 346 | 0.0 | 0.0 | 0.00 | 0.00 | 0.00 | 54 | 1010.4 |
| 20260510103628 | 51 | 346 | 0.0 | 0.0 | 0.00 | 0.00 | 0.00 | 54 | 1010.4 |
| 20260510103521 | 51 | 346 | 0.0 | 0.0 | 0.00 | 0.00 | 0.00 | 54 | 1010.4 |
| 20260510103446 | 51 | 346 | 0.0 | 0.0 | 0.00 | 0.00 | 0.00 | 54 | 1010.4 |
| 20260510103323 | 51 | 346 | 0.0 | 0.0 | 0.00 | 0.00 | 0.00 | 54 | 1010.3 |
| 20260510103223 | 51 | 346 | 0.0 | 0.0 | 0.00 | 0.00 | 0.00 | 54 | 1010.3 |
| 20260510103130 | 51 | 346 | 0.0 | 0.0 | 0.00 | 0.00 | 0.00 | 54 | 1010.3 |
| 20260510103025 | 51 | 346 | 0.0 | 0.0 | 0.00 | 0.00 | 0.00 | 53 | 1010.4 |
| 20260510102930 | 51 | 346 | 0.0 | 0.0 | 0.00 | 0.00 | 0.00 | 53 | 1010.3 |
| 20260510102827 | 51 | 346 | 0.0 | 0.0 | 0.00 | 0.00 | 0.00 | 53 | 1010.4 |
| 20260510102733 | 51 | 346 | 0.0 | 0.0 | 0.00 | 0.00 | 0.00 | 53 | 1010.4 |
| 20260510102632 | 51 | 346 | 0.0 | 0.0 | 0.00 | 0.00 | 0.00 | 53 | 1010.4 |
| 20260510102541 | 51 | 346 | 0.0 | 0.0 | 0.00 | 0.00 | 0.00 | 53 | 1010.4 |
| 20260510102419 | 51 | 346 | 0.0 | 0.0 | 0.00 | 0.00 | 0.00 | 53 | 1010.3 |
| 20260510102343 | 51 | 346 | 0.0 | 0.0 | 0.00 | 0.00 | 0.00 | 53 | 1010.4 |
| 20260510102219 | 51 | 346 | 0.0 | 0.0 | 0.00 | 0.00 | 0.00 | 53 | 1010.3 |
| 20260510102145 | 51 | 346 | 0.0 | 0.0 | 0.00 | 0.00 | 0.00 | 53 | 1010.3 |
| 20260510102042 | 51 | 346 | 0.0 | 0.0 | 0.00 | 0.00 | 0.00 | 53 | 1010.4 |
| 20260510101927 | 51 | 346 | 0.0 | 0.0 | 0.00 | 0.00 | 0.00 | 53 | 1010.4 |
| 20260510101843 | 51 | 346 | 0.0 | 0.0 | 0.00 | 0.00 | 0.00 | 53 | 1010.4 |
| 20260510101732 | 52 | 346 | 0.0 | 0.0 | 0.00 | 0.00 | 0.00 | 53 | 1010.4 |
| 20260510101631 | 52 | 346 | 0.0 | 0.0 | 0.00 | 0.00 | 0.00 | 53 | 1010.4 |
| 20260510101554 | 52 | 346 | 0.0 | 0.0 | 0.00 | 0.00 | 0.00 | 53 | 1010.4 |
| 20260510101428 | 52 | 346 | 0.0 | 0.0 | 0.00 | 0.00 | 0.00 | 53 | 1010.5 |
| 20260510101333 | 52 | 346 | 0.0 | 0.0 | 0.00 | 0.00 | 0.00 | 53 | 1010.5 |
| 20260510101240 | 52 | 346 | 0.0 | 0.0 | 0.00 | 0.00 | 0.00 | 53 | 1010.5 |
| 20260510101139 | 52 | 346 | 0.0 | 0.0 | 0.00 | 0.00 | 0.00 | 53 | 1010.5 |
| 20260510101043 | 52 | 346 | 0.0 | 0.0 | 0.00 | 0.00 | 0.00 | 53 | 1010.5 |
| 20260510100924 | 52 | 346 | 0.0 | 0.0 | 0.00 | 0.00 | 0.00 | 53 | 1010.5 |
| 20260510100829 | 52 | 346 | 0.0 | 0.0 | 0.00 | 0.00 | 0.00 | 52 | 1010.5 |
| 20260510100728 | 52 | 346 | 0.0 | 1.0 | 0.00 | 0.00 | 0.00 | 52 | 1010.5 |
| 20260510100623 | 52 | 346 | 0.0 | 1.0 | 0.00 | 0.00 | 0.00 | 52 | 1010.5 |
| 20260510100529 | 52 | 346 | 0.0 | 1.0 | 0.00 | 0.00 | 0.00 | 52 | 1010.5 |
| 20260510100425 | 52 | 346 | 0.0 | 1.0 | 0.00 | 0.00 | 0.00 | 52 | 1010.5 |
| 20260510100352 | 52 | 346 | 0.0 | 1.0 | 0.00 | 0.00 | 0.00 | 52 | 1010.5 |
| 20260510100243 | 52 | 346 | 0.0 | 1.0 | 0.00 | 0.00 | 0.00 | 52 | 1010.5 |
| 20260510100138 | 52 | 346 | 0.0 | 2.0 | 0.00 | 0.00 | 0.00 | 52 | 1010.5 |
| 20260510100042 | 52 | 346 | 0.0 | 2.0 | 0.00 | 0.00 | 0.00 | 51 | 1010.5 |
| 20260510095937 | 52 | 346 | 0.0 | 2.0 | 0.00 | 0.00 | 0.00 | 51 | 1010.5 |
| 20260510095823 | 52 | 346 | 1.0 | 2.0 | 0.00 | 0.00 | 0.00 | 51 | 1010.6 |
| 20260510095720 | 52 | 346 | 1.0 | 2.0 | 0.00 | 0.00 | 0.00 | 51 | 1010.6 |
| 20260510095645 | 52 | 346 | 1.0 | 2.0 | 0.00 | 0.00 | 0.00 | 51 | 1010.6 |
| 20260510095524 | 52 | 346 | 1.0 | 2.0 | 0.00 | 0.00 | 0.00 | 52 | 1010.6 |
| 20260510095429 | 52 | 346 | 1.0 | 2.0 | 0.00 | 0.00 | 0.00 | 52 | 1010.6 |
| 20260510095326 | 52 | 346 | 1.0 | 2.0 | 0.00 | 0.00 | 0.00 | 52 | 1010.6 |
| 20260510095232 | 52 | 346 | 1.0 | 2.0 | 0.00 | 0.00 | 0.00 | 52 | 1010.6 |
| 20260510095201 | 53 | 346 | 1.0 | 1.0 | 0.00 | 0.00 | 0.00 | 52 | 1010.6 |
| 20260510095036 | 53 | 346 | 0.0 | 1.0 | 0.00 | 0.00 | 0.00 | 52 | 1010.5 |
| 20260510094933 | 53 | 346 | 0.0 | 0.0 | 0.00 | 0.00 | 0.00 | 52 | 1010.5 |
| 20260510094825 | 53 | 346 | 0.0 | 0.0 | 0.00 | 0.00 | 0.00 | 52 | 1010.5 |
| 20260510094720 | 53 | 346 | 0.0 | 0.0 | 0.00 | 0.00 | 0.00 | 52 | 1010.5 |
| 20260510094646 | 53 | 346 | 0.0 | 0.0 | 0.00 | 0.00 | 0.00 | 52 | 1010.5 |
| 20260510094521 | 53 | 346 | 0.0 | 0.0 | 0.00 | 0.00 | 0.00 | 52 | 1010.5 |
| 20260510094438 | 53 | 346 | 0.0 | 0.0 | 0.00 | 0.00 | 0.00 | 51 | 1010.5 |
| 20260510094322 | 53 | 346 | 0.0 | 0.0 | 0.00 | 0.00 | 0.00 | 51 | 1010.6 |
| 20260510094218 | 53 | 346 | 0.0 | 0.0 | 0.00 | 0.00 | 0.00 | 51 | 1010.5 |
| 20260510094131 | 53 | 346 | 0.0 | 0.0 | 0.00 | 0.00 | 0.00 | 51 | 1010.5 |
| 20260510094027 | 53 | 346 | 0.0 | 0.0 | 0.00 | 0.00 | 0.00 | 51 | 1010.5 |
| 20260510093934 | 53 | 346 | 0.0 | 0.0 | 0.00 | 0.00 | 0.00 | 51 | 1010.6 |
| 20260510093830 | 53 | 346 | 0.0 | 0.0 | 0.00 | 0.00 | 0.00 | 51 | 1010.7 |
| 20260510093728 | 53 | 346 | 0.0 | 0.0 | 0.00 | 0.00 | 0.00 | 51 | 1010.6 |
| 20260510093636 | 53 | 346 | 0.0 | 0.0 | 0.00 | 0.00 | 0.00 | 51 | 1010.6 |
| 20260510093530 | 53 | 346 | 0.0 | 0.0 | 0.00 | 0.00 | 0.00 | 50 | 1010.6 |
| 20260510093439 | 54 | 346 | 0.0 | 0.0 | 0.00 | 0.00 | 0.00 | 50 | 1010.6 |
| 20260510093336 | 54 | 346 | 0.0 | 0.0 | 0.00 | 0.00 | 0.00 | 50 | 1010.6 |
| 20260510093245 | 54 | 346 | 0.0 | 0.0 | 0.00 | 0.00 | 0.00 | 50 | 1010.6 |
| 20260510093139 | 54 | 346 | 0.0 | 0.0 | 0.00 | 0.00 | 0.00 | 50 | 1010.7 |
| 20260510093024 | 54 | 346 | 0.0 | 0.0 | 0.00 | 0.00 | 0.00 | 50 | 1010.7 |
| 20260510092918 | 54 | 346 | 0.0 | 0.0 | 0.00 | 0.00 | 0.00 | 50 | 1010.6 |
| 20260510092843 | 54 | 346 | 0.0 | 1.0 | 0.00 | 0.00 | 0.00 | 50 | 1010.6 |
| 20260510092722 | 54 | 346 | 0.0 | 1.0 | 0.00 | 0.00 | 0.00 | 50 | 1010.6 |
| 20260510092627 | 54 | 346 | 0.0 | 1.0 | 0.00 | 0.00 | 0.00 | 50 | 1010.6 |
| 20260510092523 | 54 | 346 | 0.0 | 1.0 | 0.00 | 0.00 | 0.00 | 49 | 1010.6 |
| 20260510092430 | 54 | 346 | 0.0 | 1.0 | 0.00 | 0.00 | 0.00 | 49 | 1010.6 |
| 20260510092347 | 54 | 346 | 0.0 | 1.0 | 0.00 | 0.00 | 0.00 | 49 | 1010.7 |
| 20260510092251 | 54 | 346 | 0.0 | 1.0 | 0.00 | 0.00 | 0.00 | 49 | 1010.6 |
| 20260510092159 | 54 | 346 | 0.0 | 1.0 | 0.00 | 0.00 | 0.00 | 49 | 1010.7 |
| 20260510092033 | 54 | 346 | 0.0 | 1.0 | 0.00 | 0.00 | 0.00 | 49 | 1010.6 |
| 20260510091942 | 54 | 346 | 0.0 | 1.0 | 0.00 | 0.00 | 0.00 | 49 | 1010.7 |
| 20260510091819 | 55 | 346 | 0.0 | 0.0 | 0.00 | 0.00 | 0.00 | 49 | 1010.7 |
| 20260510091747 | 55 | 346 | 0.0 | 0.0 | 0.00 | 0.00 | 0.00 | 49 | 1010.7 |
| 20260510091621 | 55 | 346 | 0.0 | 0.0 | 0.00 | 0.00 | 0.00 | 49 | 1010.7 |
| 20260510091547 | 55 | 346 | 0.0 | 0.0 | 0.00 | 0.00 | 0.00 | 49 | 1010.7 |
| 20260510091424 | 55 | 346 | 0.0 | 0.0 | 0.00 | 0.00 | 0.00 | 48 | 1010.7 |
| 20260510091348 | 55 | 346 | 0.0 | 0.0 | 0.00 | 0.00 | 0.00 | 48 | 1010.7 |
| 20260510091229 | 55 | 346 | 0.0 | 0.0 | 0.00 | 0.00 | 0.00 | 48 | 1010.7 |
| 20260510091124 | 55 | 346 | 0.0 | 0.0 | 0.00 | 0.00 | 0.00 | 48 | 1010.7 |
| 20260510091030 | 55 | 346 | 0.0 | 0.0 | 0.00 | 0.00 | 0.00 | 48 | 1010.7 |
| 20260510090956 | 55 | 346 | 0.0 | 0.0 | 0.00 | 0.00 | 0.00 | 48 | 1010.7 |
| 20260510090833 | 55 | 346 | 0.0 | 0.0 | 0.00 | 0.00 | 0.00 | 48 | 1010.7 |
| 20260510090730 | 55 | 346 | 0.0 | 0.0 | 0.00 | 0.00 | 0.00 | 47 | 1010.7 |
| 20260510090637 | 55 | 346 | 0.0 | 0.0 | 0.00 | 0.00 | 0.00 | 47 | 1010.7 |
| 20260510090540 | 55 | 346 | 0.0 | 0.0 | 0.00 | 0.00 | 0.00 | 47 | 1010.7 |
| 20260510090440 | 56 | 346 | 0.0 | 0.0 | 0.00 | 0.00 | 0.00 | 47 | 1010.7 |
| 20260510090347 | 56 | 346 | 0.0 | 0.0 | 0.00 | 0.00 | 0.00 | 47 | 1010.7 |
| 20260510090244 | 56 | 346 | 0.0 | 0.0 | 0.00 | 0.00 | 0.00 | 47 | 1010.7 |
| 20260510090131 | 56 | 346 | 0.0 | 0.0 | 0.00 | 0.00 | 0.00 | 47 | 1010.7 |
| 20260510090025 | 56 | 346 | 0.0 | 0.0 | 0.00 | 0.00 | 0.00 | 47 | 1010.7 |
| 20260510085951 | 56 | 346 | 0.0 | 0.0 | 0.00 | 0.00 | 0.00 | 47 | 1010.7 |
| 20260510085827 | 56 | 346 | 0.0 | 0.0 | 0.00 | 0.00 | 0.00 | 47 | 1010.7 |
| 20260510085737 | 56 | 346 | 0.0 | 0.0 | 0.00 | 0.00 | 0.00 | 46 | 1010.7 |
| 20260510085704 | 56 | 346 | 0.0 | 0.0 | 0.00 | 0.00 | 0.00 | 46 | 1010.7 |
| 20260510085539 | 56 | 346 | 0.0 | 0.0 | 0.00 | 0.00 | 0.00 | 46 | 1010.7 |
| 20260510085504 | 56 | 346 | 0.0 | 1.0 | 0.00 | 0.00 | 0.00 | 46 | 1010.7 |
| 20260510085320 | 56 | 346 | 0.0 | 1.0 | 0.00 | 0.00 | 0.00 | 46 | 1010.8 |
| 20260510085248 | 56 | 346 | 0.0 | 1.0 | 0.00 | 0.00 | 0.00 | 46 | 1010.8 |
| 20260510085123 | 56 | 346 | 0.0 | 1.0 | 0.00 | 0.00 | 0.00 | 45 | 1010.8 |
| 20260510085023 | 57 | 346 | 0.0 | 1.0 | 0.00 | 0.00 | 0.00 | 45 | 1010.8 |
| 20260510084920 | 57 | 346 | 0.0 | 1.0 | 0.00 | 0.00 | 0.00 | 45 | 1010.8 |
| 20260510084847 | 57 | 346 | 0.0 | 1.0 | 0.00 | 0.00 | 0.00 | 45 | 1010.8 |
| 20260510084733 | 57 | 346 | 0.0 | 1.0 | 0.00 | 0.00 | 0.00 | 45 | 1010.8 |
| 20260510084632 | 57 | 346 | 0.0 | 1.0 | 0.00 | 0.00 | 0.00 | 45 | 1010.8 |
| 20260510084537 | 57 | 346 | 0.0 | 1.0 | 0.00 | 0.00 | 0.00 | 45 | 1010.8 |
| 20260510084454 | 57 | 346 | 0.0 | 1.0 | 0.00 | 0.00 | 0.00 | 45 | 1010.8 |
| 20260510084339 | 57 | 346 | 0.0 | 1.0 | 0.00 | 0.00 | 0.00 | 45 | 1010.8 |
| 20260510084221 | 57 | 346 | 0.0 | 1.0 | 0.00 | 0.00 | 0.00 | 45 | 1010.8 |
| 20260510084150 | 57 | 346 | 0.0 | 1.0 | 0.00 | 0.00 | 0.00 | 45 | 1010.8 |
| 20260510084025 | 57 | 346 | 0.0 | 1.0 | 0.00 | 0.00 | 0.00 | 45 | 1010.7 |
| 20260510083923 | 57 | 346 | 0.0 | 1.0 | 0.00 | 0.00 | 0.00 | 45 | 1010.7 |
| 20260510083826 | 57 | 346 | 0.0 | 1.0 | 0.00 | 0.00 | 0.00 | 45 | 1010.7 |
| 20260510083730 | 57 | 346 | 0.0 | 1.0 | 0.00 | 0.00 | 0.00 | 45 | 1010.7 |
| 20260510083630 | 57 | 346 | 1.0 | 1.0 | 0.00 | 0.00 | 0.00 | 44 | 1010.7 |
| 20260510083537 | 57 | 346 | 0.0 | 1.0 | 0.00 | 0.00 | 0.00 | 45 | 1010.7 |
| 20260510083453 | 57 | 346 | 0.0 | 1.0 | 0.00 | 0.00 | 0.00 | 45 | 1010.7 |
| 20260510083338 | 57 | 346 | 0.0 | 1.0 | 0.00 | 0.00 | 0.00 | 44 | 1010.7 |
| 20260510083234 | 57 | 346 | 0.0 | 1.0 | 0.00 | 0.00 | 0.00 | 44 | 1010.7 |
| 20260510083143 | 57 | 346 | 0.0 | 0.0 | 0.00 | 0.00 | 0.00 | 44 | 1010.7 |
| 20260510083039 | 58 | 346 | 0.0 | 0.0 | 0.00 | 0.00 | 0.00 | 44 | 1010.7 |
| 20260510083005 | 58 | 346 | 0.0 | 0.0 | 0.00 | 0.00 | 0.00 | 44 | 1010.7 |
| 20260510082824 | 58 | 346 | 0.0 | 0.0 | 0.00 | 0.00 | 0.00 | 44 | 1010.6 |
| 20260510082720 | 58 | 346 | 0.0 | 0.0 | 0.00 | 0.00 | 0.00 | 44 | 1010.6 |
| 20260510082628 | 58 | 346 | 0.0 | 0.0 | 0.00 | 0.00 | 0.00 | 44 | 1010.6 |
| 20260510082522 | 58 | 346 | 0.0 | 0.0 | 0.00 | 0.00 | 0.00 | 44 | 1010.7 |
| 20260510082446 | 58 | 346 | 0.0 | 0.0 | 0.00 | 0.00 | 0.00 | 44 | 1010.7 |
| 20260510082324 | 58 | 346 | 0.0 | 0.0 | 0.00 | 0.00 | 0.00 | 44 | 1010.6 |
| 20260510082225 | 58 | 346 | 0.0 | 0.0 | 0.00 | 0.00 | 0.00 | 44 | 1010.6 |
| 20260510082154 | 58 | 346 | 0.0 | 0.0 | 0.00 | 0.00 | 0.00 | 44 | 1010.7 |
| 20260510082058 | 58 | 346 | 0.0 | 1.0 | 0.00 | 0.00 | 0.00 | 44 | 1010.6 |
| 20260510081932 | 58 | 346 | 0.0 | 1.0 | 0.00 | 0.00 | 0.00 | 44 | 1010.7 |
| 20260510081837 | 58 | 346 | 0.0 | 1.0 | 0.00 | 0.00 | 0.00 | 44 | 1010.6 |
| 20260510081734 | 58 | 346 | 0.0 | 1.0 | 0.00 | 0.00 | 0.00 | 44 | 1010.6 |
| 20260510081642 | 58 | 346 | 0.0 | 1.0 | 0.00 | 0.00 | 0.00 | 44 | 1010.7 |
| 20260510081521 | 58 | 346 | 0.0 | 1.0 | 0.00 | 0.00 | 0.00 | 44 | 1010.7 |
| 20260510081419 | 58 | 346 | 0.0 | 1.0 | 0.00 | 0.00 | 0.00 | 44 | 1010.7 |
| 20260510081345 | 58 | 346 | 0.0 | 1.0 | 0.00 | 0.00 | 0.00 | 44 | 1010.7 |
| 20260510081306 | 58 | 346 | 0.0 | 1.0 | 0.00 | 0.00 | 0.00 | 44 | 1010.8 |
| 20260510081120 | 58 | 346 | 0.0 | 1.0 | 0.00 | 0.00 | 0.00 | 44 | 1010.7 |
| 20260510081036 | 58 | 346 | 0.0 | 1.0 | 0.00 | 0.00 | 0.00 | 44 | 1010.7 |
| 20260510080941 | 58 | 346 | 0.0 | 0.0 | 0.00 | 0.00 | 0.00 | 44 | 1010.7 |
| 20260510080822 | 59 | 346 | 0.0 | 0.0 | 0.00 | 0.00 | 0.00 | 44 | 1010.8 |
| 20260510080720 | 59 | 346 | 0.0 | 0.0 | 0.00 | 0.00 | 0.00 | 44 | 1010.7 |
| 20260510080644 | 59 | 346 | 0.0 | 0.0 | 0.00 | 0.00 | 0.00 | 44 | 1010.8 |
| 20260510080528 | 59 | 346 | 0.0 | 0.0 | 0.00 | 0.00 | 0.00 | 44 | 1010.8 |
| 20260510080425 | 59 | 346 | 0.0 | 0.0 | 0.00 | 0.00 | 0.00 | 44 | 1010.8 |
| 20260510080332 | 59 | 346 | 0.0 | 0.0 | 0.00 | 0.00 | 0.00 | 44 | 1010.8 |
| 20260510080229 | 59 | 346 | 0.0 | 0.0 | 0.00 | 0.00 | 0.00 | 44 | 1010.8 |
| 20260510080138 | 59 | 346 | 0.0 | 0.0 | 0.00 | 0.00 | 0.00 | 44 | 1010.7 |
| 20260510080030 | 59 | 346 | 0.0 | 0.0 | 0.00 | 0.00 | 0.00 | 44 | 1010.8 |
| 20260510075936 | 59 | 346 | 0.0 | 0.0 | 0.00 | 0.00 | 0.00 | 43 | 1010.8 |
| 20260510075835 | 59 | 346 | 0.0 | 0.0 | 0.00 | 0.00 | 0.00 | 43 | 1010.8 |
| 20260510075739 | 59 | 346 | 0.0 | 0.0 | 0.00 | 0.00 | 0.00 | 43 | 1010.8 |
| 20260510075647 | 59 | 346 | 0.0 | 1.0 | 0.00 | 0.00 | 0.00 | 43 | 1010.8 |
| 20260510075520 | 59 | 346 | 0.0 | 1.0 | 0.00 | 0.00 | 0.00 | 43 | 1010.8 |
| 20260510075446 | 59 | 346 | 0.0 | 1.0 | 0.00 | 0.00 | 0.00 | 43 | 1010.8 |
| 20260510075325 | 59 | 346 | 0.0 | 2.0 | 0.00 | 0.00 | 0.00 | 43 | 1010.8 |
| 20260510075221 | 59 | 346 | 0.0 | 2.0 | 0.00 | 0.00 | 0.00 | 43 | 1010.8 |
| 20260510075129 | 59 | 346 | 0.0 | 2.0 | 0.00 | 0.00 | 0.00 | 43 | 1010.8 |
| 20260510075022 | 59 | 346 | 0.0 | 2.0 | 0.00 | 0.00 | 0.00 | 43 | 1010.8 |
| 20260510074928 | 60 | 346 | 0.0 | 2.0 | 0.00 | 0.00 | 0.00 | 43 | 1010.8 |
| 20260510074825 | 60 | 346 | 1.0 | 2.0 | 0.00 | 0.00 | 0.00 | 43 | 1010.8 |
| 20260510074730 | 60 | 346 | 1.0 | 2.0 | 0.00 | 0.00 | 0.00 | 43 | 1010.8 |
| 20260510074649 | 60 | 346 | 1.0 | 2.0 | 0.00 | 0.00 | 0.00 | 43 | 1010.8 |
| 20260510074535 | 60 | 346 | 1.0 | 2.0 | 0.00 | 0.00 | 0.00 | 43 | 1010.9 |
| 20260510074432 | 60 | 346 | 0.0 | 3.0 | 0.00 | 0.00 | 0.00 | 42 | 1010.9 |
| 20260510074337 | 60 | 346 | 0.0 | 4.0 | 0.00 | 0.00 | 0.00 | 42 | 1010.8 |
| 20260510074254 | 60 | 346 | 0.0 | 4.0 | 0.00 | 0.00 | 0.00 | 42 | 1010.9 |
| 20260510074141 | 60 | 346 | 0.0 | 4.0 | 0.00 | 0.00 | 0.00 | 42 | 1010.9 |
| 20260510074036 | 60 | 346 | 0.0 | 4.0 | 0.00 | 0.00 | 0.00 | 42 | 1010.9 |
| 20260510073942 | 60 | 346 | 0.0 | 4.0 | 0.00 | 0.00 | 0.00 | 42 | 1010.9 |
| 20260510073822 | 60 | 346 | 1.0 | 4.0 | 0.00 | 0.00 | 0.00 | 42 | 1010.9 |
| 20260510073727 | 60 | 346 | 1.0 | 4.0 | 0.00 | 0.00 | 0.00 | 42 | 1010.9 |
| 20260510073632 | 60 | 346 | 2.0 | 5.0 | 0.00 | 0.00 | 0.00 | 42 | 1010.8 |
| 20260510073527 | 60 | 346 | 3.0 | 5.0 | 0.00 | 0.00 | 0.00 | 42 | 1010.9 |
| 20260510073432 | 60 | 346 | 3.0 | 5.0 | 0.00 | 0.00 | 0.00 | 42 | 1010.8 |
| 20260510073337 | 60 | 346 | 3.0 | 5.0 | 0.00 | 0.00 | 0.00 | 42 | 1010.8 |
| 20260510073253 | 60 | 346 | 3.0 | 5.0 | 0.00 | 0.00 | 0.00 | 42 | 1010.8 |
| 20260510073140 | 60 | 346 | 3.0 | 5.0 | 0.00 | 0.00 | 0.00 | 42 | 1010.8 |
| 20260510073104 | 60 | 346 | 3.0 | 5.0 | 0.00 | 0.00 | 0.00 | 42 | 1010.8 |
| 20260510072923 | 60 | 346 | 3.0 | 5.0 | 0.00 | 0.00 | 0.00 | 42 | 1010.8 |
| 20260510072821 | 60 | 346 | 3.0 | 5.0 | 0.00 | 0.00 | 0.00 | 42 | 1010.8 |
| 20260510072747 | 60 | 346 | 3.0 | 5.0 | 0.00 | 0.00 | 0.00 | 42 | 1010.8 |
| 20260510072621 | 60 | 346 | 3.0 | 5.0 | 0.00 | 0.00 | 0.00 | 42 | 1010.8 |
| 20260510072548 | 60 | 346 | 3.0 | 5.0 | 0.00 | 0.00 | 0.00 | 42 | 1010.8 |
| 20260510072441 | 60 | 346 | 3.0 | 5.0 | 0.00 | 0.00 | 0.00 | 42 | 1010.8 |
| 20260510072327 | 60 | 346 | 4.0 | 5.0 | 0.00 | 0.00 | 0.00 | 42 | 1010.8 |
| 20260510072227 | 60 | 346 | 4.0 | 5.0 | 0.00 | 0.00 | 0.00 | 42 | 1010.8 |
| 20260510072154 | 61 | 346 | 4.0 | 5.0 | 0.00 | 0.00 | 0.00 | 41 | 1010.8 |
| 20260510072039 | 61 | 346 | 4.0 | 5.0 | 0.00 | 0.00 | 0.00 | 41 | 1010.8 |
| 20260510071934 | 61 | 346 | 3.0 | 5.0 | 0.00 | 0.00 | 0.00 | 41 | 1010.8 |
| 20260510071819 | 61 | 346 | 3.0 | 5.0 | 0.00 | 0.00 | 0.00 | 41 | 1010.8 |
| 20260510071726 | 61 | 346 | 3.0 | 5.0 | 0.00 | 0.00 | 0.00 | 41 | 1010.8 |
| 20260510071620 | 61 | 346 | 3.0 | 5.0 | 0.00 | 0.00 | 0.00 | 41 | 1010.8 |
| 20260510071518 | 61 | 346 | 3.0 | 5.0 | 0.00 | 0.00 | 0.00 | 41 | 1010.8 |
| 20260510071429 | 61 | 346 | 3.0 | 5.0 | 0.00 | 0.00 | 0.00 | 41 | 1010.8 |
| 20260510071355 | 61 | 346 | 3.0 | 5.0 | 0.00 | 0.00 | 0.00 | 41 | 1010.8 |
| 20260510071230 | 61 | 346 | 3.0 | 5.0 | 0.00 | 0.00 | 0.00 | 41 | 1010.8 |
| 20260510071139 | 61 | 346 | 3.0 | 5.0 | 0.00 | 0.00 | 0.00 | 41 | 1010.8 |
| 20260510071033 | 61 | 346 | 3.0 | 5.0 | 0.00 | 0.00 | 0.00 | 41 | 1010.9 |
| 20260510070937 | 61 | 345 | 3.0 | 5.0 | 0.00 | 0.00 | 0.00 | 41 | 1010.8 |
| 20260510070834 | 61 | 345 | 3.0 | 5.0 | 0.00 | 0.00 | 0.00 | 40 | 1010.8 |
| 20260510070741 | 61 | 345 | 3.0 | 4.0 | 0.00 | 0.00 | 0.00 | 40 | 1010.9 |
| 20260510070620 | 61 | 345 | 3.0 | 4.0 | 0.00 | 0.00 | 0.00 | 40 | 1010.9 |
| 20260510070545 | 61 | 345 | 3.0 | 4.0 | 0.00 | 0.00 | 0.00 | 40 | 1010.8 |
| 20260510070420 | 61 | 345 | 3.0 | 4.0 | 0.00 | 0.00 | 0.00 | 40 | 1010.9 |
| 20260510070327 | 61 | 345 | 3.0 | 4.0 | 0.00 | 0.00 | 0.00 | 40 | 1010.9 |
| 20260510070227 | 61 | 345 | 3.0 | 4.0 | 0.00 | 0.00 | 0.00 | 40 | 1010.9 |
| 20260510070120 | 61 | 345 | 3.0 | 4.0 | 0.00 | 0.00 | 0.00 | 40 | 1010.8 |
| 20260510070025 | 62 | 345 | 3.0 | 4.0 | 0.00 | 0.00 | 0.00 | 40 | 1010.8 |
| 20260510065935 | 62 | 345 | 3.0 | 5.0 | 0.00 | 0.00 | 0.00 | 40 | 1010.8 |
| 20260510065828 | 62 | 345 | 2.0 | 5.0 | 0.00 | 0.00 | 0.00 | 40 | 1010.8 |
| 20260510065734 | 62 | 345 | 2.0 | 5.0 | 0.00 | 0.00 | 0.00 | 40 | 1010.8 |
| 20260510065632 | 62 | 345 | 2.0 | 5.0 | 0.00 | 0.00 | 0.00 | 40 | 1010.9 |
| 20260510065535 | 62 | 345 | 3.0 | 5.0 | 0.00 | 0.00 | 0.00 | 40 | 1010.9 |
| 20260510065431 | 62 | 345 | 3.0 | 5.0 | 0.00 | 0.00 | 0.00 | 40 | 1010.9 |
| 20260510065335 | 62 | 345 | 3.0 | 5.0 | 0.00 | 0.00 | 0.00 | 40 | 1010.9 |
| 20260510065233 | 62 | 345 | 3.0 | 5.0 | 0.00 | 0.00 | 0.00 | 40 | 1010.8 |
| 20260510065119 | 62 | 345 | 3.0 | 5.0 | 0.00 | 0.00 | 0.00 | 40 | 1010.9 |
| 20260510065046 | 62 | 345 | 3.0 | 5.0 | 0.00 | 0.00 | 0.00 | 40 | 1010.9 |
| 20260510064922 | 62 | 344 | 3.0 | 4.0 | 0.00 | 0.00 | 0.00 | 40 | 1010.8 |
| 20260510064818 | 62 | 344 | 3.0 | 5.0 | 0.00 | 0.00 | 0.00 | 39 | 1010.9 |
| 20260510064746 | 62 | 344 | 3.0 | 5.0 | 0.00 | 0.00 | 0.00 | 39 | 1010.9 |
| 20260510064620 | 62 | 344 | 2.0 | 5.0 | 0.00 | 0.00 | 0.00 | 39 | 1010.9 |
| 20260510064526 | 62 | 344 | 2.0 | 6.0 | 0.00 | 0.00 | 0.00 | 39 | 1010.9 |
| 20260510064428 | 62 | 344 | 2.0 | 6.0 | 0.00 | 0.00 | 0.00 | 39 | 1010.9 |
| 20260510064353 | 62 | 344 | 3.0 | 6.0 | 0.00 | 0.00 | 0.00 | 39 | 1010.8 |
| 20260510064229 | 62 | 344 | 3.0 | 6.0 | 0.00 | 0.00 | 0.00 | 39 | 1010.9 |
| 20260510064157 | 62 | 344 | 3.0 | 6.0 | 0.00 | 0.00 | 0.00 | 39 | 1010.9 |
| 20260510064041 | 62 | 344 | 3.0 | 6.0 | 0.00 | 0.00 | 0.00 | 39 | 1010.8 |
| 20260510063937 | 62 | 344 | 3.0 | 6.0 | 0.00 | 0.00 | 0.00 | 39 | 1010.8 |
| 20260510063834 | 62 | 343 | 3.0 | 6.0 | 0.00 | 0.00 | 0.00 | 39 | 1010.8 |
| 20260510063726 | 62 | 343 | 4.0 | 6.0 | 0.00 | 0.00 | 0.00 | 39 | 1010.9 |
| 20260510063642 | 62 | 343 | 3.0 | 6.0 | 0.00 | 0.00 | 0.00 | 39 | 1010.9 |
| 20260510063527 | 62 | 343 | 4.0 | 6.0 | 0.00 | 0.00 | 0.00 | 39 | 1010.9 |
| 20260510063423 | 63 | 343 | 3.0 | 6.0 | 0.00 | 0.00 | 0.00 | 39 | 1010.8 |
| 20260510063329 | 63 | 343 | 3.0 | 6.0 | 0.00 | 0.00 | 0.00 | 39 | 1010.8 |
| 20260510063228 | 63 | 343 | 3.0 | 6.0 | 0.00 | 0.00 | 0.00 | 39 | 1010.8 |
| 20260510063123 | 63 | 343 | 3.0 | 6.0 | 0.00 | 0.00 | 0.00 | 39 | 1010.8 |
| 20260510063032 | 63 | 343 | 4.0 | 6.0 | 0.00 | 0.00 | 0.00 | 39 | 1010.8 |
| 20260510062928 | 63 | 343 | 4.0 | 6.0 | 0.00 | 0.00 | 0.00 | 39 | 1010.8 |
| 20260510062835 | 63 | 343 | 4.0 | 8.0 | 0.00 | 0.00 | 0.00 | 39 | 1010.7 |
| 20260510062731 | 63 | 343 | 4.0 | 8.0 | 0.00 | 0.00 | 0.00 | 39 | 1010.8 |
| 20260510062638 | 63 | 348 | 3.0 | 8.0 | 0.00 | 0.00 | 0.00 | 39 | 1010.8 |
| 20260510062535 | 63 | 348 | 3.0 | 8.0 | 0.00 | 0.00 | 0.00 | 39 | 1010.8 |
| 20260510062436 | 63 | 348 | 4.0 | 8.0 | 0.00 | 0.00 | 0.00 | 39 | 1010.8 |
| 20260510062342 | 63 | 348 | 4.0 | 8.0 | 0.00 | 0.00 | 0.00 | 39 | 1010.8 |
| 20260510062218 | 63 | 348 | 4.0 | 8.0 | 0.00 | 0.00 | 0.00 | 39 | 1010.7 |
| 20260510062145 | 63 | 348 | 4.0 | 8.0 | 0.00 | 0.00 | 0.00 | 38 | 1010.7 |
| 20260510062020 | 63 | 348 | 4.0 | 8.0 | 0.00 | 0.00 | 0.00 | 38 | 1010.7 |
| 20260510061946 | 63 | 348 | 4.0 | 8.0 | 0.00 | 0.00 | 0.00 | 38 | 1010.7 |
| 20260510061823 | 63 | 348 | 4.0 | 8.0 | 0.00 | 0.00 | 0.00 | 39 | 1010.8 |
| 20260510061724 | 63 | 349 | 5.0 | 8.0 | 0.00 | 0.00 | 0.00 | 39 | 1010.8 |
| 20260510061630 | 63 | 348 | 4.0 | 9.0 | 0.00 | 0.00 | 0.00 | 38 | 1010.8 |
| 20260510061554 | 63 | 348 | 3.0 | 9.0 | 0.00 | 0.00 | 0.00 | 38 | 1010.8 |
| 20260510061430 | 63 | 348 | 3.0 | 9.0 | 0.00 | 0.00 | 0.00 | 38 | 1010.8 |
| 20260510061355 | 63 | 348 | 3.0 | 9.0 | 0.00 | 0.00 | 0.00 | 38 | 1010.8 |
| 20260510061239 | 63 | 348 | 3.0 | 9.0 | 0.00 | 0.00 | 0.00 | 38 | 1010.8 |
| 20260510061137 | 63 | 348 | 2.0 | 9.0 | 0.00 | 0.00 | 0.00 | 38 | 1010.8 |
| 20260510061030 | 63 | 348 | 4.0 | 9.0 | 0.00 | 0.00 | 0.00 | 38 | 1010.8 |
| 20260510060940 | 63 | 348 | 4.0 | 9.0 | 0.00 | 0.00 | 0.00 | 38 | 1010.8 |
| 20260510060837 | 63 | 348 | 4.0 | 9.0 | 0.00 | 0.00 | 0.00 | 38 | 1010.8 |
| 20260510060722 | 63 | 348 | 4.0 | 9.0 | 0.00 | 0.00 | 0.00 | 38 | 1010.8 |
| 20260510060639 | 63 | 348 | 5.0 | 9.0 | 0.00 | 0.00 | 0.00 | 38 | 1010.8 |
| 20260510060542 | 63 | 346 | 5.0 | 9.0 | 0.00 | 0.00 | 0.00 | 38 | 1010.8 |
| 20260510060418 | 63 | 346 | 4.0 | 9.0 | 0.00 | 0.00 | 0.00 | 38 | 1010.8 |
| 20260510060319 | 63 | 347 | 4.0 | 9.0 | 0.00 | 0.00 | 0.00 | 38 | 1010.8 |
| 20260510060226 | 63 | 347 | 4.0 | 9.0 | 0.00 | 0.00 | 0.00 | 38 | 1010.8 |
| 20260510060122 | 64 | 346 | 4.0 | 9.0 | 0.00 | 0.00 | 0.00 | 38 | 1010.8 |
| 20260510060028 | 64 | 346 | 4.0 | 8.0 | 0.00 | 0.00 | 0.00 | 38 | 1010.8 |
| 20260510055945 | 64 | 346 | 5.0 | 8.0 | 0.00 | 0.00 | 0.00 | 38 | 1010.8 |
| 20260510055829 | 64 | 345 | 5.0 | 8.0 | 0.00 | 0.00 | 0.00 | 38 | 1010.8 |
| 20260510055755 | 64 | 342 | 5.0 | 8.0 | 0.00 | 0.00 | 0.00 | 38 | 1010.8 |
| 20260510055632 | 64 | 341 | 4.0 | 8.0 | 0.00 | 0.00 | 0.00 | 37 | 1010.8 |
| 20260510055529 | 64 | 340 | 4.0 | 8.0 | 0.00 | 0.00 | 0.00 | 37 | 1010.8 |
| 20260510055435 | 64 | 338 | 4.0 | 8.0 | 0.00 | 0.00 | 0.00 | 37 | 1010.8 |
| 20260510055333 | 64 | 338 | 4.0 | 8.0 | 0.00 | 0.00 | 0.00 | 37 | 1010.8 |
| 20260510055239 | 64 | 337 | 4.0 | 8.0 | 0.00 | 0.00 | 0.00 | 37 | 1010.8 |
| 20260510055138 | 64 | 335 | 4.0 | 8.0 | 0.00 | 0.00 | 0.00 | 37 | 1010.9 |
| 20260510055102 | 64 | 335 | 4.0 | 8.0 | 0.00 | 0.00 | 0.00 | 37 | 1010.8 |
| 20260510055006 | 64 | 335 | 4.0 | 8.0 | 0.00 | 0.00 | 0.00 | 37 | 1010.8 |
| 20260510054846 | 64 | 337 | 4.0 | 8.0 | 0.00 | 0.00 | 0.00 | 37 | 1010.8 |
| 20260510054732 | 64 | 337 | 4.0 | 9.0 | 0.00 | 0.00 | 0.00 | 37 | 1010.8 |
| 20260510054630 | 64 | 337 | 4.0 | 9.0 | 0.00 | 0.00 | 0.00 | 37 | 1010.8 |
| 20260510054521 | 64 | 337 | 5.0 | 9.0 | 0.00 | 0.00 | 0.00 | 37 | 1010.8 |
| 20260510054426 | 64 | 339 | 5.0 | 9.0 | 0.00 | 0.00 | 0.00 | 37 | 1010.8 |
| 20260510054322 | 64 | 338 | 4.0 | 9.0 | 0.00 | 0.00 | 0.00 | 37 | 1010.8 |
| 20260510054227 | 65 | 338 | 4.0 | 9.0 | 0.00 | 0.00 | 0.00 | 37 | 1010.8 |
| 20260510054131 | 65 | 337 | 4.0 | 9.0 | 0.00 | 0.00 | 0.00 | 36 | 1010.8 |
| 20260510054035 | 65 | 336 | 5.0 | 9.0 | 0.00 | 0.00 | 0.00 | 36 | 1010.8 |
| 20260510053951 | 65 | 336 | 5.0 | 9.0 | 0.00 | 0.00 | 0.00 | 36 | 1010.8 |
| 20260510053836 | 65 | 334 | 4.0 | 8.0 | 0.00 | 0.00 | 0.00 | 36 | 1010.8 |
| 20260510053732 | 65 | 335 | 4.0 | 8.0 | 0.00 | 0.00 | 0.00 | 36 | 1010.8 |
| 20260510053639 | 65 | 335 | 4.0 | 8.0 | 0.00 | 0.00 | 0.00 | 36 | 1010.8 |
| 20260510053533 | 65 | 335 | 4.0 | 8.0 | 0.00 | 0.00 | 0.00 | 36 | 1010.8 |
| 20260510053503 | 65 | 335 | 4.0 | 8.0 | 0.00 | 0.00 | 0.00 | 36 | 1010.8 |
| 20260510053318 | 65 | 335 | 4.0 | 9.0 | 0.00 | 0.00 | 0.00 | 36 | 1010.8 |
| 20260510053224 | 65 | 335 | 4.0 | 9.0 | 0.00 | 0.00 | 0.00 | 36 | 1010.8 |
| 20260510053141 | 65 | 333 | 4.0 | 9.0 | 0.00 | 0.00 | 0.00 | 36 | 1010.8 |
| 20260510053025 | 65 | 333 | 5.0 | 9.0 | 0.00 | 0.00 | 0.00 | 36 | 1010.8 |
| 20260510052929 | 65 | 331 | 5.0 | 9.0 | 0.00 | 0.00 | 0.00 | 36 | 1010.8 |
| 20260510052826 | 65 | 331 | 5.0 | 9.0 | 0.00 | 0.00 | 0.00 | 36 | 1010.8 |
| 20260510052724 | 65 | 331 | 5.0 | 9.0 | 0.00 | 0.00 | 0.00 | 35 | 1010.9 |
| 20260510052655 | 65 | 329 | 4.0 | 9.0 | 0.00 | 0.00 | 0.00 | 35 | 1010.9 |
| 20260510052538 | 65 | 327 | 4.0 | 9.0 | 0.00 | 0.00 | 0.00 | 35 | 1010.8 |
| 20260510052435 | 65 | 328 | 4.0 | 11.0 | 0.00 | 0.00 | 0.00 | 35 | 1010.9 |
| 20260510052340 | 66 | 329 | 4.0 | 11.0 | 0.00 | 0.00 | 0.00 | 35 | 1010.9 |
| 20260510052235 | 66 | 328 | 4.0 | 11.0 | 0.00 | 0.00 | 0.00 | 35 | 1010.9 |
| 20260510052142 | 66 | 331 | 3.0 | 11.0 | 0.00 | 0.00 | 0.00 | 35 | 1010.9 |
| 20260510052033 | 66 | 332 | 4.0 | 11.0 | 0.00 | 0.00 | 0.00 | 35 | 1010.9 |
| 20260510051943 | 66 | 332 | 4.0 | 11.0 | 0.00 | 0.00 | 0.00 | 35 | 1010.9 |
| 20260510051819 | 66 | 331 | 5.0 | 11.0 | 0.00 | 0.00 | 0.00 | 35 | 1010.8 |
| 20260510051736 | 66 | 331 | 5.0 | 11.0 | 0.00 | 0.00 | 0.00 | 35 | 1010.8 |
| 20260510051640 | 66 | 334 | 7.0 | 11.0 | 0.00 | 0.00 | 0.00 | 35 | 1010.9 |
| 20260510051544 | 66 | 331 | 6.0 | 11.0 | 0.00 | 0.00 | 0.00 | 35 | 1010.9 |
| 20260510051440 | 66 | 329 | 5.0 | 10.0 | 0.00 | 0.00 | 0.00 | 35 | 1010.9 |
| 20260510051344 | 66 | 328 | 6.0 | 10.0 | 0.00 | 0.00 | 0.00 | 34 | 1010.9 |
| 20260510051219 | 66 | 337 | 5.0 | 10.0 | 0.00 | 0.00 | 0.00 | 34 | 1010.9 |
| 20260510051130 | 66 | 337 | 4.0 | 9.0 | 0.00 | 0.00 | 0.00 | 34 | 1010.9 |
| 20260510051055 | 66 | 325 | 4.0 | 8.0 | 0.00 | 0.00 | 0.00 | 34 | 1010.9 |
| 20260510050929 | 66 | 325 | 4.0 | 10.0 | 0.00 | 0.00 | 0.00 | 34 | 1010.9 |
| 20260510050824 | 66 | 339 | 4.0 | 10.0 | 0.00 | 0.00 | 0.00 | 34 | 1010.8 |
| 20260510050728 | 67 | 343 | 4.0 | 10.0 | 0.00 | 0.00 | 0.00 | 34 | 1010.8 |
| 20260510050628 | 67 | 355 | 3.0 | 10.0 | 0.00 | 0.00 | 0.00 | 34 | 1010.8 |
| 20260510050530 | 67 | 360 | 2.0 | 10.0 | 0.00 | 0.00 | 0.00 | 34 | 1010.8 |
| 20260510050430 | 67 | 360 | 2.0 | 10.0 | 0.00 | 0.00 | 0.00 | 34 | 1010.8 |
| 20260510050356 | 67 | 360 | 3.0 | 10.0 | 0.00 | 0.00 | 0.00 | 34 | 1010.8 |
| 20260510050243 | 67 | 360 | 5.0 | 10.0 | 0.00 | 0.00 | 0.00 | 34 | 1010.8 |
| 20260510050139 | 67 | 360 | 5.0 | 10.0 | 0.00 | 0.00 | 0.00 | 34 | 1010.8 |
| 20260510050042 | 67 | 360 | 4.0 | 9.0 | 0.00 | 0.00 | 0.00 | 34 | 1010.7 |
| 20260510045918 | 67 | 350 | 4.0 | 9.0 | 0.00 | 0.00 | 0.00 | 34 | 1010.8 |
| 20260510045844 | 67 | 350 | 5.0 | 9.0 | 0.00 | 0.00 | 0.00 | 34 | 1010.7 |
| 20260510045750 | 67 | 345 | 5.0 | 9.0 | 0.00 | 0.00 | 0.00 | 34 | 1010.7 |
| 20260510045624 | 67 | 358 | 5.0 | 9.0 | 0.00 | 0.00 | 0.00 | 34 | 1010.7 |
| 20260510045533 | 67 | 360 | 5.0 | 10.0 | 0.00 | 0.00 | 0.00 | 34 | 1010.7 |
| 20260510045431 | 67 | 360 | 6.0 | 11.0 | 0.00 | 0.00 | 0.00 | 34 | 1010.6 |
| 20260510045327 | 67 | 15 | 6.0 | 11.0 | 0.00 | 0.00 | 0.00 | 34 | 1010.7 |
| 20260510045232 | 67 | 10 | 6.0 | 11.0 | 0.00 | 0.00 | 0.00 | 34 | 1010.7 |
| 20260510045129 | 67 | 10 | 6.0 | 11.0 | 0.00 | 0.00 | 0.00 | 34 | 1010.6 |
| 20260510045032 | 67 | 20 | 6.0 | 11.0 | 0.00 | 0.00 | 0.00 | 34 | 1010.6 |
| 20260510044932 | 67 | 15 | 5.0 | 11.0 | 0.00 | 0.00 | 0.00 | 34 | 1010.6 |
| 20260510044837 | 68 | 19 | 6.0 | 11.0 | 0.00 | 0.00 | 0.00 | 34 | 1010.6 |
| 20260510044732 | 68 | 360 | 7.0 | 11.0 | 0.00 | 0.00 | 0.00 | 34 | 1010.6 |
| 20260510044625 | 68 | 358 | 8.0 | 11.0 | 0.00 | 0.00 | 0.00 | 34 | 1010.6 |
| 20260510044531 | 68 | 15 | 8.0 | 11.0 | 0.00 | 0.00 | 0.00 | 33 | 1010.6 |
| 20260510044427 | 68 | 19 | 7.0 | 11.0 | 0.00 | 0.00 | 0.00 | 33 | 1010.5 |
| 20260510044332 | 68 | 352 | 7.0 | 11.0 | 0.00 | 0.00 | 0.00 | 33 | 1010.5 |
| 20260510044241 | 68 | 344 | 7.0 | 11.0 | 0.00 | 0.00 | 0.00 | 33 | 1010.5 |
| 20260510044136 | 68 | 1 | 6.0 | 11.0 | 0.00 | 0.00 | 0.00 | 33 | 1010.5 |
| 20260510044031 | 68 | 5 | 5.0 | 10.0 | 0.00 | 0.00 | 0.00 | 33 | 1010.5 |
| 20260510043937 | 68 | 359 | 5.0 | 10.0 | 0.00 | 0.00 | 0.00 | 33 | 1010.5 |
| 20260510043831 | 68 | 5 | 4.0 | 10.0 | 0.00 | 0.00 | 0.00 | 32 | 1010.5 |
| 20260510043736 | 68 | 5 | 4.0 | 12.0 | 0.00 | 0.00 | 0.00 | 32 | 1010.5 |
| 20260510043633 | 68 | 5 | 5.0 | 12.0 | 0.00 | 0.00 | 0.00 | 32 | 1010.5 |
| 20260510043540 | 68 | 5 | 5.0 | 12.0 | 0.00 | 0.00 | 0.00 | 32 | 1010.5 |
| 20260510043437 | 68 | 354 | 5.0 | 12.0 | 0.00 | 0.00 | 0.00 | 32 | 1010.5 |
| 20260510043402 | 68 | 10 | 4.0 | 12.0 | 0.00 | 0.00 | 0.00 | 32 | 1010.5 |
| 20260510043239 | 68 | 5 | 5.0 | 12.0 | 0.00 | 0.00 | 0.00 | 32 | 1010.5 |
| 20260510043143 | 68 | 15 | 5.0 | 12.0 | 0.00 | 0.00 | 0.00 | 32 | 1010.5 |
| 20260510043033 | 69 | 5 | 6.0 | 12.0 | 0.00 | 0.00 | 0.00 | 32 | 1010.5 |
| 20260510042938 | 69 | 338 | 6.0 | 12.0 | 0.00 | 0.00 | 0.00 | 32 | 1010.5 |
| 20260510042818 | 69 | 5 | 5.0 | 10.0 | 0.00 | 0.00 | 0.00 | 31 | 1010.5 |
| 20260510042745 | 69 | 5 | 4.0 | 10.0 | 0.00 | 0.00 | 0.00 | 31 | 1010.5 |
| 20260510042618 | 69 | 5 | 4.0 | 10.0 | 0.00 | 0.00 | 0.00 | 31 | 1010.5 |
| 20260510042533 | 69 | 5 | 5.0 | 10.0 | 0.00 | 0.00 | 0.00 | 31 | 1010.5 |
| 20260510042419 | 69 | 5 | 6.0 | 10.0 | 0.00 | 0.00 | 0.00 | 31 | 1010.5 |
| 20260510042336 | 69 | 5 | 6.0 | 10.0 | 0.00 | 0.00 | 0.00 | 31 | 1010.5 |
| 20260510042229 | 69 | 34 | 6.0 | 10.0 | 0.00 | 0.00 | 0.00 | 31 | 1010.4 |
| 20260510042120 | 69 | 15 | 6.0 | 9.0 | 0.00 | 0.00 | 0.00 | 31 | 1010.5 |
| 20260510042046 | 69 | 15 | 6.0 | 9.0 | 0.00 | 0.00 | 0.00 | 31 | 1010.5 |
| 20260510041922 | 69 | 10 | 5.0 | 9.0 | 0.00 | 0.00 | 0.00 | 30 | 1010.4 |
| 20260510041819 | 69 | 10 | 5.0 | 9.0 | 0.00 | 0.00 | 0.00 | 30 | 1010.4 |
| 20260510041726 | 69 | 10 | 4.0 | 9.0 | 0.00 | 0.00 | 0.00 | 30 | 1010.4 |
| 20260510041619 | 69 | 15 | 5.0 | 9.0 | 0.00 | 0.00 | 0.00 | 30 | 1010.4 |
| 20260510041527 | 70 | 10 | 5.0 | 9.0 | 0.00 | 0.00 | 0.00 | 30 | 1010.4 |
| 20260510041422 | 70 | 15 | 5.0 | 9.0 | 0.00 | 0.00 | 0.00 | 30 | 1010.4 |
| 20260510041327 | 70 | 15 | 4.0 | 9.0 | 0.00 | 0.00 | 0.00 | 30 | 1010.4 |
| 20260510041226 | 70 | 10 | 4.0 | 11.0 | 0.00 | 0.00 | 0.00 | 30 | 1010.4 |
| 20260510041146 | 70 | 19 | 4.0 | 12.0 | 0.00 | 0.00 | 0.00 | 30 | 1010.4 |
| 20260510041046 | 70 | 24 | 4.0 | 12.0 | 0.00 | 0.00 | 0.00 | 30 | 1010.4 |
| 20260510040939 | 70 | 25 | 4.0 | 12.0 | 0.00 | 0.00 | 0.00 | 29 | 1010.4 |
| 20260510040903 | 70 | 15 | 3.0 | 12.0 | 0.00 | 0.00 | 0.00 | 29 | 1010.4 |
| 20260510040724 | 70 | 15 | 4.0 | 12.0 | 0.00 | 0.00 | 0.00 | 29 | 1010.4 |
| 20260510040619 | 70 | 15 | 4.0 | 12.0 | 0.00 | 0.00 | 0.00 | 29 | 1010.4 |
| 20260510040525 | 70 | 15 | 6.0 | 12.0 | 0.00 | 0.00 | 0.00 | 29 | 1010.4 |
| 20260510040422 | 70 | 20 | 6.0 | 12.0 | 0.00 | 0.00 | 0.00 | 29 | 1010.4 |
| 20260510040320 | 70 | 34 | 5.0 | 10.0 | 0.00 | 0.00 | 0.00 | 28 | 1010.4 |
| 20260510040233 | 70 | 5 | 5.0 | 10.0 | 0.00 | 0.00 | 0.00 | 28 | 1010.4 |
| 20260510040139 | 70 | 5 | 6.0 | 10.0 | 0.00 | 0.00 | 0.00 | 28 | 1010.4 |
| 20260510040046 | 70 | 10 | 6.0 | 10.0 | 0.00 | 0.00 | 0.00 | 28 | 1010.4 |
| 20260510035934 | 70 | 15 | 6.0 | 10.0 | 0.00 | 0.00 | 0.00 | 28 | 1010.4 |
| 20260510035840 | 71 | 40 | 5.0 | 10.0 | 0.00 | 0.00 | 0.00 | 27 | 1010.3 |
| 20260510035734 | 71 | 10 | 5.0 | 10.0 | 0.00 | 0.00 | 0.00 | 27 | 1010.3 |
| 20260510035639 | 71 | 10 | 6.0 | 10.0 | 0.00 | 0.00 | 0.00 | 27 | 1010.3 |
| 20260510035545 | 71 | 5 | 6.0 | 11.0 | 0.00 | 0.00 | 0.00 | 27 | 1010.3 |
| 20260510035428 | 71 | 25 | 6.0 | 11.0 | 0.00 | 0.00 | 0.00 | 27 | 1010.3 |
| 20260510035329 | 71 | 5 | 5.0 | 11.0 | 0.00 | 0.00 | 0.00 | 27 | 1010.2 |
| 20260510035230 | 71 | 19 | 6.0 | 11.0 | 0.00 | 0.00 | 0.00 | 26 | 1010.2 |
| 20260510035139 | 71 | 10 | 6.0 | 11.0 | 0.00 | 0.00 | 0.00 | 26 | 1010.2 |
| 20260510035033 | 71 | 5 | 5.0 | 11.0 | 0.00 | 0.00 | 0.00 | 26 | 1010.2 |
| 20260510034930 | 71 | 21 | 6.0 | 12.0 | 0.00 | 0.00 | 0.00 | 26 | 1010.2 |
| 20260510034834 | 71 | 28 | 7.0 | 12.0 | 0.00 | 0.00 | 0.00 | 26 | 1010.2 |
| 20260510034729 | 71 | 27 | 6.0 | 12.0 | 0.00 | 0.00 | 0.00 | 26 | 1010.2 |
| 20260510034633 | 71 | 5 | 7.0 | 12.0 | 0.00 | 0.00 | 0.00 | 25 | 1010.2 |
| 20260510034541 | 71 | 15 | 7.0 | 12.0 | 0.00 | 0.00 | 0.00 | 25 | 1010.2 |
| 20260510034419 | 71 | 21 | 6.0 | 12.0 | 0.00 | 0.00 | 0.00 | 25 | 1010.2 |
| 20260510034343 | 71 | 19 | 6.0 | 12.0 | 0.00 | 0.00 | 0.00 | 25 | 1010.2 |
| 20260510034239 | 71 | 31 | 6.0 | 12.0 | 0.00 | 0.00 | 0.00 | 25 | 1010.1 |
| 20260510034205 | 72 | 5 | 6.0 | 13.0 | 0.00 | 0.00 | 0.00 | 24 | 1010.1 |
| 20260510034106 | 72 | 38 | 5.0 | 13.0 | 0.00 | 0.00 | 0.00 | 24 | 1010.1 |
| 20260510033940 | 72 | 15 | 5.0 | 13.0 | 0.00 | 0.00 | 0.00 | 24 | 1010.1 |
| 20260510033843 | 72 | 10 | 5.0 | 13.0 | 0.00 | 0.00 | 0.00 | 24 | 1010.1 |
| 20260510033723 | 72 | 15 | 6.0 | 13.0 | 0.00 | 0.00 | 0.00 | 24 | 1010.0 |
| 20260510033648 | 72 | 10 | 7.0 | 13.0 | 0.00 | 0.00 | 0.00 | 23 | 1010.0 |
| 20260510033547 | 72 | 32 | 7.0 | 13.0 | 0.00 | 0.00 | 0.00 | 23 | 1010.0 |
| 20260510033423 | 72 | 33 | 6.0 | 13.0 | 0.00 | 0.00 | 0.00 | 23 | 1010.0 |
| 20260510033318 | 72 | 23 | 7.0 | 13.0 | 0.00 | 0.00 | 0.00 | 22 | 1010.0 |
| 20260510033223 | 72 | 29 | 6.0 | 13.0 | 0.00 | 0.00 | 0.00 | 22 | 1010.0 |
| 20260510033118 | 72 | 31 | 5.0 | 13.0 | 0.00 | 0.00 | 0.00 | 22 | 1010.0 |
| 20260510033022 | 72 | 22 | 6.0 | 13.0 | 0.00 | 0.00 | 0.00 | 21 | 1010.0 |
| 20260510032923 | 72 | 33 | 7.0 | 13.0 | 0.00 | 0.00 | 0.00 | 21 | 1010.0 |
| 20260510032827 | 72 | 355 | 7.0 | 13.0 | 0.00 | 0.00 | 0.00 | 21 | 1010.0 |
| 20260510032723 | 72 | 35 | 6.0 | 13.0 | 0.00 | 0.00 | 0.00 | 21 | 1009.9 |
| 20260510032630 | 73 | 60 | 5.0 | 11.0 | 0.00 | 0.00 | 0.00 | 21 | 1009.9 |
| 20260510032524 | 73 | 5 | 7.0 | 11.0 | 0.00 | 0.00 | 0.00 | 21 | 1009.9 |
| 20260510032450 | 73 | 29 | 7.0 | 11.0 | 0.00 | 0.00 | 0.00 | 21 | 1009.9 |
| 20260510032327 | 73 | 31 | 6.0 | 11.0 | 0.00 | 0.00 | 0.00 | 20 | 1009.9 |
| 20260510032223 | 73 | 21 | 5.0 | 9.0 | 0.00 | 0.00 | 0.00 | 20 | 1009.9 |
| 20260510032152 | 73 | 23 | 5.0 | 9.0 | 0.00 | 0.00 | 0.00 | 20 | 1009.9 |
| 20260510032027 | 73 | 20 | 4.0 | 9.0 | 0.00 | 0.00 | 0.00 | 20 | 1009.9 |
| 20260510031931 | 73 | 15 | 4.0 | 9.0 | 0.00 | 0.00 | 0.00 | 20 | 1009.9 |
| 20260510031823 | 73 | 15 | 4.0 | 9.0 | 0.00 | 0.00 | 0.00 | 20 | 1009.9 |
| 20260510031729 | 73 | 10 | 4.0 | 9.0 | 0.00 | 0.00 | 0.00 | 20 | 1009.9 |
| 20260510031622 | 73 | 15 | 6.0 | 9.0 | 0.00 | 0.00 | 0.00 | 20 | 1009.8 |
| 20260510031525 | 73 | 348 | 6.0 | 9.0 | 0.00 | 0.00 | 0.00 | 20 | 1009.9 |
| 20260510031430 | 74 | 28 | 5.0 | 9.0 | 0.00 | 0.00 | 0.00 | 20 | 1009.9 |
| 20260510031329 | 74 | 29 | 5.0 | 9.0 | 0.00 | 0.00 | 0.00 | 20 | 1009.9 |
| 20260510031226 | 74 | 15 | 5.0 | 9.0 | 0.00 | 0.00 | 0.00 | 20 | 1009.8 |
| 20260510031130 | 74 | 15 | 6.0 | 9.0 | 0.00 | 0.00 | 0.00 | 20 | 1009.9 |
| 20260510031032 | 74 | 23 | 5.0 | 9.0 | 0.00 | 0.00 | 0.00 | 20 | 1009.8 |
| 20260510030929 | 74 | 23 | 4.0 | 9.0 | 0.00 | 0.00 | 0.00 | 20 | 1009.8 |
| 20260510030827 | 74 | 21 | 4.0 | 9.0 | 0.00 | 0.00 | 0.00 | 20 | 1009.7 |
| 20260510030731 | 74 | 21 | 4.0 | 9.0 | 0.00 | 0.00 | 0.00 | 20 | 1009.7 |
| 20260510030635 | 74 | 19 | 5.0 | 9.0 | 0.00 | 0.00 | 0.00 | 20 | 1009.7 |
| 20260510030535 | 74 | 19 | 5.0 | 9.0 | 0.00 | 0.00 | 0.00 | 20 | 1009.7 |
| 20260510030441 | 74 | 27 | 5.0 | 9.0 | 0.00 | 0.00 | 0.00 | 20 | 1009.7 |
| 20260510030335 | 74 | 31 | 5.0 | 9.0 | 0.00 | 0.00 | 0.00 | 20 | 1009.7 |
| 20260510030232 | 74 | 15 | 5.0 | 9.0 | 0.00 | 0.00 | 0.00 | 19 | 1009.7 |
| 20260510030159 | 75 | 360 | 5.0 | 9.0 | 0.00 | 0.00 | 0.00 | 19 | 1009.7 |
| 20260510030041 | 75 | 358 | 5.0 | 9.0 | 0.00 | 0.00 | 0.00 | 19 | 1009.7 |
| 20260510025921 | 75 | 15 | 5.0 | 10.0 | 0.00 | 0.00 | 0.00 | 19 | 1009.7 |
| 20260510025838 | 75 | 10 | 5.0 | 10.0 | 0.00 | 0.00 | 0.00 | 19 | 1009.7 |
| 20260510025744 | 75 | 21 | 6.0 | 10.0 | 0.00 | 0.00 | 0.00 | 19 | 1009.7 |
| 20260510025649 | 75 | 15 | 5.0 | 10.0 | 0.00 | 0.00 | 0.00 | 19 | 1009.7 |
| 20260510025523 | 75 | 28 | 4.0 | 10.0 | 0.00 | 0.00 | 0.00 | 19 | 1009.7 |
| 20260510025419 | 75 | 21 | 5.0 | 10.0 | 0.00 | 0.00 | 0.00 | 19 | 1009.7 |
| 20260510025344 | 75 | 21 | 5.0 | 10.0 | 0.00 | 0.00 | 0.00 | 19 | 1009.7 |
| 20260510025225 | 75 | 5 | 5.0 | 10.0 | 0.00 | 0.00 | 0.00 | 19 | 1009.7 |
| 20260510025119 | 75 | 34 | 5.0 | 10.0 | 0.00 | 0.00 | 0.00 | 19 | 1009.7 |
| 20260510025025 | 76 | 25 | 6.0 | 10.0 | 0.00 | 0.00 | 0.00 | 19 | 1009.7 |
| 20260510024922 | 76 | 26 | 5.0 | 10.0 | 0.00 | 0.00 | 0.00 | 18 | 1009.7 |
| 20260510024827 | 76 | 26 | 5.0 | 10.0 | 0.00 | 0.00 | 0.00 | 18 | 1009.7 |
| 20260510024724 | 76 | 10 | 6.0 | 10.0 | 0.00 | 0.00 | 0.00 | 18 | 1009.7 |
| 20260510024635 | 76 | 26 | 6.0 | 10.0 | 0.00 | 0.00 | 0.00 | 18 | 1009.7 |
| 20260510024531 | 76 | 15 | 5.0 | 10.0 | 0.00 | 0.00 | 0.00 | 19 | 1009.7 |
| 20260510024456 | 76 | 21 | 5.0 | 10.0 | 0.00 | 0.00 | 0.00 | 18 | 1009.7 |
| 20260510024330 | 76 | 23 | 5.0 | 10.0 | 0.00 | 0.00 | 0.00 | 18 | 1009.7 |
| 20260510024235 | 76 | 21 | 5.0 | 10.0 | 0.00 | 0.00 | 0.00 | 18 | 1009.7 |
| 20260510024153 | 76 | 21 | 5.0 | 10.0 | 0.00 | 0.00 | 0.00 | 18 | 1009.7 |
| 20260510024036 | 76 | 25 | 5.0 | 10.0 | 0.00 | 0.00 | 0.00 | 19 | 1009.7 |
| 20260510023933 | 77 | 27 | 5.0 | 10.0 | 0.00 | 0.00 | 0.00 | 18 | 1009.7 |
| 20260510023843 | 77 | 359 | 6.0 | 10.0 | 0.00 | 0.00 | 0.00 | 18 | 1009.7 |
| 20260510023718 | 77 | 5 | 6.0 | 10.0 | 0.00 | 0.00 | 0.00 | 18 | 1009.7 |
| 20260510023643 | 77 | 19 | 5.0 | 10.0 | 0.00 | 0.00 | 0.00 | 18 | 1009.7 |
| 20260510023518 | 77 | 30 | 6.0 | 10.0 | 0.00 | 0.00 | 0.00 | 19 | 1009.6 |
| 20260510023444 | 77 | 46 | 7.0 | 10.0 | 0.00 | 0.00 | 0.00 | 19 | 1009.6 |
| 20260510023319 | 77 | 34 | 5.0 | 11.0 | 0.00 | 0.00 | 0.00 | 19 | 1009.6 |
| 20260510023220 | 77 | 27 | 4.0 | 11.0 | 0.00 | 0.00 | 0.00 | 19 | 1009.6 |
| 20260510023148 | 77 | 27 | 4.0 | 11.0 | 0.00 | 0.00 | 0.00 | 19 | 1009.6 |
| 20260510023021 | 78 | 21 | 5.0 | 14.0 | 0.00 | 0.00 | 0.00 | 19 | 1009.6 |
| 20260510022928 | 78 | 20 | 5.0 | 14.0 | 0.00 | 0.00 | 0.00 | 18 | 1009.6 |
| 20260510022825 | 78 | 39 | 6.0 | 14.0 | 0.00 | 0.00 | 0.00 | 18 | 1009.7 |
| 20260510022722 | 78 | 34 | 6.0 | 14.0 | 0.00 | 0.00 | 0.00 | 18 | 1009.7 |
| 20260510022625 | 78 | 49 | 6.0 | 14.0 | 0.00 | 0.00 | 0.00 | 18 | 1009.7 |
| 20260510022530 | 78 | 32 | 8.0 | 14.0 | 0.00 | 0.00 | 0.00 | 18 | 1009.7 |
| 20260510022431 | 78 | 29 | 7.0 | 14.0 | 0.00 | 0.00 | 0.00 | 18 | 1009.7 |
| 20260510022338 | 78 | 10 | 7.0 | 14.0 | 0.00 | 0.00 | 0.00 | 18 | 1009.7 |
| 20260510022234 | 78 | 31 | 7.0 | 13.0 | 0.00 | 0.00 | 0.00 | 18 | 1009.7 |
| 20260510022133 | 79 | 5 | 7.0 | 13.0 | 0.00 | 0.00 | 0.00 | 18 | 1009.7 |
| 20260510022037 | 79 | 45 | 8.0 | 13.0 | 0.00 | 0.00 | 0.00 | 18 | 1009.7 |
| 20260510021932 | 79 | 19 | 9.0 | 13.0 | 0.00 | 0.00 | 0.00 | 18 | 1009.7 |
| 20260510021842 | 79 | 27 | 8.0 | 13.0 | 0.00 | 0.00 | 0.00 | 18 | 1009.7 |
| 20260510021737 | 79 | 24 | 7.0 | 13.0 | 0.00 | 0.00 | 0.00 | 18 | 1009.7 |
| 20260510021635 | 79 | 42 | 7.0 | 13.0 | 0.00 | 0.00 | 0.00 | 18 | 1009.7 |
| 20260510021540 | 79 | 35 | 6.0 | 11.0 | 0.00 | 0.00 | 0.00 | 18 | 1009.7 |
| 20260510021446 | 79 | 41 | 6.0 | 11.0 | 0.00 | 0.00 | 0.00 | 18 | 1009.7 |
| 20260510021323 | 79 | 47 | 7.0 | 12.0 | 0.00 | 0.00 | 0.00 | 19 | 1009.7 |
| 20260510021220 | 79 | 15 | 8.0 | 12.0 | 0.00 | 0.00 | 0.00 | 19 | 1009.7 |
| 20260510021150 | 80 | 10 | 7.0 | 12.0 | 0.00 | 0.00 | 0.00 | 18 | 1009.7 |
| 20260510021023 | 80 | 33 | 5.0 | 12.0 | 0.00 | 0.00 | 0.00 | 18 | 1009.6 |
| 20260510020928 | 80 | 21 | 6.0 | 12.0 | 0.00 | 0.00 | 0.00 | 18 | 1009.6 |
| 20260510020825 | 80 | 36 | 5.0 | 12.0 | 0.00 | 0.00 | 0.00 | 18 | 1009.7 |
| 20260510020751 | 80 | 59 | 5.0 | 12.0 | 0.00 | 0.00 | 0.00 | 18 | 1009.6 |
| 20260510020655 | 80 | 62 | 7.0 | 12.0 | 0.00 | 0.00 | 0.00 | 18 | 1009.6 |
| 20260510020530 | 80 | 42 | 7.0 | 12.0 | 0.00 | 0.00 | 0.00 | 18 | 1009.7 |
| 20260510020436 | 80 | 28 | 6.0 | 12.0 | 0.00 | 0.00 | 0.00 | 18 | 1009.7 |
| 20260510020339 | 80 | 52 | 6.0 | 12.0 | 0.00 | 0.00 | 0.00 | 18 | 1009.7 |
| 20260510020219 | 80 | 24 | 6.0 | 11.0 | 0.00 | 0.00 | 0.00 | 18 | 1009.7 |
| 20260510020147 | 80 | 23 | 6.0 | 11.0 | 0.00 | 0.00 | 0.00 | 18 | 1009.7 |
| 20260510020022 | 80 | 40 | 4.0 | 10.0 | 0.00 | 0.00 | 0.00 | 18 | 1009.6 |
| 20260510015920 | 80 | 39 | 5.0 | 10.0 | 0.00 | 0.00 | 0.00 | 18 | 1009.7 |
| 20260510015846 | 80 | 39 | 5.0 | 11.0 | 0.00 | 0.00 | 0.00 | 18 | 1009.7 |
| 20260510015725 | 80 | 10 | 4.0 | 11.0 | 0.00 | 0.00 | 0.00 | 18 | 1009.6 |
| 20260510015625 | 80 | 23 | 3.0 | 11.0 | 0.00 | 0.00 | 0.00 | 17 | 1009.7 |
| 20260510015528 | 81 | 65 | 5.0 | 11.0 | 0.00 | 0.00 | 0.00 | 17 | 1009.7 |
| 20260510015452 | 80 | 75 | 4.0 | 11.0 | 0.00 | 0.00 | 0.00 | 17 | 1009.6 |
| 20260510015329 | 80 | 30 | 3.0 | 11.0 | 0.00 | 0.00 | 0.00 | 18 | 1009.6 |
| 20260510015234 | 80 | 42 | 4.0 | 11.0 | 0.00 | 0.00 | 0.00 | 17 | 1009.7 |
| 20260510015133 | 80 | 15 | 5.0 | 11.0 | 0.00 | 0.00 | 0.00 | 18 | 1009.7 |
| 20260510015038 | 80 | 40 | 4.0 | 11.0 | 0.00 | 0.00 | 0.00 | 18 | 1009.7 |
| 20260510014937 | 80 | 42 | 3.0 | 11.0 | 0.00 | 0.00 | 0.00 | 18 | 1009.7 |
| 20260510014843 | 80 | 44 | 4.0 | 11.0 | 0.00 | 0.00 | 0.00 | 17 | 1009.7 |
| 20260510014718 | 81 | 44 | 5.0 | 11.0 | 0.00 | 0.00 | 0.00 | 18 | 1009.6 |
| 20260510014645 | 81 | 62 | 4.0 | 11.0 | 0.00 | 0.00 | 0.00 | 18 | 1009.6 |
| 20260510014520 | 81 | 49 | 3.0 | 11.0 | 0.00 | 0.00 | 0.00 | 18 | 1009.8 |
| 20260510014418 | 81 | 15 | 5.0 | 11.0 | 0.00 | 0.00 | 0.00 | 17 | 1009.7 |
| 20260510014323 | 81 | 19 | 5.0 | 11.0 | 0.00 | 0.00 | 0.00 | 17 | 1009.8 |
| 20260510014223 | 81 | 47 | 4.0 | 11.0 | 0.00 | 0.00 | 0.00 | 17 | 1009.8 |
| 20260510014129 | 81 | 22 | 5.0 | 11.0 | 0.00 | 0.00 | 0.00 | 18 | 1009.8 |
| 20260510014033 | 81 | 10 | 5.0 | 11.0 | 0.00 | 0.00 | 0.00 | 18 | 1009.8 |
| 20260510013931 | 81 | 33 | 4.0 | 11.0 | 0.00 | 0.00 | 0.00 | 18 | 1009.8 |
| 20260510013828 | 81 | 27 | 4.0 | 11.0 | 0.00 | 0.00 | 0.00 | 17 | 1009.8 |
| 20260510013734 | 81 | 21 | 4.0 | 12.0 | 0.00 | 0.00 | 0.00 | 18 | 1009.8 |
| 20260510013632 | 81 | 15 | 4.0 | 12.0 | 0.00 | 0.00 | 0.00 | 18 | 1009.8 |
| 20260510013519 | 81 | 10 | 5.0 | 12.0 | 0.00 | 0.00 | 0.00 | 18 | 1009.8 |
| 20260510013424 | 81 | 66 | 5.0 | 12.0 | 0.00 | 0.00 | 0.00 | 17 | 1009.8 |
| 20260510013340 | 81 | 15 | 5.0 | 12.0 | 0.00 | 0.00 | 0.00 | 17 | 1009.9 |
| 20260510013224 | 81 | 5 | 6.0 | 12.0 | 0.00 | 0.00 | 0.00 | 17 | 1009.8 |
| 20260510013152 | 81 | 35 | 6.0 | 12.0 | 0.00 | 0.00 | 0.00 | 17 | 1009.8 |
| 20260510013025 | 81 | 41 | 6.0 | 12.0 | 0.00 | 0.00 | 0.00 | 17 | 1009.8 |
| 20260510012951 | 81 | 10 | 6.0 | 12.0 | 0.00 | 0.00 | 0.00 | 17 | 1009.9 |
| 20260510012847 | 81 | 36 | 5.0 | 12.0 | 0.00 | 0.00 | 0.00 | 17 | 1009.9 |
| 20260510012732 | 81 | 48 | 5.0 | 12.0 | 0.00 | 0.00 | 0.00 | 17 | 1009.9 |
| 20260510012635 | 81 | 39 | 5.0 | 12.0 | 0.00 | 0.00 | 0.00 | 17 | 1009.9 |
| 20260510012539 | 81 | 52 | 5.0 | 12.0 | 0.00 | 0.00 | 0.00 | 17 | 1009.9 |
| 20260510012436 | 81 | 36 | 6.0 | 12.0 | 0.00 | 0.00 | 0.00 | 17 | 1010.0 |
| 20260510012342 | 81 | 37 | 5.0 | 11.0 | 0.00 | 0.00 | 0.00 | 17 | 1010.0 |
| 20260510012238 | 81 | 29 | 6.0 | 11.0 | 0.00 | 0.00 | 0.00 | 17 | 1010.0 |
| 20260510012141 | 81 | 52 | 8.0 | 11.0 | 0.00 | 0.00 | 0.00 | 17 | 1010.0 |
| 20260510012046 | 81 | 67 | 7.0 | 11.0 | 0.00 | 0.00 | 0.00 | 17 | 1010.0 |
| 20260510011927 | 81 | 50 | 6.0 | 11.0 | 0.00 | 0.00 | 0.00 | 16 | 1010.0 |
| 20260510011824 | 81 | 58 | 6.0 | 11.0 | 0.00 | 0.00 | 0.00 | 17 | 1010.0 |
| 20260510011750 | 81 | 65 | 5.0 | 11.0 | 0.00 | 0.00 | 0.00 | 17 | 1010.0 |
| 20260510011628 | 81 | 15 | 4.0 | 11.0 | 0.00 | 0.00 | 0.00 | 17 | 1010.0 |
| 20260510011530 | 81 | 15 | 6.0 | 11.0 | 0.00 | 0.00 | 0.00 | 16 | 1010.0 |
| 20260510011427 | 81 | 15 | 6.0 | 11.0 | 0.00 | 0.00 | 0.00 | 17 | 1010.0 |
| 20260510011353 | 81 | 25 | 5.0 | 11.0 | 0.00 | 0.00 | 0.00 | 17 | 1010.0 |
| 20260510011258 | 81 | 22 | 4.0 | 11.0 | 0.00 | 0.00 | 0.00 | 17 | 1010.0 |
| 20260510010723 | 81 | 44 | 6.0 | 11.0 | 0.00 | 0.00 | 0.00 | 17 | 1010.0 |
| 20260510010632 | 81 | 59 | 7.0 | 11.0 | 0.00 | 0.00 | 0.00 | 17 | 1010.0 |
| 20260510010527 | 81 | 22 | 7.0 | 11.0 | 0.00 | 0.00 | 0.00 | 17 | 1010.0 |
| 20260510010454 | 81 | 31 | 5.0 | 11.0 | 0.00 | 0.00 | 0.00 | 17 | 1010.0 |
| 20260510010346 | 81 | 31 | 4.0 | 11.0 | 0.00 | 0.00 | 0.00 | 17 | 1010.0 |
| 20260510010238 | 81 | 36 | 4.0 | 12.0 | 0.00 | 0.00 | 0.00 | 17 | 1010.0 |
| 20260510010139 | 81 | 34 | 5.0 | 12.0 | 0.00 | 0.00 | 0.00 | 17 | 1010.0 |
| 20260510010033 | 81 | 54 | 6.0 | 12.0 | 0.00 | 0.00 | 0.00 | 17 | 1010.0 |
| 20260510005918 | 81 | 46 | 7.0 | 12.0 | 0.00 | 0.00 | 0.00 | 17 | 1010.0 |
| 20260510005822 | 81 | 35 | 7.0 | 12.0 | 0.00 | 0.00 | 0.00 | 17 | 1010.0 |
| 20260510005723 | 81 | 63 | 6.0 | 12.0 | 0.00 | 0.00 | 0.00 | 17 | 1010.0 |
| 20260510005630 | 81 | 58 | 6.0 | 12.0 | 0.00 | 0.00 | 0.00 | 17 | 1010.0 |
| 20260510005545 | 81 | 22 | 6.0 | 12.0 | 0.00 | 0.00 | 0.00 | 17 | 1010.0 |
| 20260510005428 | 81 | 34 | 5.0 | 12.0 | 0.00 | 0.00 | 0.00 | 17 | 1010.0 |
| 20260510005335 | 81 | 54 | 4.0 | 11.0 | 0.00 | 0.00 | 0.00 | 17 | 1010.0 |
| 20260510005231 | 81 | 46 | 5.0 | 11.0 | 0.00 | 0.00 | 0.00 | 17 | 1010.0 |
| 20260510005158 | 81 | 59 | 5.0 | 11.0 | 0.00 | 0.00 | 0.00 | 17 | 1010.0 |
| 20260510005032 | 81 | 29 | 6.0 | 12.0 | 0.00 | 0.00 | 0.00 | 17 | 1010.0 |
| 20260510004941 | 81 | 30 | 6.0 | 12.0 | 0.00 | 0.00 | 0.00 | 17 | 1010.0 |
| 20260510004838 | 81 | 350 | 7.0 | 12.0 | 0.00 | 0.00 | 0.00 | 17 | 1009.9 |
| 20260510004745 | 81 | 15 | 6.0 | 12.0 | 0.00 | 0.00 | 0.00 | 17 | 1009.9 |
| 20260510004620 | 81 | 54 | 4.0 | 12.0 | 0.00 | 0.00 | 0.00 | 17 | 1010.0 |
| 20260510004546 | 81 | 52 | 5.0 | 12.0 | 0.00 | 0.00 | 0.00 | 17 | 1010.0 |
| 20260510004424 | 81 | 348 | 6.0 | 12.0 | 0.00 | 0.00 | 0.00 | 17 | 1010.1 |
| 20260510004341 | 81 | 40 | 7.0 | 12.0 | 0.00 | 0.00 | 0.00 | 17 | 1010.1 |
| 20260510004246 | 81 | 31 | 7.0 | 12.0 | 0.00 | 0.00 | 0.00 | 17 | 1010.1 |
| 20260510004136 | 81 | 15 | 7.0 | 12.0 | 0.00 | 0.00 | 0.00 | 17 | 1010.1 |
| 20260510004030 | 81 | 32 | 6.0 | 12.0 | 0.00 | 0.00 | 0.00 | 16 | 1010.1 |
| 20260510003937 | 81 | 40 | 6.0 | 12.0 | 0.00 | 0.00 | 0.00 | 16 | 1010.1 |
| 20260510003832 | 81 | 26 | 6.0 | 12.0 | 0.00 | 0.00 | 0.00 | 16 | 1010.1 |
| 20260510003730 | 81 | 5 | 4.0 | 12.0 | 0.00 | 0.00 | 0.00 | 16 | 1010.1 |
| 20260510003637 | 81 | 5 | 5.0 | 12.0 | 0.00 | 0.00 | 0.00 | 16 | 1010.1 |
| 20260510003535 | 81 | 22 | 7.0 | 12.0 | 0.00 | 0.00 | 0.00 | 16 | 1010.1 |
| 20260510003442 | 81 | 10 | 6.0 | 12.0 | 0.00 | 0.00 | 0.00 | 17 | 1010.1 |
| 20260510003355 | 81 | 44 | 7.0 | 12.0 | 0.00 | 0.00 | 0.00 | 16 | 1010.1 |
| 20260510003240 | 81 | 36 | 8.0 | 12.0 | 0.00 | 0.00 | 0.00 | 16 | 1010.1 |
| 20260510003207 | 81 | 10 | 7.0 | 12.0 | 0.00 | 0.00 | 0.00 | 16 | 1010.0 |
| 20260510003021 | 81 | 26 | 6.0 | 12.0 | 0.00 | 0.00 | 0.00 | 16 | 1010.1 |
| 20260510002936 | 81 | 15 | 6.0 | 12.0 | 0.00 | 0.00 | 0.00 | 16 | 1010.1 |
| 20260510002825 | 81 | 36 | 5.0 | 12.0 | 0.00 | 0.00 | 0.00 | 16 | 1010.0 |
| 20260510002722 | 81 | 41 | 4.0 | 12.0 | 0.00 | 0.00 | 0.00 | 17 | 1010.1 |
| 20260510002648 | 81 | 27 | 4.0 | 12.0 | 0.00 | 0.00 | 0.00 | 17 | 1010.1 |
| 20260510002522 | 81 | 67 | 5.0 | 12.0 | 0.00 | 0.00 | 0.00 | 16 | 1010.0 |
| 20260510002419 | 82 | 72 | 6.0 | 12.0 | 0.00 | 0.00 | 0.00 | 16 | 1010.0 |
| 20260510002325 | 82 | 5 | 7.0 | 12.0 | 0.00 | 0.00 | 0.00 | 16 | 1010.1 |
| 20260510002221 | 82 | 44 | 7.0 | 12.0 | 0.00 | 0.00 | 0.00 | 16 | 1010.2 |
| 20260510002132 | 82 | 50 | 7.0 | 12.0 | 0.00 | 0.00 | 0.00 | 15 | 1010.2 |
| 20260510002028 | 82 | 46 | 6.0 | 12.0 | 0.00 | 0.00 | 0.00 | 15 | 1010.2 |
| 20260510001931 | 82 | 10 | 6.0 | 12.0 | 0.00 | 0.00 | 0.00 | 15 | 1010.1 |
| 20260510001828 | 82 | 10 | 5.0 | 12.0 | 0.00 | 0.00 | 0.00 | 15 | 1010.2 |
| 20260510001732 | 82 | 29 | 5.0 | 12.0 | 0.00 | 0.00 | 0.00 | 14 | 1010.2 |
| 20260510001631 | 82 | 10 | 5.0 | 12.0 | 0.00 | 0.00 | 0.00 | 15 | 1010.2 |
| 20260510001555 | 82 | 343 | 6.0 | 12.0 | 0.00 | 0.00 | 0.00 | 15 | 1010.2 |
| 20260510001436 | 82 | 23 | 6.0 | 12.0 | 0.00 | 0.00 | 0.00 | 15 | 1010.2 |
| 20260510001341 | 82 | 10 | 6.0 | 11.0 | 0.00 | 0.00 | 0.00 | 15 | 1010.2 |
| 20260510001237 | 82 | 15 | 5.0 | 11.0 | 0.00 | 0.00 | 0.00 | 15 | 1010.2 |
| 20260510001145 | 82 | 30 | 4.0 | 12.0 | 0.00 | 0.00 | 0.00 | 16 | 1010.3 |
| 20260510001020 | 82 | 48 | 4.0 | 12.0 | 0.00 | 0.00 | 0.00 | 15 | 1010.2 |
| 20260510000936 | 82 | 92 | 3.0 | 12.0 | 0.00 | 0.00 | 0.00 | 15 | 1010.2 |
| 20260510000826 | 82 | 59 | 3.0 | 12.0 | 0.00 | 0.00 | 0.00 | 16 | 1010.3 |
| 20260510000720 | 82 | 36 | 4.0 | 12.0 | 0.00 | 0.00 | 0.00 | 16 | 1010.3 |
| 20260510000648 | 82 | 21 | 5.0 | 12.0 | 0.00 | 0.00 | 0.00 | 16 | 1010.3 |
| 20260510000522 | 82 | 32 | 8.0 | 12.0 | 0.00 | 0.00 | 0.00 | 15 | 1010.4 |
| 20260510000419 | 82 | 36 | 6.0 | 12.0 | 0.00 | 0.00 | 0.00 | 15 | 1010.4 |
| 20260510000345 | 82 | 5 | 5.0 | 12.0 | 0.00 | 0.00 | 0.00 | 15 | 1010.4 |
| 20260510000250 | 82 | 15 | 6.0 | 12.0 | 0.00 | 0.00 | 0.00 | 16 | 1010.4 |
| 20260510000125 | 82 | 34 | 5.0 | 12.0 | 0.00 | 0.00 | 0.00 | 16 | 1010.4 |
| 20260510000033 | 82 | 48 | 4.0 | 12.0 | 0.00 | 0.00 | 0.00 | 15 | 1010.4 |
| 20260509235929 | 82 | 46 | 4.0 | 12.0 | 0.00 | 0.00 | 0.00 | 15 | 1010.4 |
| 20260509235826 | 82 | 46 | 5.0 | 12.0 | 0.00 | 0.00 | 0.00 | 15 | 1010.4 |
| 20260509235732 | 82 | 54 | 6.0 | 12.0 | 0.00 | 0.00 | 0.00 | 14 | 1010.4 |
| 20260509235638 | 82 | 360 | 8.0 | 12.0 | 0.00 | 0.00 | 0.00 | 15 | 1010.4 |
| 20260509235533 | 82 | 5 | 7.0 | 13.0 | 0.00 | 0.00 | 0.00 | 15 | 1010.4 |
| 20260509235428 | 82 | 323 | 4.0 | 13.0 | 0.00 | 0.00 | 0.00 | 15 | 1010.4 |
| 20260509235337 | 82 | 5 | 5.0 | 13.0 | 0.00 | 0.00 | 0.00 | 15 | 1010.4 |
| 20260509235244 | 82 | 21 | 5.0 | 13.0 | 0.00 | 0.00 | 0.00 | 15 | 1010.4 |
| 20260509235139 | 82 | 10 | 3.0 | 13.0 | 0.00 | 0.00 | 0.00 | 14 | 1010.4 |
| 20260509235024 | 82 | 10 | 4.0 | 13.0 | 0.00 | 0.00 | 0.00 | 15 | 1010.4 |
| 20260509234922 | 82 | 10 | 6.0 | 13.0 | 0.00 | 0.00 | 0.00 | 15 | 1010.5 |
| 20260509234819 | 82 | 26 | 8.0 | 13.0 | 0.00 | 0.00 | 0.00 | 15 | 1010.5 |
| 20260509234744 | 82 | 27 | 8.0 | 13.0 | 0.00 | 0.00 | 0.00 | 15 | 1010.6 |
| 20260509234634 | 82 | 25 | 7.0 | 11.0 | 0.00 | 0.00 | 0.00 | 15 | 1010.6 |
| 20260509234529 | 82 | 10 | 7.0 | 11.0 | 0.00 | 0.00 | 0.00 | 15 | 1010.5 |
| 20260509234435 | 82 | 358 | 6.0 | 11.0 | 0.00 | 0.00 | 0.00 | 15 | 1010.6 |
| 20260509234351 | 82 | 39 | 5.0 | 11.0 | 0.00 | 0.00 | 0.00 | 16 | 1010.6 |
| 20260509234234 | 82 | 34 | 4.0 | 13.0 | 0.00 | 0.00 | 0.00 | 16 | 1010.5 |
| 20260509234141 | 81 | 39 | 5.0 | 13.0 | 0.00 | 0.00 | 0.00 | 16 | 1010.6 |
| 20260509234055 | 81 | 36 | 4.0 | 13.0 | 0.00 | 0.00 | 0.00 | 16 | 1010.6 |
| 20260509233939 | 81 | 45 | 5.0 | 13.0 | 0.00 | 0.00 | 0.00 | 15 | 1010.6 |
| 20260509233820 | 81 | 5 | 6.0 | 13.0 | 0.00 | 0.00 | 0.00 | 15 | 1010.6 |
| 20260509233745 | 81 | 15 | 5.0 | 13.0 | 0.00 | 0.00 | 0.00 | 16 | 1010.6 |
| 20260509233642 | 81 | 10 | 5.0 | 13.0 | 0.00 | 0.00 | 0.00 | 16 | 1010.7 |
| 20260509233545 | 81 | 5 | 6.0 | 13.0 | 0.00 | 0.00 | 0.00 | 16 | 1010.7 |
| 20260509233422 | 81 | 32 | 8.0 | 13.0 | 0.00 | 0.00 | 0.00 | 16 | 1010.7 |
| 20260509233318 | 81 | 19 | 6.0 | 12.0 | 0.00 | 0.00 | 0.00 | 16 | 1010.7 |
| 20260509233225 | 81 | 44 | 5.0 | 12.0 | 0.00 | 0.00 | 0.00 | 16 | 1010.7 |
| 20260509233123 | 81 | 26 | 5.0 | 12.0 | 0.00 | 0.00 | 0.00 | 16 | 1010.7 |
| 20260509233027 | 81 | 15 | 6.0 | 12.0 | 0.00 | 0.00 | 0.00 | 16 | 1010.7 |
| 20260509232922 | 81 | 48 | 6.0 | 12.0 | 0.00 | 0.00 | 0.00 | 16 | 1010.7 |
| 20260509232820 | 81 | 25 | 6.0 | 12.0 | 0.00 | 0.00 | 0.00 | 16 | 1010.8 |
| 20260509232727 | 80 | 50 | 6.0 | 12.0 | 0.00 | 0.00 | 0.00 | 16 | 1010.8 |
| 20260509232623 | 80 | 10 | 5.0 | 9.0 | 0.00 | 0.00 | 0.00 | 16 | 1010.7 |
| 20260509232532 | 80 | 20 | 4.0 | 9.0 | 0.00 | 0.00 | 0.00 | 16 | 1010.7 |
| 20260509232428 | 80 | 27 | 3.0 | 8.0 | 0.00 | 0.00 | 0.00 | 16 | 1010.7 |
| 20260509232332 | 80 | 10 | 3.0 | 10.0 | 0.00 | 0.00 | 0.00 | 16 | 1010.8 |
| 20260509232258 | 80 | 5 | 3.0 | 11.0 | 0.00 | 0.00 | 0.00 | 17 | 1010.8 |